<?xml version='1.0' encoding='UTF-8'?>
<gpx version="1.1" creator="https://www.komoot.de" xmlns="http://www.topografix.com/GPX/1/1" xmlns:xsi="http://www.w3.org/2001/XMLSchema-instance" xsi:schemaLocation="http://www.topografix.com/GPX/1/1 http://www.topografix.com/GPX/1/1/gpx.xsd">
  <metadata>
    <name>57_750SchupfartBuerenst</name>
    <author>
      <link href="https://www.komoot.de">
        <text>komoot</text>
        <type>text/html</type>
      </link>
    </author>
  </metadata>
  <trk>
    <name>57_750SchupfartBuerenst</name>
    <trkseg>
      <trkpt lat="47.541159" lon="7.870999">
        <ele>342.955720</ele>
        <time>2021-11-14T19:47:39.442Z</time>
      </trkpt>
      <trkpt lat="47.540933" lon="7.871187">
        <ele>342.955720</ele>
        <time>2021-11-14T19:47:45.284Z</time>
      </trkpt>
      <trkpt lat="47.540894" lon="7.871220">
        <ele>342.955720</ele>
        <time>2021-11-14T19:47:46.412Z</time>
      </trkpt>
      <trkpt lat="47.540693" lon="7.871390">
        <ele>342.955720</ele>
        <time>2021-11-14T19:47:51.810Z</time>
      </trkpt>
      <trkpt lat="47.540463" lon="7.871584">
        <ele>342.955720</ele>
        <time>2021-11-14T19:47:57.986Z</time>
      </trkpt>
      <trkpt lat="47.540265" lon="7.871808">
        <ele>343.217772</ele>
        <time>2021-11-14T19:48:03.464Z</time>
      </trkpt>
      <trkpt lat="47.540216" lon="7.871851">
        <ele>343.317233</ele>
        <time>2021-11-14T19:48:04.924Z</time>
      </trkpt>
      <trkpt lat="47.540034" lon="7.871970">
        <ele>343.664661</ele>
        <time>2021-11-14T19:48:09.499Z</time>
      </trkpt>
      <trkpt lat="47.539930" lon="7.872041">
        <ele>343.864646</ele>
        <time>2021-11-14T19:48:12.064Z</time>
      </trkpt>
      <trkpt lat="47.539841" lon="7.872151">
        <ele>344.067071</ele>
        <time>2021-11-14T19:48:15.092Z</time>
      </trkpt>
      <trkpt lat="47.539678" lon="7.872430">
        <ele>344.502070</ele>
        <time>2021-11-14T19:48:20.616Z</time>
      </trkpt>
      <trkpt lat="47.539222" lon="7.873416">
        <ele>345.911136</ele>
        <time>2021-11-14T19:48:38.158Z</time>
      </trkpt>
      <trkpt lat="47.538278" lon="7.874319">
        <ele>347.120808</ele>
        <time>2021-11-14T19:48:57.811Z</time>
      </trkpt>
      <trkpt lat="47.537716" lon="7.874966">
        <ele>347.837189</ele>
        <time>2021-11-14T19:49:11.786Z</time>
      </trkpt>
      <trkpt lat="47.537261" lon="7.875237">
        <ele>348.828638</ele>
        <time>2021-11-14T19:49:21.303Z</time>
      </trkpt>
      <trkpt lat="47.537182" lon="7.875293">
        <ele>349.020374</ele>
        <time>2021-11-14T19:49:23.292Z</time>
      </trkpt>
      <trkpt lat="47.536921" lon="7.875537">
        <ele>349.696062</ele>
        <time>2021-11-14T19:49:29.259Z</time>
      </trkpt>
      <trkpt lat="47.536757" lon="7.875759">
        <ele>350.182448</ele>
        <time>2021-11-14T19:49:33.860Z</time>
      </trkpt>
      <trkpt lat="47.536632" lon="7.875912">
        <ele>350.537450</ele>
        <time>2021-11-14T19:49:37.028Z</time>
      </trkpt>
      <trkpt lat="47.536444" lon="7.876177">
        <ele>351.105613</ele>
        <time>2021-11-14T19:49:43.990Z</time>
      </trkpt>
      <trkpt lat="47.535851" lon="7.877319">
        <ele>355.030107</ele>
        <time>2021-11-14T19:50:15.304Z</time>
      </trkpt>
      <trkpt lat="47.535770" lon="7.877432">
        <ele>355.588250</ele>
        <time>2021-11-14T19:50:19.484Z</time>
      </trkpt>
      <trkpt lat="47.535635" lon="7.877484">
        <ele>356.287946</ele>
        <time>2021-11-14T19:50:25.351Z</time>
      </trkpt>
      <trkpt lat="47.535551" lon="7.877487">
        <ele>356.709420</ele>
        <time>2021-11-14T19:50:27.260Z</time>
      </trkpt>
      <trkpt lat="47.535322" lon="7.877590">
        <ele>357.909900</ele>
        <time>2021-11-14T19:50:37.311Z</time>
      </trkpt>
      <trkpt lat="47.535088" lon="7.877742">
        <ele>359.191579</ele>
        <time>2021-11-14T19:50:45.143Z</time>
      </trkpt>
      <trkpt lat="47.534855" lon="7.878090">
        <ele>360.851368</ele>
        <time>2021-11-14T19:50:57.126Z</time>
      </trkpt>
      <trkpt lat="47.534778" lon="7.878270">
        <ele>361.545945</ele>
        <time>2021-11-14T19:51:04.433Z</time>
      </trkpt>
      <trkpt lat="47.534825" lon="7.878414">
        <ele>362.066841</ele>
        <time>2021-11-14T19:51:07.060Z</time>
      </trkpt>
      <trkpt lat="47.534946" lon="7.878790">
        <ele>363.423362</ele>
        <time>2021-11-14T19:51:19.108Z</time>
      </trkpt>
      <trkpt lat="47.534908" lon="7.878975">
        <ele>364.053123</ele>
        <time>2021-11-14T19:51:23.166Z</time>
      </trkpt>
      <trkpt lat="47.534616" lon="7.879490">
        <ele>366.243340</ele>
        <time>2021-11-14T19:51:40.112Z</time>
      </trkpt>
      <trkpt lat="47.533892" lon="7.880353">
        <ele>370.036661</ele>
        <time>2021-11-14T19:52:07.852Z</time>
      </trkpt>
      <trkpt lat="47.533606" lon="7.880961">
        <ele>371.043253</ele>
        <time>2021-11-14T19:52:20.160Z</time>
      </trkpt>
      <trkpt lat="47.533374" lon="7.881639">
        <ele>372.075780</ele>
        <time>2021-11-14T19:52:31.206Z</time>
      </trkpt>
      <trkpt lat="47.533014" lon="7.882949">
        <ele>373.032229</ele>
        <time>2021-11-14T19:52:49.121Z</time>
      </trkpt>
      <trkpt lat="47.532859" lon="7.883508">
        <ele>372.904593</ele>
        <time>2021-11-14T19:52:54.999Z</time>
      </trkpt>
      <trkpt lat="47.532713" lon="7.884122">
        <ele>372.767103</ele>
        <time>2021-11-14T19:53:00.696Z</time>
      </trkpt>
      <trkpt lat="47.532699" lon="7.884224">
        <ele>372.745118</ele>
        <time>2021-11-14T19:53:01.650Z</time>
      </trkpt>
      <trkpt lat="47.532670" lon="7.884773">
        <ele>372.628809</ele>
        <time>2021-11-14T19:53:06.144Z</time>
      </trkpt>
      <trkpt lat="47.532658" lon="7.884989">
        <ele>372.514910</ele>
        <time>2021-11-14T19:53:07.756Z</time>
      </trkpt>
      <trkpt lat="47.532650" lon="7.885569">
        <ele>371.882161</ele>
        <time>2021-11-14T19:53:12.258Z</time>
      </trkpt>
      <trkpt lat="47.532505" lon="7.887120">
        <ele>370.174313</ele>
        <time>2021-11-14T19:53:24.209Z</time>
      </trkpt>
      <trkpt lat="47.532288" lon="7.887728">
        <ele>369.443624</ele>
        <time>2021-11-14T19:53:29.386Z</time>
      </trkpt>
      <trkpt lat="47.532011" lon="7.888896">
        <ele>368.190663</ele>
        <time>2021-11-14T19:53:38.616Z</time>
      </trkpt>
      <trkpt lat="47.531843" lon="7.889349">
        <ele>367.667558</ele>
        <time>2021-11-14T19:53:42.653Z</time>
      </trkpt>
      <trkpt lat="47.531560" lon="7.889776">
        <ele>367.061960</ele>
        <time>2021-11-14T19:53:47.593Z</time>
      </trkpt>
      <trkpt lat="47.531265" lon="7.889937">
        <ele>367.046773</ele>
        <time>2021-11-14T19:53:51.561Z</time>
      </trkpt>
      <trkpt lat="47.531076" lon="7.890029">
        <ele>367.082903</ele>
        <time>2021-11-14T19:53:54.402Z</time>
      </trkpt>
      <trkpt lat="47.530606" lon="7.890373">
        <ele>367.178114</ele>
        <time>2021-11-14T19:54:02.251Z</time>
      </trkpt>
      <trkpt lat="47.530322" lon="7.890690">
        <ele>367.242698</ele>
        <time>2021-11-14T19:54:08.244Z</time>
      </trkpt>
      <trkpt lat="47.529972" lon="7.891210">
        <ele>367.373991</ele>
        <time>2021-11-14T19:54:17.406Z</time>
      </trkpt>
      <trkpt lat="47.529714" lon="7.891609">
        <ele>367.766947</ele>
        <time>2021-11-14T19:54:24.740Z</time>
      </trkpt>
      <trkpt lat="47.529695" lon="7.891638">
        <ele>367.795689</ele>
        <time>2021-11-14T19:54:25.726Z</time>
      </trkpt>
      <trkpt lat="47.529235" lon="7.892158">
        <ele>368.405303</ele>
        <time>2021-11-14T19:54:36.660Z</time>
      </trkpt>
      <trkpt lat="47.528331" lon="7.892682">
        <ele>369.540491</ele>
        <time>2021-11-14T19:54:55.362Z</time>
      </trkpt>
      <trkpt lat="47.528003" lon="7.892732">
        <ele>370.074830</ele>
        <time>2021-11-14T19:55:01.068Z</time>
      </trkpt>
      <trkpt lat="47.527498" lon="7.892650">
        <ele>370.898096</ele>
        <time>2021-11-14T19:55:10.541Z</time>
      </trkpt>
      <trkpt lat="47.527011" lon="7.893061">
        <ele>371.806437</ele>
        <time>2021-11-14T19:55:23.734Z</time>
      </trkpt>
      <trkpt lat="47.526709" lon="7.893617">
        <ele>372.916148</ele>
        <time>2021-11-14T19:55:36.266Z</time>
      </trkpt>
      <trkpt lat="47.526504" lon="7.894030">
        <ele>373.883733</ele>
        <time>2021-11-14T19:55:46.447Z</time>
      </trkpt>
      <trkpt lat="47.526451" lon="7.893983">
        <ele>374.056429</ele>
        <time>2021-11-14T19:55:47.836Z</time>
      </trkpt>
      <trkpt lat="47.526401" lon="7.893964">
        <ele>374.200734</ele>
        <time>2021-11-14T19:55:48.653Z</time>
      </trkpt>
      <trkpt lat="47.526335" lon="7.893960">
        <ele>374.385394</ele>
        <time>2021-11-14T19:55:50.727Z</time>
      </trkpt>
      <trkpt lat="47.526257" lon="7.894278">
        <ele>375.024057</ele>
        <time>2021-11-14T19:55:56.939Z</time>
      </trkpt>
      <trkpt lat="47.525725" lon="7.895110">
        <ele>377.173730</ele>
        <time>2021-11-14T19:56:16.020Z</time>
      </trkpt>
      <trkpt lat="47.525603" lon="7.895265">
        <ele>377.385896</ele>
        <time>2021-11-14T19:56:21.637Z</time>
      </trkpt>
      <trkpt lat="47.525631" lon="7.895442">
        <ele>377.547922</ele>
        <time>2021-11-14T19:56:24.487Z</time>
      </trkpt>
      <trkpt lat="47.525631" lon="7.895583">
        <ele>377.673591</ele>
        <time>2021-11-14T19:56:25.679Z</time>
      </trkpt>
      <trkpt lat="47.525622" lon="7.895944">
        <ele>377.995560</ele>
        <time>2021-11-14T19:56:33.114Z</time>
      </trkpt>
      <trkpt lat="47.525590" lon="7.896117">
        <ele>378.155430</ele>
        <time>2021-11-14T19:56:34.667Z</time>
      </trkpt>
      <trkpt lat="47.525518" lon="7.896336">
        <ele>378.372524</ele>
        <time>2021-11-14T19:56:39.474Z</time>
      </trkpt>
      <trkpt lat="47.524834" lon="7.897636">
        <ele>379.533393</ele>
        <time>2021-11-14T19:56:56.397Z</time>
      </trkpt>
      <trkpt lat="47.524617" lon="7.898216">
        <ele>379.528668</ele>
        <time>2021-11-14T19:57:02.571Z</time>
      </trkpt>
      <trkpt lat="47.524360" lon="7.898951">
        <ele>379.522770</ele>
        <time>2021-11-14T19:57:10.111Z</time>
      </trkpt>
      <trkpt lat="47.524309" lon="7.899115">
        <ele>379.521483</ele>
        <time>2021-11-14T19:57:12.025Z</time>
      </trkpt>
      <trkpt lat="47.523896" lon="7.900001">
        <ele>380.089063</ele>
        <time>2021-11-14T19:57:23.948Z</time>
      </trkpt>
      <trkpt lat="47.523861" lon="7.900049">
        <ele>380.183693</ele>
        <time>2021-11-14T19:57:24.927Z</time>
      </trkpt>
      <trkpt lat="47.523890" lon="7.900131">
        <ele>380.307690</ele>
        <time>2021-11-14T19:57:25.882Z</time>
      </trkpt>
      <trkpt lat="47.523945" lon="7.900256">
        <ele>380.507545</ele>
        <time>2021-11-14T19:57:27.473Z</time>
      </trkpt>
      <trkpt lat="47.523989" lon="7.900340">
        <ele>380.649952</ele>
        <time>2021-11-14T19:57:28.523Z</time>
      </trkpt>
      <trkpt lat="47.523957" lon="7.900371">
        <ele>380.725807</ele>
        <time>2021-11-14T19:57:29.228Z</time>
      </trkpt>
      <trkpt lat="47.523878" lon="7.900445">
        <ele>380.911241</ele>
        <time>2021-11-14T19:57:31.345Z</time>
      </trkpt>
      <trkpt lat="47.523739" lon="7.900557">
        <ele>381.225151</ele>
        <time>2021-11-14T19:57:34.276Z</time>
      </trkpt>
      <trkpt lat="47.523648" lon="7.900606">
        <ele>381.417232</ele>
        <time>2021-11-14T19:57:36.455Z</time>
      </trkpt>
      <trkpt lat="47.523620" lon="7.900698">
        <ele>381.552412</ele>
        <time>2021-11-14T19:57:38.419Z</time>
      </trkpt>
      <trkpt lat="47.523567" lon="7.900820">
        <ele>381.746737</ele>
        <time>2021-11-14T19:57:40.516Z</time>
      </trkpt>
      <trkpt lat="47.523433" lon="7.901043">
        <ele>382.146607</ele>
        <time>2021-11-14T19:57:45.760Z</time>
      </trkpt>
      <trkpt lat="47.523340" lon="7.901197">
        <ele>382.423361</ele>
        <time>2021-11-14T19:57:49.802Z</time>
      </trkpt>
      <trkpt lat="47.523036" lon="7.901580">
        <ele>383.356211</ele>
        <time>2021-11-14T19:58:01.498Z</time>
      </trkpt>
      <trkpt lat="47.522688" lon="7.901843">
        <ele>384.970507</ele>
        <time>2021-11-14T19:58:13.816Z</time>
      </trkpt>
      <trkpt lat="47.522554" lon="7.901999">
        <ele>385.674782</ele>
        <time>2021-11-14T19:58:20.137Z</time>
      </trkpt>
      <trkpt lat="47.522260" lon="7.902356">
        <ele>387.245719</ele>
        <time>2021-11-14T19:58:32.510Z</time>
      </trkpt>
      <trkpt lat="47.522132" lon="7.902476">
        <ele>387.871669</ele>
        <time>2021-11-14T19:58:37.068Z</time>
      </trkpt>
      <trkpt lat="47.522065" lon="7.902526">
        <ele>388.181667</ele>
        <time>2021-11-14T19:58:39.262Z</time>
      </trkpt>
      <trkpt lat="47.522038" lon="7.902562">
        <ele>388.331784</ele>
        <time>2021-11-14T19:58:40.767Z</time>
      </trkpt>
      <trkpt lat="47.522013" lon="7.902637">
        <ele>388.565157</ele>
        <time>2021-11-14T19:58:42.900Z</time>
      </trkpt>
      <trkpt lat="47.521792" lon="7.903347">
        <ele>390.669649</ele>
        <time>2021-11-14T19:58:58.968Z</time>
      </trkpt>
      <trkpt lat="47.521297" lon="7.904312">
        <ele>392.920791</ele>
        <time>2021-11-14T19:59:22.970Z</time>
      </trkpt>
      <trkpt lat="47.520989" lon="7.905130">
        <ele>394.660601</ele>
        <time>2021-11-14T19:59:38.385Z</time>
      </trkpt>
      <trkpt lat="47.520678" lon="7.906050">
        <ele>395.640525</ele>
        <time>2021-11-14T19:59:51.855Z</time>
      </trkpt>
      <trkpt lat="47.520566" lon="7.906668">
        <ele>395.829746</ele>
        <time>2021-11-14T19:59:58.875Z</time>
      </trkpt>
      <trkpt lat="47.520528" lon="7.906930">
        <ele>395.908992</ele>
        <time>2021-11-14T20:00:02.135Z</time>
      </trkpt>
      <trkpt lat="47.520515" lon="7.907103">
        <ele>395.960467</ele>
        <time>2021-11-14T20:00:03.933Z</time>
      </trkpt>
      <trkpt lat="47.520506" lon="7.907236">
        <ele>395.999995</ele>
        <time>2021-11-14T20:00:05.009Z</time>
      </trkpt>
      <trkpt lat="47.520551" lon="7.907422">
        <ele>396.058422</ele>
        <time>2021-11-14T20:00:07.419Z</time>
      </trkpt>
      <trkpt lat="47.520733" lon="7.907655">
        <ele>396.163774</ele>
        <time>2021-11-14T20:00:10.606Z</time>
      </trkpt>
      <trkpt lat="47.520738" lon="7.907839">
        <ele>396.218230</ele>
        <time>2021-11-14T20:00:12.748Z</time>
      </trkpt>
      <trkpt lat="47.520493" lon="7.908683">
        <ele>396.403235</ele>
        <time>2021-11-14T20:00:20.928Z</time>
      </trkpt>
      <trkpt lat="47.519997" lon="7.910833">
        <ele>397.041774</ele>
        <time>2021-11-14T20:00:46.874Z</time>
      </trkpt>
      <trkpt lat="47.519891" lon="7.911129">
        <ele>397.275854</ele>
        <time>2021-11-14T20:00:51.464Z</time>
      </trkpt>
      <trkpt lat="47.519720" lon="7.911522">
        <ele>397.602484</ele>
        <time>2021-11-14T20:00:57.549Z</time>
      </trkpt>
      <trkpt lat="47.519421" lon="7.912098">
        <ele>398.110062</ele>
        <time>2021-11-14T20:01:07.115Z</time>
      </trkpt>
      <trkpt lat="47.517688" lon="7.914418">
        <ele>400.580649</ele>
        <time>2021-11-14T20:01:51.693Z</time>
      </trkpt>
      <trkpt lat="47.517281" lon="7.915238">
        <ele>401.224596</ele>
        <time>2021-11-14T20:02:04.707Z</time>
      </trkpt>
      <trkpt lat="47.517140" lon="7.915259">
        <ele>401.357374</ele>
        <time>2021-11-14T20:02:07.208Z</time>
      </trkpt>
      <trkpt lat="47.516806" lon="7.914896">
        <ele>401.745574</ele>
        <time>2021-11-14T20:02:14.783Z</time>
      </trkpt>
      <trkpt lat="47.516748" lon="7.914873">
        <ele>401.801833</ele>
        <time>2021-11-14T20:02:15.954Z</time>
      </trkpt>
      <trkpt lat="47.516662" lon="7.914835">
        <ele>401.885923</ele>
        <time>2021-11-14T20:02:17.745Z</time>
      </trkpt>
      <trkpt lat="47.516626" lon="7.914830">
        <ele>401.919801</ele>
        <time>2021-11-14T20:02:18.440Z</time>
      </trkpt>
      <trkpt lat="47.516590" lon="7.914840">
        <ele>401.954121</ele>
        <time>2021-11-14T20:02:19.036Z</time>
      </trkpt>
      <trkpt lat="47.516569" lon="7.914864">
        <ele>401.978976</ele>
        <time>2021-11-14T20:02:19.570Z</time>
      </trkpt>
      <trkpt lat="47.516544" lon="7.914936">
        <ele>402.030207</ele>
        <time>2021-11-14T20:02:20.417Z</time>
      </trkpt>
      <trkpt lat="47.516391" lon="7.915243">
        <ele>402.270346</ele>
        <time>2021-11-14T20:02:25.210Z</time>
      </trkpt>
      <trkpt lat="47.515014" lon="7.917030">
        <ele>403.992132</ele>
        <time>2021-11-14T20:02:58.986Z</time>
      </trkpt>
      <trkpt lat="47.514635" lon="7.917349">
        <ele>404.623120</ele>
        <time>2021-11-14T20:03:07.105Z</time>
      </trkpt>
      <trkpt lat="47.514561" lon="7.917409">
        <ele>404.745232</ele>
        <time>2021-11-14T20:03:08.997Z</time>
      </trkpt>
      <trkpt lat="47.514255" lon="7.917714">
        <ele>405.279130</ele>
        <time>2021-11-14T20:03:16.466Z</time>
      </trkpt>
      <trkpt lat="47.513378" lon="7.918393">
        <ele>406.783000</ele>
        <time>2021-11-14T20:03:38.192Z</time>
      </trkpt>
      <trkpt lat="47.513160" lon="7.918764">
        <ele>407.403532</ele>
        <time>2021-11-14T20:03:45.702Z</time>
      </trkpt>
      <trkpt lat="47.513058" lon="7.918896">
        <ele>407.656635</ele>
        <time>2021-11-14T20:03:48.849Z</time>
      </trkpt>
      <trkpt lat="47.512938" lon="7.919052">
        <ele>407.954991</ele>
        <time>2021-11-14T20:03:52.649Z</time>
      </trkpt>
      <trkpt lat="47.512664" lon="7.919306">
        <ele>408.558970</ele>
        <time>2021-11-14T20:03:59.981Z</time>
      </trkpt>
      <trkpt lat="47.512255" lon="7.919538">
        <ele>409.377270</ele>
        <time>2021-11-14T20:04:09.652Z</time>
      </trkpt>
      <trkpt lat="47.512085" lon="7.919732">
        <ele>409.778281</ele>
        <time>2021-11-14T20:04:14.264Z</time>
      </trkpt>
      <trkpt lat="47.512072" lon="7.919760">
        <ele>409.821157</ele>
        <time>2021-11-14T20:04:14.793Z</time>
      </trkpt>
      <trkpt lat="47.511964" lon="7.919989">
        <ele>410.022864</ele>
        <time>2021-11-14T20:04:18.801Z</time>
      </trkpt>
      <trkpt lat="47.511883" lon="7.920133">
        <ele>410.156728</ele>
        <time>2021-11-14T20:04:21.455Z</time>
      </trkpt>
      <trkpt lat="47.511632" lon="7.920105">
        <ele>410.422935</ele>
        <time>2021-11-14T20:04:28.105Z</time>
      </trkpt>
      <trkpt lat="47.511613" lon="7.920183">
        <ele>410.482166</ele>
        <time>2021-11-14T20:04:29.020Z</time>
      </trkpt>
      <trkpt lat="47.511186" lon="7.920984">
        <ele>411.211092</ele>
        <time>2021-11-14T20:04:41.697Z</time>
      </trkpt>
      <trkpt lat="47.511067" lon="7.921207">
        <ele>411.414107</ele>
        <time>2021-11-14T20:04:45.035Z</time>
      </trkpt>
      <trkpt lat="47.511052" lon="7.921232">
        <ele>411.437994</ele>
        <time>2021-11-14T20:04:45.476Z</time>
      </trkpt>
      <trkpt lat="47.510872" lon="7.921477">
        <ele>411.696585</ele>
        <time>2021-11-14T20:04:49.780Z</time>
      </trkpt>
      <trkpt lat="47.510639" lon="7.921796">
        <ele>412.062188</ele>
        <time>2021-11-14T20:04:55.293Z</time>
      </trkpt>
      <trkpt lat="47.509688" lon="7.922616">
        <ele>413.340925</ele>
        <time>2021-11-14T20:05:15.711Z</time>
      </trkpt>
      <trkpt lat="47.509615" lon="7.922742">
        <ele>413.471208</ele>
        <time>2021-11-14T20:05:18.800Z</time>
      </trkpt>
      <trkpt lat="47.509583" lon="7.922962">
        <ele>413.647831</ele>
        <time>2021-11-14T20:05:21.584Z</time>
      </trkpt>
      <trkpt lat="47.509550" lon="7.923245">
        <ele>413.922013</ele>
        <time>2021-11-14T20:05:26.351Z</time>
      </trkpt>
      <trkpt lat="47.509595" lon="7.923295">
        <ele>414.045479</ele>
        <time>2021-11-14T20:05:27.454Z</time>
      </trkpt>
      <trkpt lat="47.509668" lon="7.923400">
        <ele>414.268826</ele>
        <time>2021-11-14T20:05:29.361Z</time>
      </trkpt>
      <trkpt lat="47.509817" lon="7.923703">
        <ele>414.824358</ele>
        <time>2021-11-14T20:05:35.551Z</time>
      </trkpt>
      <trkpt lat="47.509869" lon="7.923971">
        <ele>415.237663</ele>
        <time>2021-11-14T20:05:39.428Z</time>
      </trkpt>
      <trkpt lat="47.509886" lon="7.924134">
        <ele>415.482131</ele>
        <time>2021-11-14T20:05:42.425Z</time>
      </trkpt>
      <trkpt lat="47.509886" lon="7.924134">
        <ele>415.482131</ele>
        <time>2021-11-14T20:05:42.514Z</time>
      </trkpt>
      <trkpt lat="47.509806" lon="7.924174">
        <ele>415.667425</ele>
        <time>2021-11-14T20:05:44.270Z</time>
      </trkpt>
      <trkpt lat="47.509676" lon="7.924247">
        <ele>415.972530</ele>
        <time>2021-11-14T20:05:47.151Z</time>
      </trkpt>
      <trkpt lat="47.509605" lon="7.924290">
        <ele>416.140865</ele>
        <time>2021-11-14T20:05:48.985Z</time>
      </trkpt>
      <trkpt lat="47.509572" lon="7.924311">
        <ele>416.219687</ele>
        <time>2021-11-14T20:05:50.131Z</time>
      </trkpt>
      <trkpt lat="47.509223" lon="7.924628">
        <ele>417.118188</ele>
        <time>2021-11-14T20:06:00.484Z</time>
      </trkpt>
      <trkpt lat="47.509032" lon="7.924863">
        <ele>417.663171</ele>
        <time>2021-11-14T20:06:06.295Z</time>
      </trkpt>
      <trkpt lat="47.509016" lon="7.924882">
        <ele>417.708181</ele>
        <time>2021-11-14T20:06:06.829Z</time>
      </trkpt>
      <trkpt lat="47.508667" lon="7.925295">
        <ele>418.748916</ele>
        <time>2021-11-14T20:06:18.221Z</time>
      </trkpt>
      <trkpt lat="47.508355" lon="7.925609">
        <ele>419.630846</ele>
        <time>2021-11-14T20:06:26.594Z</time>
      </trkpt>
      <trkpt lat="47.508106" lon="7.925799">
        <ele>420.285698</ele>
        <time>2021-11-14T20:06:32.908Z</time>
      </trkpt>
      <trkpt lat="47.508002" lon="7.925879">
        <ele>420.559677</ele>
        <time>2021-11-14T20:06:35.295Z</time>
      </trkpt>
      <trkpt lat="47.507856" lon="7.925990">
        <ele>420.943355</ele>
        <time>2021-11-14T20:06:39.152Z</time>
      </trkpt>
      <trkpt lat="47.506112" lon="7.927414">
        <ele>426.992661</ele>
        <time>2021-11-14T20:07:32.147Z</time>
      </trkpt>
      <trkpt lat="47.505881" lon="7.927601">
        <ele>427.842846</ele>
        <time>2021-11-14T20:07:40.843Z</time>
      </trkpt>
      <trkpt lat="47.505868" lon="7.927611">
        <ele>427.888897</ele>
        <time>2021-11-14T20:07:41.306Z</time>
      </trkpt>
      <trkpt lat="47.505814" lon="7.927657">
        <ele>428.084734</ele>
        <time>2021-11-14T20:07:43.863Z</time>
      </trkpt>
      <trkpt lat="47.505253" lon="7.928170">
        <ele>430.157451</ele>
        <time>2021-11-14T20:08:04.532Z</time>
      </trkpt>
      <trkpt lat="47.504799" lon="7.928777">
        <ele>432.080417</ele>
        <time>2021-11-14T20:08:19.932Z</time>
      </trkpt>
      <trkpt lat="47.504724" lon="7.928871">
        <ele>432.389315</ele>
        <time>2021-11-14T20:08:23.897Z</time>
      </trkpt>
      <trkpt lat="47.504650" lon="7.928941">
        <ele>432.665357</ele>
        <time>2021-11-14T20:08:26.430Z</time>
      </trkpt>
      <trkpt lat="47.504005" lon="7.929312">
        <ele>433.937823</ele>
        <time>2021-11-14T20:08:40.871Z</time>
      </trkpt>
      <trkpt lat="47.503815" lon="7.929426">
        <ele>434.166137</ele>
        <time>2021-11-14T20:08:43.831Z</time>
      </trkpt>
      <trkpt lat="47.503598" lon="7.929585">
        <ele>434.435784</ele>
        <time>2021-11-14T20:08:49.107Z</time>
      </trkpt>
      <trkpt lat="47.503528" lon="7.929650">
        <ele>434.527808</ele>
        <time>2021-11-14T20:08:50.179Z</time>
      </trkpt>
      <trkpt lat="47.503485" lon="7.929688">
        <ele>434.583580</ele>
        <time>2021-11-14T20:08:51.690Z</time>
      </trkpt>
      <trkpt lat="47.503014" lon="7.930220">
        <ele>435.243369</ele>
        <time>2021-11-14T20:09:01.602Z</time>
      </trkpt>
      <trkpt lat="47.502761" lon="7.930610">
        <ele>435.594738</ele>
        <time>2021-11-14T20:09:07.956Z</time>
      </trkpt>
      <trkpt lat="47.502613" lon="7.930856">
        <ele>435.775420</ele>
        <time>2021-11-14T20:09:11.754Z</time>
      </trkpt>
      <trkpt lat="47.502400" lon="7.931256">
        <ele>436.054786</ele>
        <time>2021-11-14T20:09:18.558Z</time>
      </trkpt>
      <trkpt lat="47.502023" lon="7.932158">
        <ele>436.636573</ele>
        <time>2021-11-14T20:09:31.544Z</time>
      </trkpt>
      <trkpt lat="47.501901" lon="7.932351">
        <ele>436.781552</ele>
        <time>2021-11-14T20:09:35.303Z</time>
      </trkpt>
      <trkpt lat="47.501794" lon="7.932466">
        <ele>436.888913</ele>
        <time>2021-11-14T20:09:37.182Z</time>
      </trkpt>
      <trkpt lat="47.501463" lon="7.932668">
        <ele>437.293839</ele>
        <time>2021-11-14T20:09:43.321Z</time>
      </trkpt>
      <trkpt lat="47.501075" lon="7.932885">
        <ele>437.771197</ele>
        <time>2021-11-14T20:09:51.147Z</time>
      </trkpt>
      <trkpt lat="47.500990" lon="7.932950">
        <ele>437.881306</ele>
        <time>2021-11-14T20:09:53.465Z</time>
      </trkpt>
      <trkpt lat="47.500843" lon="7.933102">
        <ele>438.087678</ele>
        <time>2021-11-14T20:09:56.472Z</time>
      </trkpt>
      <trkpt lat="47.500435" lon="7.933872">
        <ele>438.848549</ele>
        <time>2021-11-14T20:10:09.710Z</time>
      </trkpt>
      <trkpt lat="47.500386" lon="7.933937">
        <ele>438.924275</ele>
        <time>2021-11-14T20:10:10.927Z</time>
      </trkpt>
      <trkpt lat="47.500352" lon="7.933976">
        <ele>438.973780</ele>
        <time>2021-11-14T20:10:11.734Z</time>
      </trkpt>
      <trkpt lat="47.500275" lon="7.934029">
        <ele>439.205714</ele>
        <time>2021-11-14T20:10:13.983Z</time>
      </trkpt>
      <trkpt lat="47.500208" lon="7.934071">
        <ele>439.407150</ele>
        <time>2021-11-14T20:10:15.650Z</time>
      </trkpt>
      <trkpt lat="47.500193" lon="7.934023">
        <ele>439.506065</ele>
        <time>2021-11-14T20:10:16.293Z</time>
      </trkpt>
      <trkpt lat="47.500169" lon="7.933984">
        <ele>439.604734</ele>
        <time>2021-11-14T20:10:16.823Z</time>
      </trkpt>
      <trkpt lat="47.500138" lon="7.933956">
        <ele>439.705273</ele>
        <time>2021-11-14T20:10:17.624Z</time>
      </trkpt>
      <trkpt lat="47.500067" lon="7.933946">
        <ele>439.902722</ele>
        <time>2021-11-14T20:10:18.860Z</time>
      </trkpt>
      <trkpt lat="47.500034" lon="7.933965">
        <ele>440.000750</ele>
        <time>2021-11-14T20:10:19.826Z</time>
      </trkpt>
      <trkpt lat="47.500007" lon="7.933994">
        <ele>440.093104</ele>
        <time>2021-11-14T20:10:20.899Z</time>
      </trkpt>
      <trkpt lat="47.499971" lon="7.934127">
        <ele>440.361084</ele>
        <time>2021-11-14T20:10:23.307Z</time>
      </trkpt>
      <trkpt lat="47.499976" lon="7.934175">
        <ele>440.451921</ele>
        <time>2021-11-14T20:10:24.199Z</time>
      </trkpt>
      <trkpt lat="47.499991" lon="7.934221">
        <ele>440.547455</ele>
        <time>2021-11-14T20:10:24.713Z</time>
      </trkpt>
      <trkpt lat="47.500077" lon="7.934300">
        <ele>440.827667</ele>
        <time>2021-11-14T20:10:26.933Z</time>
      </trkpt>
      <trkpt lat="47.500111" lon="7.934299">
        <ele>440.921813</ele>
        <time>2021-11-14T20:10:27.570Z</time>
      </trkpt>
      <trkpt lat="47.500121" lon="7.934400">
        <ele>441.112736</ele>
        <time>2021-11-14T20:10:29.771Z</time>
      </trkpt>
      <trkpt lat="47.500647" lon="7.936766">
        <ele>446.706685</ele>
        <time>2021-11-14T20:11:17.853Z</time>
      </trkpt>
      <trkpt lat="47.500700" lon="7.936982">
        <ele>447.357876</ele>
        <time>2021-11-14T20:11:22.816Z</time>
      </trkpt>
      <trkpt lat="47.500786" lon="7.937295">
        <ele>448.315356</ele>
        <time>2021-11-14T20:11:29.885Z</time>
      </trkpt>
      <trkpt lat="47.500922" lon="7.937675">
        <ele>449.533909</ele>
        <time>2021-11-14T20:11:39.299Z</time>
      </trkpt>
      <trkpt lat="47.501302" lon="7.938421">
        <ele>452.359987</ele>
        <time>2021-11-14T20:12:01.173Z</time>
      </trkpt>
      <trkpt lat="47.503196" lon="7.941586">
        <ele>468.082293</ele>
        <time>2021-11-14T20:13:44.982Z</time>
      </trkpt>
      <trkpt lat="47.503525" lon="7.942511">
        <ele>472.267756</ele>
        <time>2021-11-14T20:14:13.866Z</time>
      </trkpt>
      <trkpt lat="47.503757" lon="7.943678">
        <ele>477.659250</ele>
        <time>2021-11-14T20:14:48.121Z</time>
      </trkpt>
      <trkpt lat="47.503877" lon="7.944221">
        <ele>480.191339</ele>
        <time>2021-11-14T20:15:04.186Z</time>
      </trkpt>
      <trkpt lat="47.504206" lon="7.945339">
        <ele>485.575173</ele>
        <time>2021-11-14T20:15:37.614Z</time>
      </trkpt>
      <trkpt lat="47.504339" lon="7.946127">
        <ele>489.143191</ele>
        <time>2021-11-14T20:15:59.215Z</time>
      </trkpt>
      <trkpt lat="47.504360" lon="7.947339">
        <ele>494.469134</ele>
        <time>2021-11-14T20:16:33.982Z</time>
      </trkpt>
      <trkpt lat="47.504516" lon="7.948210">
        <ele>498.305186</ele>
        <time>2021-11-14T20:16:58.364Z</time>
      </trkpt>
      <trkpt lat="47.504564" lon="7.948438">
        <ele>499.317617</ele>
        <time>2021-11-14T20:17:05.489Z</time>
      </trkpt>
      <trkpt lat="47.504637" lon="7.948756">
        <ele>500.741454</ele>
        <time>2021-11-14T20:17:14.120Z</time>
      </trkpt>
      <trkpt lat="47.504833" lon="7.949650">
        <ele>504.726053</ele>
        <time>2021-11-14T20:17:38.891Z</time>
      </trkpt>
      <trkpt lat="47.505078" lon="7.950674">
        <ele>508.935398</ele>
        <time>2021-11-14T20:18:08.367Z</time>
      </trkpt>
      <trkpt lat="47.505298" lon="7.951312">
        <ele>511.586409</ele>
        <time>2021-11-14T20:18:25.637Z</time>
      </trkpt>
      <trkpt lat="47.505561" lon="7.951903">
        <ele>514.205574</ele>
        <time>2021-11-14T20:18:42.017Z</time>
      </trkpt>
      <trkpt lat="47.505724" lon="7.952248">
        <ele>515.763675</ele>
        <time>2021-11-14T20:18:51.914Z</time>
      </trkpt>
      <trkpt lat="47.506242" lon="7.953373">
        <ele>520.229820</ele>
        <time>2021-11-14T20:19:26.377Z</time>
      </trkpt>
      <trkpt lat="47.506403" lon="7.953752">
        <ele>521.686379</ele>
        <time>2021-11-14T20:19:37.805Z</time>
      </trkpt>
      <trkpt lat="47.506539" lon="7.954325">
        <ele>523.662257</ele>
        <time>2021-11-14T20:19:51.677Z</time>
      </trkpt>
      <trkpt lat="47.506555" lon="7.954505">
        <ele>524.252904</ele>
        <time>2021-11-14T20:19:56.044Z</time>
      </trkpt>
      <trkpt lat="47.506559" lon="7.954699">
        <ele>524.683908</ele>
        <time>2021-11-14T20:19:59.926Z</time>
      </trkpt>
      <trkpt lat="47.506560" lon="7.954845">
        <ele>524.541865</ele>
        <time>2021-11-14T20:20:02.189Z</time>
      </trkpt>
      <trkpt lat="47.506539" lon="7.955130">
        <ele>524.262959</ele>
        <time>2021-11-14T20:20:07.928Z</time>
      </trkpt>
      <trkpt lat="47.506484" lon="7.955438">
        <ele>523.953030</ele>
        <time>2021-11-14T20:20:10.327Z</time>
      </trkpt>
      <trkpt lat="47.506190" lon="7.956344">
        <ele>522.975202</ele>
        <time>2021-11-14T20:20:18.033Z</time>
      </trkpt>
      <trkpt lat="47.506053" lon="7.957072">
        <ele>522.239995</ele>
        <time>2021-11-14T20:20:23.196Z</time>
      </trkpt>
      <trkpt lat="47.506050" lon="7.957299">
        <ele>521.533684</ele>
        <time>2021-11-14T20:20:24.640Z</time>
      </trkpt>
      <trkpt lat="47.506050" lon="7.957397">
        <ele>521.054504</ele>
        <time>2021-11-14T20:20:25.190Z</time>
      </trkpt>
      <trkpt lat="47.506128" lon="7.958087">
        <ele>517.633774</ele>
        <time>2021-11-14T20:20:29.466Z</time>
      </trkpt>
      <trkpt lat="47.506363" lon="7.959196">
        <ele>511.950697</ele>
        <time>2021-11-14T20:20:36.373Z</time>
      </trkpt>
      <trkpt lat="47.506641" lon="7.959810">
        <ele>508.362741</ele>
        <time>2021-11-14T20:20:40.759Z</time>
      </trkpt>
      <trkpt lat="47.506874" lon="7.960127">
        <ele>506.148763</ele>
        <time>2021-11-14T20:20:43.621Z</time>
      </trkpt>
      <trkpt lat="47.507319" lon="7.960495">
        <ele>502.582618</ele>
        <time>2021-11-14T20:20:48.249Z</time>
      </trkpt>
      <trkpt lat="47.509248" lon="7.961556">
        <ele>487.560336</ele>
        <time>2021-11-14T20:21:06.766Z</time>
      </trkpt>
      <trkpt lat="47.509385" lon="7.961632">
        <ele>486.460144</ele>
        <time>2021-11-14T20:21:08.046Z</time>
      </trkpt>
      <trkpt lat="47.509788" lon="7.961854">
        <ele>483.226591</ele>
        <time>2021-11-14T20:21:11.808Z</time>
      </trkpt>
      <trkpt lat="47.510127" lon="7.962072">
        <ele>480.132735</ele>
        <time>2021-11-14T20:21:15.053Z</time>
      </trkpt>
      <trkpt lat="47.510301" lon="7.962209">
        <ele>478.468937</ele>
        <time>2021-11-14T20:21:16.764Z</time>
      </trkpt>
      <trkpt lat="47.510406" lon="7.962296">
        <ele>477.453100</ele>
        <time>2021-11-14T20:21:17.835Z</time>
      </trkpt>
      <trkpt lat="47.510552" lon="7.962453">
        <ele>475.929680</ele>
        <time>2021-11-14T20:21:19.425Z</time>
      </trkpt>
      <trkpt lat="47.510679" lon="7.962576">
        <ele>474.648454</ele>
        <time>2021-11-14T20:21:20.726Z</time>
      </trkpt>
      <trkpt lat="47.510706" lon="7.962606">
        <ele>474.363455</ele>
        <time>2021-11-14T20:21:21.026Z</time>
      </trkpt>
      <trkpt lat="47.510909" lon="7.962826">
        <ele>472.239549</ele>
        <time>2021-11-14T20:21:23.201Z</time>
      </trkpt>
      <trkpt lat="47.511697" lon="7.963783">
        <ele>464.988010</ele>
        <time>2021-11-14T20:21:32.273Z</time>
      </trkpt>
      <trkpt lat="47.511807" lon="7.963896">
        <ele>464.222582</ele>
        <time>2021-11-14T20:21:33.468Z</time>
      </trkpt>
      <trkpt lat="47.511885" lon="7.963977">
        <ele>463.677897</ele>
        <time>2021-11-14T20:21:34.365Z</time>
      </trkpt>
      <trkpt lat="47.512076" lon="7.964120">
        <ele>462.454267</ele>
        <time>2021-11-14T20:21:36.298Z</time>
      </trkpt>
      <trkpt lat="47.512806" lon="7.964495">
        <ele>458.036773</ele>
        <time>2021-11-14T20:21:43.641Z</time>
      </trkpt>
      <trkpt lat="47.513069" lon="7.964710">
        <ele>457.539824</ele>
        <time>2021-11-14T20:21:46.624Z</time>
      </trkpt>
      <trkpt lat="47.513387" lon="7.965176">
        <ele>457.532592</ele>
        <time>2021-11-14T20:21:51.605Z</time>
      </trkpt>
      <trkpt lat="47.513439" lon="7.965284">
        <ele>457.531144</ele>
        <time>2021-11-14T20:21:52.571Z</time>
      </trkpt>
      <trkpt lat="47.513496" lon="7.965435">
        <ele>457.529255</ele>
        <time>2021-11-14T20:21:54.333Z</time>
      </trkpt>
      <trkpt lat="47.513552" lon="7.965694">
        <ele>457.526286</ele>
        <time>2021-11-14T20:21:57.695Z</time>
      </trkpt>
      <trkpt lat="47.513574" lon="7.965795">
        <ele>457.525128</ele>
        <time>2021-11-14T20:21:58.723Z</time>
      </trkpt>
      <trkpt lat="47.513607" lon="7.966067">
        <ele>457.522111</ele>
        <time>2021-11-14T20:22:02.809Z</time>
      </trkpt>
      <trkpt lat="47.513677" lon="7.966493">
        <ele>457.517324</ele>
        <time>2021-11-14T20:22:09.298Z</time>
      </trkpt>
      <trkpt lat="47.513719" lon="7.966609">
        <ele>457.515887</ele>
        <time>2021-11-14T20:22:12.551Z</time>
      </trkpt>
      <trkpt lat="47.513963" lon="7.966968">
        <ele>458.950259</ele>
        <time>2021-11-14T20:22:22.882Z</time>
      </trkpt>
      <trkpt lat="47.514175" lon="7.967361">
        <ele>460.980194</ele>
        <time>2021-11-14T20:22:33.726Z</time>
      </trkpt>
      <trkpt lat="47.514265" lon="7.967596">
        <ele>462.070506</ele>
        <time>2021-11-14T20:22:40.349Z</time>
      </trkpt>
      <trkpt lat="47.514516" lon="7.968208">
        <ele>464.960218</ele>
        <time>2021-11-14T20:22:58.695Z</time>
      </trkpt>
      <trkpt lat="47.514581" lon="7.968390">
        <ele>465.791125</ele>
        <time>2021-11-14T20:23:06.024Z</time>
      </trkpt>
      <trkpt lat="47.514762" lon="7.968835">
        <ele>467.887633</ele>
        <time>2021-11-14T20:23:22.702Z</time>
      </trkpt>
      <trkpt lat="47.515012" lon="7.969232">
        <ele>471.060574</ele>
        <time>2021-11-14T20:23:41.152Z</time>
      </trkpt>
      <trkpt lat="47.515227" lon="7.969425">
        <ele>473.375619</ele>
        <time>2021-11-14T20:23:53.912Z</time>
      </trkpt>
      <trkpt lat="47.515307" lon="7.969493">
        <ele>474.224977</ele>
        <time>2021-11-14T20:23:59.281Z</time>
      </trkpt>
      <trkpt lat="47.515780" lon="7.969896">
        <ele>479.249741</ele>
        <time>2021-11-14T20:24:28.525Z</time>
      </trkpt>
      <trkpt lat="47.516258" lon="7.970425">
        <ele>484.744514</ele>
        <time>2021-11-14T20:24:59.585Z</time>
      </trkpt>
      <trkpt lat="47.516475" lon="7.970786">
        <ele>486.107830</ele>
        <time>2021-11-14T20:25:17.277Z</time>
      </trkpt>
      <trkpt lat="47.516639" lon="7.971156">
        <ele>487.315857</ele>
        <time>2021-11-14T20:25:32.110Z</time>
      </trkpt>
      <trkpt lat="47.516849" lon="7.971986">
        <ele>489.735172</ele>
        <time>2021-11-14T20:25:53.467Z</time>
      </trkpt>
      <trkpt lat="47.517017" lon="7.972944">
        <ele>491.507971</ele>
        <time>2021-11-14T20:26:01.216Z</time>
      </trkpt>
      <trkpt lat="47.517070" lon="7.973149">
        <ele>490.490341</ele>
        <time>2021-11-14T20:26:02.640Z</time>
      </trkpt>
      <trkpt lat="47.517191" lon="7.973538">
        <ele>488.504869</ele>
        <time>2021-11-14T20:26:05.431Z</time>
      </trkpt>
      <trkpt lat="47.517208" lon="7.973572">
        <ele>488.308751</ele>
        <time>2021-11-14T20:26:05.674Z</time>
      </trkpt>
      <trkpt lat="47.517263" lon="7.973683">
        <ele>487.670519</ele>
        <time>2021-11-14T20:26:06.508Z</time>
      </trkpt>
      <trkpt lat="47.517422" lon="7.973976">
        <ele>485.928022</ele>
        <time>2021-11-14T20:26:08.836Z</time>
      </trkpt>
      <trkpt lat="47.517539" lon="7.974133">
        <ele>484.844154</ele>
        <time>2021-11-14T20:26:10.230Z</time>
      </trkpt>
      <trkpt lat="47.517601" lon="7.974216">
        <ele>484.270409</ele>
        <time>2021-11-14T20:26:10.957Z</time>
      </trkpt>
      <trkpt lat="47.517803" lon="7.974479">
        <ele>482.424002</ele>
        <time>2021-11-14T20:26:13.305Z</time>
      </trkpt>
      <trkpt lat="47.517897" lon="7.974601">
        <ele>481.565965</ele>
        <time>2021-11-14T20:26:14.369Z</time>
      </trkpt>
      <trkpt lat="47.518511" lon="7.975376">
        <ele>475.288310</ele>
        <time>2021-11-14T20:26:21.281Z</time>
      </trkpt>
      <trkpt lat="47.518771" lon="7.975833">
        <ele>471.967315</ele>
        <time>2021-11-14T20:26:24.794Z</time>
      </trkpt>
      <trkpt lat="47.518954" lon="7.976318">
        <ele>468.879668</ele>
        <time>2021-11-14T20:26:28.135Z</time>
      </trkpt>
      <trkpt lat="47.519021" lon="7.976610">
        <ele>467.165720</ele>
        <time>2021-11-14T20:26:30.052Z</time>
      </trkpt>
      <trkpt lat="47.519068" lon="7.976937">
        <ele>465.307660</ele>
        <time>2021-11-14T20:26:32.141Z</time>
      </trkpt>
      <trkpt lat="47.519130" lon="7.977741">
        <ele>462.885534</ele>
        <time>2021-11-14T20:26:37.151Z</time>
      </trkpt>
      <trkpt lat="47.519217" lon="7.979377">
        <ele>458.343412</ele>
        <time>2021-11-14T20:26:47.943Z</time>
      </trkpt>
      <trkpt lat="47.519262" lon="7.980038">
        <ele>458.028139</ele>
        <time>2021-11-14T20:26:53.158Z</time>
      </trkpt>
      <trkpt lat="47.518938" lon="7.980093">
        <ele>458.597668</ele>
        <time>2021-11-14T20:27:29.611Z</time>
      </trkpt>
      <trkpt lat="47.518298" lon="7.980206">
        <ele>459.723262</ele>
        <time>2021-11-14T20:28:46.421Z</time>
      </trkpt>
      <trkpt lat="47.517633" lon="7.980418">
        <ele>461.205174</ele>
        <time>2021-11-14T20:30:13.950Z</time>
      </trkpt>
      <trkpt lat="47.517255" lon="7.980642">
        <ele>462.976183</ele>
        <time>2021-11-14T20:31:08.862Z</time>
      </trkpt>
      <trkpt lat="47.516970" lon="7.981153">
        <ele>464.923062</ele>
        <time>2021-11-14T20:32:08.461Z</time>
      </trkpt>
      <trkpt lat="47.516666" lon="7.982302">
        <ele>468.543904</ele>
        <time>2021-11-14T20:33:53.208Z</time>
      </trkpt>
      <trkpt lat="47.516360" lon="7.983035">
        <ele>470.025799</ele>
        <time>2021-11-14T20:35:04.361Z</time>
      </trkpt>
      <trkpt lat="47.516251" lon="7.983296">
        <ele>470.553517</ele>
        <time>2021-11-14T20:35:28.788Z</time>
      </trkpt>
      <trkpt lat="47.516036" lon="7.983707">
        <ele>471.447528</ele>
        <time>2021-11-14T20:36:10.593Z</time>
      </trkpt>
      <trkpt lat="47.515459" lon="7.984619">
        <ele>472.943371</ele>
        <time>2021-11-14T20:37:55.760Z</time>
      </trkpt>
      <trkpt lat="47.515212" lon="7.985092">
        <ele>472.569554</ele>
        <time>2021-11-14T20:38:40.570Z</time>
      </trkpt>
      <trkpt lat="47.515029" lon="7.985591">
        <ele>472.214540</ele>
        <time>2021-11-14T20:39:22.487Z</time>
      </trkpt>
      <trkpt lat="47.514984" lon="7.985795">
        <ele>472.080363</ele>
        <time>2021-11-14T20:39:39.414Z</time>
      </trkpt>
      <trkpt lat="47.514955" lon="7.985985">
        <ele>471.958574</ele>
        <time>2021-11-14T20:39:52.988Z</time>
      </trkpt>
      <trkpt lat="47.514922" lon="7.986199">
        <ele>471.821332</ele>
        <time>2021-11-14T20:40:07.960Z</time>
      </trkpt>
      <trkpt lat="47.514895" lon="7.986454">
        <ele>471.659951</ele>
        <time>2021-11-14T20:40:26.481Z</time>
      </trkpt>
      <trkpt lat="47.515286" lon="7.986787">
        <ele>469.916262</ele>
        <time>2021-11-14T20:41:10.284Z</time>
      </trkpt>
      <trkpt lat="47.516043" lon="7.987468">
        <ele>463.920725</ele>
        <time>2021-11-14T20:42:32.696Z</time>
      </trkpt>
      <trkpt lat="47.516345" lon="7.987828">
        <ele>461.296423</ele>
        <time>2021-11-14T20:43:06.911Z</time>
      </trkpt>
      <trkpt lat="47.516750" lon="7.989123">
        <ele>454.979183</ele>
        <time>2021-11-14T20:44:36.447Z</time>
      </trkpt>
      <trkpt lat="47.516898" lon="7.989617">
        <ele>452.622006</ele>
        <time>2021-11-14T20:45:10.485Z</time>
      </trkpt>
      <trkpt lat="47.517356" lon="7.990419">
        <ele>448.041006</ele>
        <time>2021-11-14T20:46:16.878Z</time>
      </trkpt>
      <trkpt lat="47.517519" lon="7.990545">
        <ele>447.587900</ele>
        <time>2021-11-14T20:46:34.323Z</time>
      </trkpt>
      <trkpt lat="47.517593" lon="7.990690">
        <ele>447.515300</ele>
        <time>2021-11-14T20:46:46.998Z</time>
      </trkpt>
      <trkpt lat="47.517593" lon="7.990870">
        <ele>447.443397</ele>
        <time>2021-11-14T20:46:59.781Z</time>
      </trkpt>
      <trkpt lat="47.517464" lon="7.991086">
        <ele>447.328216</ele>
        <time>2021-11-14T20:47:19.080Z</time>
      </trkpt>
      <trkpt lat="47.517341" lon="7.991184">
        <ele>447.245601</ele>
        <time>2021-11-14T20:47:35.257Z</time>
      </trkpt>
      <trkpt lat="47.517258" lon="7.991214">
        <ele>447.195067</ele>
        <time>2021-11-14T20:47:43.264Z</time>
      </trkpt>
      <trkpt lat="47.517167" lon="7.991185">
        <ele>447.140010</ele>
        <time>2021-11-14T20:47:53.331Z</time>
      </trkpt>
      <trkpt lat="47.516749" lon="7.990707">
        <ele>446.827622</ele>
        <time>2021-11-14T20:48:52.925Z</time>
      </trkpt>
      <trkpt lat="47.516589" lon="7.990525">
        <ele>446.708283</ele>
        <time>2021-11-14T20:49:17.882Z</time>
      </trkpt>
      <trkpt lat="47.516178" lon="7.990219">
        <ele>447.745397</ele>
        <time>2021-11-14T20:50:16.664Z</time>
      </trkpt>
      <trkpt lat="47.516017" lon="7.990191">
        <ele>448.424857</ele>
        <time>2021-11-14T20:50:37.951Z</time>
      </trkpt>
      <trkpt lat="47.515875" lon="7.990250">
        <ele>449.043030</ele>
        <time>2021-11-14T20:50:57.848Z</time>
      </trkpt>
      <trkpt lat="47.515515" lon="7.990682">
        <ele>450.985290</ele>
        <time>2021-11-14T20:52:00.117Z</time>
      </trkpt>
      <trkpt lat="47.515449" lon="7.990902">
        <ele>451.666753</ele>
        <time>2021-11-14T20:52:23.736Z</time>
      </trkpt>
      <trkpt lat="47.515400" lon="7.991097">
        <ele>452.255739</ele>
        <time>2021-11-14T20:52:40.938Z</time>
      </trkpt>
      <trkpt lat="47.515370" lon="7.991325">
        <ele>452.913310</ele>
        <time>2021-11-14T20:53:02.194Z</time>
      </trkpt>
      <trkpt lat="47.515415" lon="7.992607">
        <ele>452.277954</ele>
        <time>2021-11-14T20:54:43.451Z</time>
      </trkpt>
      <trkpt lat="47.515469" lon="7.993541">
        <ele>450.231282</ele>
        <time>2021-11-14T20:55:46.496Z</time>
      </trkpt>
      <trkpt lat="47.515448" lon="7.993885">
        <ele>449.477162</ele>
        <time>2021-11-14T20:56:08.156Z</time>
      </trkpt>
      <trkpt lat="47.515413" lon="7.994077">
        <ele>449.042965</ele>
        <time>2021-11-14T20:56:20.081Z</time>
      </trkpt>
      <trkpt lat="47.515316" lon="7.994599">
        <ele>447.096615</ele>
        <time>2021-11-14T20:56:53.462Z</time>
      </trkpt>
      <trkpt lat="47.515206" lon="7.995085">
        <ele>444.124753</ele>
        <time>2021-11-14T20:57:24.816Z</time>
      </trkpt>
      <trkpt lat="47.514973" lon="7.996922">
        <ele>433.287548</ele>
        <time>2021-11-14T20:59:17.505Z</time>
      </trkpt>
      <trkpt lat="47.514781" lon="7.998695">
        <ele>425.679805</ele>
        <time>2021-11-14T21:01:10.316Z</time>
      </trkpt>
      <trkpt lat="47.514738" lon="7.999392">
        <ele>422.758784</ele>
        <time>2021-11-14T21:01:56.249Z</time>
      </trkpt>
      <trkpt lat="47.514683" lon="8.000037">
        <ele>420.441572</ele>
        <time>2021-11-14T21:02:39.551Z</time>
      </trkpt>
      <trkpt lat="47.514720" lon="8.000490">
        <ele>418.975198</ele>
        <time>2021-11-14T21:02:44.068Z</time>
      </trkpt>
      <trkpt lat="47.514816" lon="8.000810">
        <ele>417.849960</ele>
        <time>2021-11-14T21:02:47.540Z</time>
      </trkpt>
      <trkpt lat="47.515153" lon="8.001723">
        <ele>414.506373</ele>
        <time>2021-11-14T21:02:57.471Z</time>
      </trkpt>
      <trkpt lat="47.515473" lon="8.002693">
        <ele>408.547193</ele>
        <time>2021-11-14T21:03:06.653Z</time>
      </trkpt>
      <trkpt lat="47.515838" lon="8.003776">
        <ele>400.199076</ele>
        <time>2021-11-14T21:03:16.487Z</time>
      </trkpt>
      <trkpt lat="47.515877" lon="8.004029">
        <ele>398.409201</ele>
        <time>2021-11-14T21:03:18.661Z</time>
      </trkpt>
      <trkpt lat="47.515875" lon="8.004180">
        <ele>397.367519</ele>
        <time>2021-11-14T21:03:19.854Z</time>
      </trkpt>
      <trkpt lat="47.515875" lon="8.004180">
        <ele>397.367519</ele>
        <time>2021-11-14T21:03:19.887Z</time>
      </trkpt>
      <trkpt lat="47.515824" lon="8.004390">
        <ele>395.828305</ele>
        <time>2021-11-14T21:03:21.718Z</time>
      </trkpt>
      <trkpt lat="47.515631" lon="8.004843">
        <ele>392.028152</ele>
        <time>2021-11-14T21:03:26.028Z</time>
      </trkpt>
      <trkpt lat="47.515267" lon="8.005405">
        <ele>386.447278</ele>
        <time>2021-11-14T21:03:32.325Z</time>
      </trkpt>
      <trkpt lat="47.515015" lon="8.005732">
        <ele>382.891353</ele>
        <time>2021-11-14T21:03:36.335Z</time>
      </trkpt>
      <trkpt lat="47.513977" lon="8.006824">
        <ele>371.225134</ele>
        <time>2021-11-14T21:03:52.189Z</time>
      </trkpt>
      <trkpt lat="47.513859" lon="8.007069">
        <ele>369.693059</ele>
        <time>2021-11-14T21:03:54.744Z</time>
      </trkpt>
      <trkpt lat="47.513657" lon="8.007746">
        <ele>365.924779</ele>
        <time>2021-11-14T21:04:01.140Z</time>
      </trkpt>
      <trkpt lat="47.513440" lon="8.008376">
        <ele>362.324119</ele>
        <time>2021-11-14T21:04:07.246Z</time>
      </trkpt>
      <trkpt lat="47.513295" lon="8.008556">
        <ele>361.493999</ele>
        <time>2021-11-14T21:04:09.732Z</time>
      </trkpt>
      <trkpt lat="47.513067" lon="8.008790">
        <ele>360.363830</ele>
        <time>2021-11-14T21:04:13.375Z</time>
      </trkpt>
      <trkpt lat="47.513019" lon="8.009088">
        <ele>359.520874</ele>
        <time>2021-11-14T21:04:16.193Z</time>
      </trkpt>
      <trkpt lat="47.513008" lon="8.009559">
        <ele>358.224119</ele>
        <time>2021-11-14T21:04:20.759Z</time>
      </trkpt>
      <trkpt lat="47.513001" lon="8.010158">
        <ele>356.575693</ele>
        <time>2021-11-14T21:04:26.642Z</time>
      </trkpt>
      <trkpt lat="47.512828" lon="8.010284">
        <ele>355.790263</ele>
        <time>2021-11-14T21:04:29.588Z</time>
      </trkpt>
      <trkpt lat="47.512231" lon="8.010689">
        <ele>354.940922</ele>
        <time>2021-11-14T21:04:39.554Z</time>
      </trkpt>
      <trkpt lat="47.511819" lon="8.010960">
        <ele>355.017505</ele>
        <time>2021-11-14T21:04:48.429Z</time>
      </trkpt>
      <trkpt lat="47.511743" lon="8.011016">
        <ele>355.031926</ele>
        <time>2021-11-14T21:04:50.484Z</time>
      </trkpt>
      <trkpt lat="47.511725" lon="8.011067">
        <ele>355.038528</ele>
        <time>2021-11-14T21:04:50.965Z</time>
      </trkpt>
      <trkpt lat="47.511369" lon="8.012112">
        <ele>355.172817</ele>
        <time>2021-11-14T21:05:08.662Z</time>
      </trkpt>
      <trkpt lat="47.511339" lon="8.012189">
        <ele>355.251681</ele>
        <time>2021-11-14T21:05:10.071Z</time>
      </trkpt>
      <trkpt lat="47.511240" lon="8.012453">
        <ele>355.532977</ele>
        <time>2021-11-14T21:05:15.361Z</time>
      </trkpt>
      <trkpt lat="47.511153" lon="8.012630">
        <ele>355.736903</ele>
        <time>2021-11-14T21:05:18.208Z</time>
      </trkpt>
      <trkpt lat="47.511060" lon="8.012793">
        <ele>355.935674</ele>
        <time>2021-11-14T21:05:22.050Z</time>
      </trkpt>
      <trkpt lat="47.510610" lon="8.013245">
        <ele>356.685672</ele>
        <time>2021-11-14T21:05:33.300Z</time>
      </trkpt>
      <trkpt lat="47.510195" lon="8.013657">
        <ele>357.374816</ele>
        <time>2021-11-14T21:05:43.469Z</time>
      </trkpt>
      <trkpt lat="47.510139" lon="8.013722">
        <ele>357.472958</ele>
        <time>2021-11-14T21:05:44.939Z</time>
      </trkpt>
      <trkpt lat="47.510028" lon="8.013857">
        <ele>357.634283</ele>
        <time>2021-11-14T21:05:46.884Z</time>
      </trkpt>
      <trkpt lat="47.509928" lon="8.014411">
        <ele>357.013703</ele>
        <time>2021-11-14T21:05:52.770Z</time>
      </trkpt>
      <trkpt lat="47.509891" lon="8.014585">
        <ele>356.816289</ele>
        <time>2021-11-14T21:05:54.484Z</time>
      </trkpt>
      <trkpt lat="47.509823" lon="8.014904">
        <ele>356.454282</ele>
        <time>2021-11-14T21:05:57.043Z</time>
      </trkpt>
      <trkpt lat="47.509799" lon="8.014989">
        <ele>356.354581</ele>
        <time>2021-11-14T21:05:57.826Z</time>
      </trkpt>
      <trkpt lat="47.509686" lon="8.015069">
        <ele>356.153901</ele>
        <time>2021-11-14T21:05:59.307Z</time>
      </trkpt>
      <trkpt lat="47.509612" lon="8.015079">
        <ele>356.034847</ele>
        <time>2021-11-14T21:06:00.065Z</time>
      </trkpt>
      <trkpt lat="47.509546" lon="8.015060">
        <ele>355.927123</ele>
        <time>2021-11-14T21:06:00.723Z</time>
      </trkpt>
      <trkpt lat="47.509444" lon="8.014982">
        <ele>355.743189</ele>
        <time>2021-11-14T21:06:02.073Z</time>
      </trkpt>
      <trkpt lat="47.509142" lon="8.014737">
        <ele>355.191449</ele>
        <time>2021-11-14T21:06:05.607Z</time>
      </trkpt>
      <trkpt lat="47.508749" lon="8.014436">
        <ele>354.160427</ele>
        <time>2021-11-14T21:06:10.179Z</time>
      </trkpt>
      <trkpt lat="47.508646" lon="8.014383">
        <ele>353.791546</ele>
        <time>2021-11-14T21:06:11.239Z</time>
      </trkpt>
      <trkpt lat="47.508562" lon="8.014341">
        <ele>353.491616</ele>
        <time>2021-11-14T21:06:12.092Z</time>
      </trkpt>
      <trkpt lat="47.508375" lon="8.014403">
        <ele>352.843352</ele>
        <time>2021-11-14T21:06:14.130Z</time>
      </trkpt>
      <trkpt lat="47.508333" lon="8.014419">
        <ele>352.696643</ele>
        <time>2021-11-14T21:06:14.543Z</time>
      </trkpt>
      <trkpt lat="47.508352" lon="8.014580">
        <ele>352.323176</ele>
        <time>2021-11-14T21:06:15.596Z</time>
      </trkpt>
      <trkpt lat="47.508337" lon="8.014821">
        <ele>351.770144</ele>
        <time>2021-11-14T21:06:17.407Z</time>
      </trkpt>
      <trkpt lat="47.508294" lon="8.015081">
        <ele>351.158479</ele>
        <time>2021-11-14T21:06:19.115Z</time>
      </trkpt>
      <trkpt lat="47.508285" lon="8.015139">
        <ele>351.022493</ele>
        <time>2021-11-14T21:06:19.515Z</time>
      </trkpt>
      <trkpt lat="47.508270" lon="8.015229">
        <ele>350.810670</ele>
        <time>2021-11-14T21:06:20.202Z</time>
      </trkpt>
      <trkpt lat="47.508213" lon="8.015549">
        <ele>350.054452</ele>
        <time>2021-11-14T21:06:22.405Z</time>
      </trkpt>
      <trkpt lat="47.508171" lon="8.015782">
        <ele>349.503400</ele>
        <time>2021-11-14T21:06:24.091Z</time>
      </trkpt>
      <trkpt lat="47.508111" lon="8.016120">
        <ele>348.704822</ele>
        <time>2021-11-14T21:06:26.373Z</time>
      </trkpt>
      <trkpt lat="47.508068" lon="8.016380">
        <ele>348.261995</ele>
        <time>2021-11-14T21:06:28.341Z</time>
      </trkpt>
      <trkpt lat="47.508040" lon="8.016566">
        <ele>347.950189</ele>
        <time>2021-11-14T21:06:29.556Z</time>
      </trkpt>
      <trkpt lat="47.508035" lon="8.017016">
        <ele>347.213782</ele>
        <time>2021-11-14T21:06:32.717Z</time>
      </trkpt>
      <trkpt lat="47.508054" lon="8.017109">
        <ele>347.054804</ele>
        <time>2021-11-14T21:06:33.329Z</time>
      </trkpt>
      <trkpt lat="47.508074" lon="8.017213">
        <ele>346.877873</ele>
        <time>2021-11-14T21:06:34.076Z</time>
      </trkpt>
      <trkpt lat="47.508286" lon="8.018007">
        <ele>345.480892</ele>
        <time>2021-11-14T21:06:40.290Z</time>
      </trkpt>
      <trkpt lat="47.508346" lon="8.018180">
        <ele>345.162693</ele>
        <time>2021-11-14T21:06:41.627Z</time>
      </trkpt>
      <trkpt lat="47.508473" lon="8.018450">
        <ele>344.624354</ele>
        <time>2021-11-14T21:06:44.393Z</time>
      </trkpt>
      <trkpt lat="47.508490" lon="8.018479">
        <ele>344.561526</ele>
        <time>2021-11-14T21:06:44.653Z</time>
      </trkpt>
      <trkpt lat="47.508475" lon="8.018519">
        <ele>344.486668</ele>
        <time>2021-11-14T21:06:44.964Z</time>
      </trkpt>
      <trkpt lat="47.508493" lon="8.018648">
        <ele>344.350207</ele>
        <time>2021-11-14T21:06:45.986Z</time>
      </trkpt>
      <trkpt lat="47.508517" lon="8.018677">
        <ele>344.374440</ele>
        <time>2021-11-14T21:06:46.388Z</time>
      </trkpt>
      <trkpt lat="47.508505" lon="8.018716">
        <ele>344.397085</ele>
        <time>2021-11-14T21:06:46.841Z</time>
      </trkpt>
      <trkpt lat="47.508436" lon="8.018909">
        <ele>344.512468</ele>
        <time>2021-11-14T21:06:49.265Z</time>
      </trkpt>
      <trkpt lat="47.508403" lon="8.018982">
        <ele>344.558881</ele>
        <time>2021-11-14T21:06:49.915Z</time>
      </trkpt>
      <trkpt lat="47.508273" lon="8.019268">
        <ele>344.741031</ele>
        <time>2021-11-14T21:06:53.403Z</time>
      </trkpt>
      <trkpt lat="47.508117" lon="8.019584">
        <ele>344.947843</ele>
        <time>2021-11-14T21:06:57.950Z</time>
      </trkpt>
      <trkpt lat="47.508075" lon="8.019669">
        <ele>345.003491</ele>
        <time>2021-11-14T21:06:59.420Z</time>
      </trkpt>
      <trkpt lat="47.508029" lon="8.019761">
        <ele>345.063972</ele>
        <time>2021-11-14T21:07:00.971Z</time>
      </trkpt>
      <trkpt lat="47.507951" lon="8.019911">
        <ele>345.163997</ele>
        <time>2021-11-14T21:07:03.361Z</time>
      </trkpt>
      <trkpt lat="47.507863" lon="8.020075">
        <ele>345.274668</ele>
        <time>2021-11-14T21:07:06.245Z</time>
      </trkpt>
      <trkpt lat="47.507666" lon="8.020400">
        <ele>345.505403</ele>
        <time>2021-11-14T21:07:12.369Z</time>
      </trkpt>
      <trkpt lat="47.507609" lon="8.020484">
        <ele>345.568317</ele>
        <time>2021-11-14T21:07:14.198Z</time>
      </trkpt>
      <trkpt lat="47.507466" lon="8.020697">
        <ele>345.727000</ele>
        <time>2021-11-14T21:07:19.007Z</time>
      </trkpt>
      <trkpt lat="47.507213" lon="8.021061">
        <ele>346.600725</ele>
        <time>2021-11-14T21:07:27.785Z</time>
      </trkpt>
      <trkpt lat="47.507007" lon="8.021362">
        <ele>347.337688</ele>
        <time>2021-11-14T21:07:35.356Z</time>
      </trkpt>
      <trkpt lat="47.506949" lon="8.021459">
        <ele>347.560491</ele>
        <time>2021-11-14T21:07:37.621Z</time>
      </trkpt>
      <trkpt lat="47.506910" lon="8.021529">
        <ele>347.716553</ele>
        <time>2021-11-14T21:07:39.121Z</time>
      </trkpt>
      <trkpt lat="47.506867" lon="8.021604">
        <ele>347.885746</ele>
        <time>2021-11-14T21:07:40.976Z</time>
      </trkpt>
      <trkpt lat="47.506735" lon="8.021861">
        <ele>348.441030</ele>
        <time>2021-11-14T21:07:46.858Z</time>
      </trkpt>
      <trkpt lat="47.506678" lon="8.022015">
        <ele>348.743054</ele>
        <time>2021-11-14T21:07:49.888Z</time>
      </trkpt>
      <trkpt lat="47.506655" lon="8.022123">
        <ele>348.937819</ele>
        <time>2021-11-14T21:07:52.005Z</time>
      </trkpt>
      <trkpt lat="47.506621" lon="8.022234">
        <ele>349.147442</ele>
        <time>2021-11-14T21:07:54.082Z</time>
      </trkpt>
      <trkpt lat="47.506535" lon="8.022414">
        <ele>349.526641</ele>
        <time>2021-11-14T21:07:57.656Z</time>
      </trkpt>
      <trkpt lat="47.506468" lon="8.022553">
        <ele>349.820335</ele>
        <time>2021-11-14T21:08:00.636Z</time>
      </trkpt>
      <trkpt lat="47.506258" lon="8.022985">
        <ele>350.612100</ele>
        <time>2021-11-14T21:08:09.321Z</time>
      </trkpt>
      <trkpt lat="47.506232" lon="8.023038">
        <ele>350.691456</ele>
        <time>2021-11-14T21:08:10.363Z</time>
      </trkpt>
      <trkpt lat="47.506199" lon="8.023103">
        <ele>350.789966</ele>
        <time>2021-11-14T21:08:11.651Z</time>
      </trkpt>
      <trkpt lat="47.505883" lon="8.023827">
        <ele>351.834266</ele>
        <time>2021-11-14T21:08:25.049Z</time>
      </trkpt>
      <trkpt lat="47.505697" lon="8.024216">
        <ele>352.411662</ele>
        <time>2021-11-14T21:08:32.138Z</time>
      </trkpt>
      <trkpt lat="47.505612" lon="8.024383">
        <ele>352.664990</ele>
        <time>2021-11-14T21:08:35.253Z</time>
      </trkpt>
      <trkpt lat="47.505559" lon="8.024486">
        <ele>352.821857</ele>
        <time>2021-11-14T21:08:37.011Z</time>
      </trkpt>
      <trkpt lat="47.505192" lon="8.025207">
        <ele>353.689037</ele>
        <time>2021-11-14T21:08:48.906Z</time>
      </trkpt>
      <trkpt lat="47.504823" lon="8.026024">
        <ele>354.155111</ele>
        <time>2021-11-14T21:09:00.837Z</time>
      </trkpt>
      <trkpt lat="47.504760" lon="8.026163">
        <ele>354.234492</ele>
        <time>2021-11-14T21:09:02.823Z</time>
      </trkpt>
      <trkpt lat="47.504725" lon="8.026244">
        <ele>354.280092</ele>
        <time>2021-11-14T21:09:04.076Z</time>
      </trkpt>
      <trkpt lat="47.504704" lon="8.026294">
        <ele>354.308013</ele>
        <time>2021-11-14T21:09:04.726Z</time>
      </trkpt>
      <trkpt lat="47.504676" lon="8.026276">
        <ele>354.329443</ele>
        <time>2021-11-14T21:09:05.235Z</time>
      </trkpt>
      <trkpt lat="47.504602" lon="8.026299">
        <ele>354.382526</ele>
        <time>2021-11-14T21:09:06.479Z</time>
      </trkpt>
      <trkpt lat="47.504574" lon="8.026349">
        <ele>354.413326</ele>
        <time>2021-11-14T21:09:07.210Z</time>
      </trkpt>
      <trkpt lat="47.504566" lon="8.026393">
        <ele>354.434935</ele>
        <time>2021-11-14T21:09:07.765Z</time>
      </trkpt>
      <trkpt lat="47.504579" lon="8.026477">
        <ele>354.475804</ele>
        <time>2021-11-14T21:09:08.696Z</time>
      </trkpt>
      <trkpt lat="47.504614" lon="8.026525">
        <ele>354.509298</ele>
        <time>2021-11-14T21:09:09.474Z</time>
      </trkpt>
      <trkpt lat="47.504606" lon="8.026545">
        <ele>354.520321</ele>
        <time>2021-11-14T21:09:09.880Z</time>
      </trkpt>
      <trkpt lat="47.504221" lon="8.027444">
        <ele>354.993366</ele>
        <time>2021-11-14T21:09:21.413Z</time>
      </trkpt>
      <trkpt lat="47.504063" lon="8.027828">
        <ele>355.175697</ele>
        <time>2021-11-14T21:09:26.314Z</time>
      </trkpt>
      <trkpt lat="47.503672" lon="8.028775">
        <ele>355.625773</ele>
        <time>2021-11-14T21:09:39.234Z</time>
      </trkpt>
      <trkpt lat="47.503617" lon="8.028907">
        <ele>355.688666</ele>
        <time>2021-11-14T21:09:41.086Z</time>
      </trkpt>
      <trkpt lat="47.503408" lon="8.029412">
        <ele>355.962358</ele>
        <time>2021-11-14T21:09:48.384Z</time>
      </trkpt>
      <trkpt lat="47.503055" lon="8.030264">
        <ele>356.682894</ele>
        <time>2021-11-14T21:10:01.040Z</time>
      </trkpt>
      <trkpt lat="47.502589" lon="8.031477">
        <ele>357.688881</ele>
        <time>2021-11-14T21:10:19.199Z</time>
      </trkpt>
      <trkpt lat="47.502647" lon="8.031521">
        <ele>357.758431</ele>
        <time>2021-11-14T21:10:20.777Z</time>
      </trkpt>
      <trkpt lat="47.502609" lon="8.031626">
        <ele>357.851245</ele>
        <time>2021-11-14T21:10:22.441Z</time>
      </trkpt>
      <trkpt lat="47.502065" lon="8.033266">
        <ele>359.401847</ele>
        <time>2021-11-14T21:10:47.606Z</time>
      </trkpt>
      <trkpt lat="47.501954" lon="8.033629">
        <ele>359.740017</ele>
        <time>2021-11-14T21:10:53.004Z</time>
      </trkpt>
      <trkpt lat="47.501912" lon="8.033769">
        <ele>359.870025</ele>
        <time>2021-11-14T21:10:55.119Z</time>
      </trkpt>
      <trkpt lat="47.501899" lon="8.033875">
        <ele>359.961458</ele>
        <time>2021-11-14T21:10:56.340Z</time>
      </trkpt>
      <trkpt lat="47.501880" lon="8.033941">
        <ele>360.022347</ele>
        <time>2021-11-14T21:10:57.212Z</time>
      </trkpt>
      <trkpt lat="47.501838" lon="8.034051">
        <ele>360.080130</ele>
        <time>2021-11-14T21:10:59.021Z</time>
      </trkpt>
      <trkpt lat="47.501709" lon="8.034282">
        <ele>360.140410</ele>
        <time>2021-11-14T21:11:02.720Z</time>
      </trkpt>
      <trkpt lat="47.501613" lon="8.034680">
        <ele>360.225410</ele>
        <time>2021-11-14T21:11:08.135Z</time>
      </trkpt>
      <trkpt lat="47.501589" lon="8.034838">
        <ele>360.257983</ele>
        <time>2021-11-14T21:11:09.844Z</time>
      </trkpt>
      <trkpt lat="47.501468" lon="8.035629">
        <ele>360.421106</ele>
        <time>2021-11-14T21:11:19.360Z</time>
      </trkpt>
      <trkpt lat="47.501454" lon="8.035709">
        <ele>360.437728</ele>
        <time>2021-11-14T21:11:20.532Z</time>
      </trkpt>
      <trkpt lat="47.501437" lon="8.035841">
        <ele>360.464755</ele>
        <time>2021-11-14T21:11:22.240Z</time>
      </trkpt>
      <trkpt lat="47.501234" lon="8.038241">
        <ele>359.430608</ele>
        <time>2021-11-14T21:11:50.814Z</time>
      </trkpt>
      <trkpt lat="47.501231" lon="8.038279">
        <ele>359.404964</ele>
        <time>2021-11-14T21:11:51.146Z</time>
      </trkpt>
      <trkpt lat="47.501267" lon="8.038284">
        <ele>359.369088</ele>
        <time>2021-11-14T21:11:51.518Z</time>
      </trkpt>
      <trkpt lat="47.501525" lon="8.038322">
        <ele>359.111841</ele>
        <time>2021-11-14T21:11:54.855Z</time>
      </trkpt>
      <trkpt lat="47.501901" lon="8.038376">
        <ele>358.808247</ele>
        <time>2021-11-14T21:11:59.368Z</time>
      </trkpt>
      <trkpt lat="47.502069" lon="8.038565">
        <ele>358.788454</ele>
        <time>2021-11-14T21:12:01.839Z</time>
      </trkpt>
      <trkpt lat="47.502088" lon="8.038680">
        <ele>358.780953</ele>
        <time>2021-11-14T21:12:02.986Z</time>
      </trkpt>
      <trkpt lat="47.502099" lon="8.038844">
        <ele>358.770509</ele>
        <time>2021-11-14T21:12:04.213Z</time>
      </trkpt>
      <trkpt lat="47.502104" lon="8.038924">
        <ele>358.765419</ele>
        <time>2021-11-14T21:12:04.839Z</time>
      </trkpt>
      <trkpt lat="47.502162" lon="8.040946">
        <ele>358.776588</ele>
        <time>2021-11-14T21:12:26.766Z</time>
      </trkpt>
      <trkpt lat="47.502240" lon="8.041844">
        <ele>359.535553</ele>
        <time>2021-11-14T21:12:38.857Z</time>
      </trkpt>
      <trkpt lat="47.502261" lon="8.042085">
        <ele>359.739250</ele>
        <time>2021-11-14T21:12:42.168Z</time>
      </trkpt>
      <trkpt lat="47.502592" lon="8.044305">
        <ele>361.866383</ele>
        <time>2021-11-14T21:13:14.110Z</time>
      </trkpt>
      <trkpt lat="47.502959" lon="8.047023">
        <ele>364.844996</ele>
        <time>2021-11-14T21:13:54.304Z</time>
      </trkpt>
      <trkpt lat="47.503126" lon="8.048338">
        <ele>366.269485</ele>
        <time>2021-11-14T21:14:13.667Z</time>
      </trkpt>
      <trkpt lat="47.503303" lon="8.050012">
        <ele>367.735554</ele>
        <time>2021-11-14T21:14:36.311Z</time>
      </trkpt>
      <trkpt lat="47.503323" lon="8.050248">
        <ele>367.931105</ele>
        <time>2021-11-14T21:14:39.557Z</time>
      </trkpt>
      <trkpt lat="47.503363" lon="8.050738">
        <ele>368.336893</ele>
        <time>2021-11-14T21:14:45.932Z</time>
      </trkpt>
      <trkpt lat="47.503386" lon="8.051161">
        <ele>368.685791</ele>
        <time>2021-11-14T21:14:51.381Z</time>
      </trkpt>
      <trkpt lat="47.503397" lon="8.051365">
        <ele>368.857527</ele>
        <time>2021-11-14T21:14:54.177Z</time>
      </trkpt>
      <trkpt lat="47.503421" lon="8.051996">
        <ele>369.401275</ele>
        <time>2021-11-14T21:15:02.519Z</time>
      </trkpt>
      <trkpt lat="47.503428" lon="8.052181">
        <ele>369.560692</ele>
        <time>2021-11-14T21:15:04.917Z</time>
      </trkpt>
      <trkpt lat="47.503428" lon="8.052697">
        <ele>370.004638</ele>
        <time>2021-11-14T21:15:11.693Z</time>
      </trkpt>
      <trkpt lat="47.503431" lon="8.052821">
        <ele>370.111391</ele>
        <time>2021-11-14T21:15:13.312Z</time>
      </trkpt>
      <trkpt lat="47.503433" lon="8.053143">
        <ele>370.388440</ele>
        <time>2021-11-14T21:15:18.785Z</time>
      </trkpt>
      <trkpt lat="47.503429" lon="8.053339">
        <ele>370.557147</ele>
        <time>2021-11-14T21:15:22.222Z</time>
      </trkpt>
      <trkpt lat="47.503413" lon="8.053999">
        <ele>371.139840</ele>
        <time>2021-11-14T21:15:33.994Z</time>
      </trkpt>
      <trkpt lat="47.503340" lon="8.055072">
        <ele>372.309728</ele>
        <time>2021-11-14T21:15:53.274Z</time>
      </trkpt>
      <trkpt lat="47.503298" lon="8.055555">
        <ele>372.838014</ele>
        <time>2021-11-14T21:16:01.804Z</time>
      </trkpt>
      <trkpt lat="47.503232" lon="8.056115">
        <ele>373.454684</ele>
        <time>2021-11-14T21:16:11.736Z</time>
      </trkpt>
      <trkpt lat="47.502927" lon="8.057944">
        <ele>375.721142</ele>
        <time>2021-11-14T21:16:47.422Z</time>
      </trkpt>
      <trkpt lat="47.502836" lon="8.058343">
        <ele>376.244063</ele>
        <time>2021-11-14T21:16:55.173Z</time>
      </trkpt>
      <trkpt lat="47.502806" lon="8.058487">
        <ele>376.431181</ele>
        <time>2021-11-14T21:16:58.194Z</time>
      </trkpt>
      <trkpt lat="47.502690" lon="8.058955">
        <ele>377.050189</ele>
        <time>2021-11-14T21:17:07.195Z</time>
      </trkpt>
      <trkpt lat="47.502580" lon="8.059374">
        <ele>377.546157</ele>
        <time>2021-11-14T21:17:15.182Z</time>
      </trkpt>
      <trkpt lat="47.502534" lon="8.059520">
        <ele>377.710036</ele>
        <time>2021-11-14T21:17:18.553Z</time>
      </trkpt>
      <trkpt lat="47.502407" lon="8.059925">
        <ele>378.164248</ele>
        <time>2021-11-14T21:17:26.569Z</time>
      </trkpt>
      <trkpt lat="47.502229" lon="8.060464">
        <ele>378.774562</ele>
        <time>2021-11-14T21:17:37.786Z</time>
      </trkpt>
      <trkpt lat="47.502130" lon="8.060761">
        <ele>379.111467</ele>
        <time>2021-11-14T21:17:43.338Z</time>
      </trkpt>
      <trkpt lat="47.501960" lon="8.061164">
        <ele>379.594786</ele>
        <time>2021-11-14T21:17:51.552Z</time>
      </trkpt>
      <trkpt lat="47.501169" lon="8.063017">
        <ele>382.047617</ele>
        <time>2021-11-14T21:18:28.210Z</time>
      </trkpt>
      <trkpt lat="47.500653" lon="8.064026">
        <ele>384.035838</ele>
        <time>2021-11-14T21:18:54.443Z</time>
      </trkpt>
      <trkpt lat="47.500531" lon="8.064169">
        <ele>384.595181</ele>
        <time>2021-11-14T21:18:59.448Z</time>
      </trkpt>
      <trkpt lat="47.500414" lon="8.064350">
        <ele>385.203477</ele>
        <time>2021-11-14T21:19:05.579Z</time>
      </trkpt>
      <trkpt lat="47.500341" lon="8.064457">
        <ele>385.572740</ele>
        <time>2021-11-14T21:19:08.761Z</time>
      </trkpt>
      <trkpt lat="47.500095" lon="8.064612">
        <ele>386.533718</ele>
        <time>2021-11-14T21:19:18.323Z</time>
      </trkpt>
      <trkpt lat="47.500120" lon="8.064657">
        <ele>386.675192</ele>
        <time>2021-11-14T21:19:20.014Z</time>
      </trkpt>
      <trkpt lat="47.500182" lon="8.064834">
        <ele>387.159335</ele>
        <time>2021-11-14T21:19:24.907Z</time>
      </trkpt>
      <trkpt lat="47.500209" lon="8.064917">
        <ele>387.383029</ele>
        <time>2021-11-14T21:19:28.368Z</time>
      </trkpt>
      <trkpt lat="47.500343" lon="8.065218">
        <ele>388.258361</ele>
        <time>2021-11-14T21:19:36.485Z</time>
      </trkpt>
      <trkpt lat="47.500746" lon="8.065595">
        <ele>389.798603</ele>
        <time>2021-11-14T21:19:54.355Z</time>
      </trkpt>
      <trkpt lat="47.500757" lon="8.065687">
        <ele>389.946812</ele>
        <time>2021-11-14T21:19:55.928Z</time>
      </trkpt>
      <trkpt lat="47.500523" lon="8.066198">
        <ele>390.926093</ele>
        <time>2021-11-14T21:20:09.624Z</time>
      </trkpt>
      <trkpt lat="47.500485" lon="8.066332">
        <ele>391.156628</ele>
        <time>2021-11-14T21:20:13.419Z</time>
      </trkpt>
      <trkpt lat="47.500368" lon="8.066586">
        <ele>391.644302</ele>
        <time>2021-11-14T21:20:20.542Z</time>
      </trkpt>
      <trkpt lat="47.499930" lon="8.068012">
        <ele>393.695763</ele>
        <time>2021-11-14T21:20:46.999Z</time>
      </trkpt>
      <trkpt lat="47.499748" lon="8.068841">
        <ele>393.696791</ele>
        <time>2021-11-14T21:20:58.819Z</time>
      </trkpt>
      <trkpt lat="47.499620" lon="8.069496">
        <ele>393.697595</ele>
        <time>2021-11-14T21:21:07.320Z</time>
      </trkpt>
      <trkpt lat="47.499538" lon="8.069838">
        <ele>393.698023</ele>
        <time>2021-11-14T21:21:11.912Z</time>
      </trkpt>
      <trkpt lat="47.499461" lon="8.070758">
        <ele>393.891698</ele>
        <time>2021-11-14T21:21:23.788Z</time>
      </trkpt>
      <trkpt lat="47.499601" lon="8.071817">
        <ele>394.350101</ele>
        <time>2021-11-14T21:21:39.935Z</time>
      </trkpt>
      <trkpt lat="47.499631" lon="8.072434">
        <ele>394.612885</ele>
        <time>2021-11-14T21:21:50.237Z</time>
      </trkpt>
      <trkpt lat="47.499618" lon="8.072678">
        <ele>394.716860</ele>
        <time>2021-11-14T21:21:54.693Z</time>
      </trkpt>
      <trkpt lat="47.499580" lon="8.073053">
        <ele>394.941452</ele>
        <time>2021-11-14T21:22:00.746Z</time>
      </trkpt>
      <trkpt lat="47.499525" lon="8.073287">
        <ele>395.184811</ele>
        <time>2021-11-14T21:22:05.693Z</time>
      </trkpt>
      <trkpt lat="47.499275" lon="8.073955">
        <ele>395.934903</ele>
        <time>2021-11-14T21:22:18.471Z</time>
      </trkpt>
      <trkpt lat="47.499163" lon="8.074206">
        <ele>396.230370</ele>
        <time>2021-11-14T21:22:24.472Z</time>
      </trkpt>
      <trkpt lat="47.498910" lon="8.074849">
        <ele>396.961268</ele>
        <time>2021-11-14T21:22:37.359Z</time>
      </trkpt>
      <trkpt lat="47.498145" lon="8.076850">
        <ele>399.097974</ele>
        <time>2021-11-14T21:23:17.358Z</time>
      </trkpt>
      <trkpt lat="47.497682" lon="8.077743">
        <ele>400.038614</ele>
        <time>2021-11-14T21:23:37.326Z</time>
      </trkpt>
      <trkpt lat="47.497198" lon="8.078441">
        <ele>400.623695</ele>
        <time>2021-11-14T21:23:53.639Z</time>
      </trkpt>
      <trkpt lat="47.497125" lon="8.078508">
        <ele>400.698065</ele>
        <time>2021-11-14T21:23:56.049Z</time>
      </trkpt>
      <trkpt lat="47.497038" lon="8.078610">
        <ele>400.794159</ele>
        <time>2021-11-14T21:23:58.704Z</time>
      </trkpt>
      <trkpt lat="47.496793" lon="8.078891">
        <ele>401.062518</ele>
        <time>2021-11-14T21:24:05.771Z</time>
      </trkpt>
      <trkpt lat="47.496446" lon="8.079280">
        <ele>401.438446</ele>
        <time>2021-11-14T21:24:15.183Z</time>
      </trkpt>
      <trkpt lat="47.496380" lon="8.079285">
        <ele>401.464094</ele>
        <time>2021-11-14T21:24:16.012Z</time>
      </trkpt>
      <trkpt lat="47.496040" lon="8.079701">
        <ele>401.635294</ele>
        <time>2021-11-14T21:24:22.778Z</time>
      </trkpt>
      <trkpt lat="47.495859" lon="8.079943">
        <ele>401.729956</ele>
        <time>2021-11-14T21:24:26.848Z</time>
      </trkpt>
      <trkpt lat="47.495681" lon="8.080229">
        <ele>401.831917</ele>
        <time>2021-11-14T21:24:30.812Z</time>
      </trkpt>
      <trkpt lat="47.495562" lon="8.080466">
        <ele>401.909344</ele>
        <time>2021-11-14T21:24:33.866Z</time>
      </trkpt>
      <trkpt lat="47.495515" lon="8.080558">
        <ele>401.939587</ele>
        <time>2021-11-14T21:24:35.099Z</time>
      </trkpt>
      <trkpt lat="47.495384" lon="8.080873">
        <ele>402.036577</ele>
        <time>2021-11-14T21:24:39.146Z</time>
      </trkpt>
      <trkpt lat="47.495292" lon="8.081144">
        <ele>402.116103</ele>
        <time>2021-11-14T21:24:42.918Z</time>
      </trkpt>
      <trkpt lat="47.495281" lon="8.081177">
        <ele>402.125752</ele>
        <time>2021-11-14T21:24:43.437Z</time>
      </trkpt>
      <trkpt lat="47.495207" lon="8.081445">
        <ele>402.533403</ele>
        <time>2021-11-14T21:24:46.844Z</time>
      </trkpt>
      <trkpt lat="47.495162" lon="8.081632">
        <ele>402.847240</ele>
        <time>2021-11-14T21:24:49.551Z</time>
      </trkpt>
      <trkpt lat="47.495132" lon="8.081754">
        <ele>403.052498</ele>
        <time>2021-11-14T21:24:51.232Z</time>
      </trkpt>
      <trkpt lat="47.495088" lon="8.082021">
        <ele>403.486998</ele>
        <time>2021-11-14T21:24:54.863Z</time>
      </trkpt>
      <trkpt lat="47.495034" lon="8.082354">
        <ele>404.028420</ele>
        <time>2021-11-14T21:24:59.703Z</time>
      </trkpt>
      <trkpt lat="47.495018" lon="8.082502">
        <ele>404.265384</ele>
        <time>2021-11-14T21:25:02.377Z</time>
      </trkpt>
      <trkpt lat="47.494982" lon="8.082826">
        <ele>404.784507</ele>
        <time>2021-11-14T21:25:07.112Z</time>
      </trkpt>
      <trkpt lat="47.494963" lon="8.083009">
        <ele>405.077225</ele>
        <time>2021-11-14T21:25:10.581Z</time>
      </trkpt>
      <trkpt lat="47.494933" lon="8.083243">
        <ele>405.453780</ele>
        <time>2021-11-14T21:25:15.644Z</time>
      </trkpt>
      <trkpt lat="47.494898" lon="8.083514">
        <ele>405.889988</ele>
        <time>2021-11-14T21:25:21.162Z</time>
      </trkpt>
      <trkpt lat="47.494822" lon="8.084015">
        <ele>407.037961</ele>
        <time>2021-11-14T21:25:32.089Z</time>
      </trkpt>
      <trkpt lat="47.494924" lon="8.084065">
        <ele>407.525912</ele>
        <time>2021-11-14T21:25:35.429Z</time>
      </trkpt>
      <trkpt lat="47.495055" lon="8.084135">
        <ele>408.158400</ele>
        <time>2021-11-14T21:25:40.266Z</time>
      </trkpt>
      <trkpt lat="47.495106" lon="8.084168">
        <ele>408.411169</ele>
        <time>2021-11-14T21:25:41.694Z</time>
      </trkpt>
      <trkpt lat="47.495171" lon="8.084232">
        <ele>408.765702</ele>
        <time>2021-11-14T21:25:44.204Z</time>
      </trkpt>
      <trkpt lat="47.495445" lon="8.084551">
        <ele>410.348832</ele>
        <time>2021-11-14T21:25:56.611Z</time>
      </trkpt>
      <trkpt lat="47.495549" lon="8.084639">
        <ele>410.892855</ele>
        <time>2021-11-14T21:26:00.881Z</time>
      </trkpt>
      <trkpt lat="47.495636" lon="8.084745">
        <ele>411.404591</ele>
        <time>2021-11-14T21:26:05.828Z</time>
      </trkpt>
      <trkpt lat="47.496002" lon="8.085400">
        <ele>414.012559</ele>
        <time>2021-11-14T21:26:23.822Z</time>
      </trkpt>
      <trkpt lat="47.496274" lon="8.085642">
        <ele>415.251407</ele>
        <time>2021-11-14T21:26:33.746Z</time>
      </trkpt>
      <trkpt lat="47.496373" lon="8.085787">
        <ele>415.747924</ele>
        <time>2021-11-14T21:26:38.888Z</time>
      </trkpt>
      <trkpt lat="47.496422" lon="8.086009">
        <ele>416.310440</ele>
        <time>2021-11-14T21:26:42.716Z</time>
      </trkpt>
      <trkpt lat="47.496519" lon="8.086234">
        <ele>416.953297</ele>
        <time>2021-11-14T21:26:48.292Z</time>
      </trkpt>
      <trkpt lat="47.496576" lon="8.086291">
        <ele>417.198528</ele>
        <time>2021-11-14T21:26:51.413Z</time>
      </trkpt>
      <trkpt lat="47.496752" lon="8.086468">
        <ele>417.957085</ele>
        <time>2021-11-14T21:26:56.441Z</time>
      </trkpt>
      <trkpt lat="47.496950" lon="8.086653">
        <ele>418.791815</ele>
        <time>2021-11-14T21:27:03.248Z</time>
      </trkpt>
      <trkpt lat="47.497376" lon="8.086991">
        <ele>420.514909</ele>
        <time>2021-11-14T21:27:15.979Z</time>
      </trkpt>
      <trkpt lat="47.497737" lon="8.087270">
        <ele>422.184959</ele>
        <time>2021-11-14T21:27:26.576Z</time>
      </trkpt>
      <trkpt lat="47.497928" lon="8.087452">
        <ele>423.164331</ele>
        <time>2021-11-14T21:27:34.034Z</time>
      </trkpt>
      <trkpt lat="47.498188" lon="8.087851">
        <ele>424.779058</ele>
        <time>2021-11-14T21:27:46.007Z</time>
      </trkpt>
      <trkpt lat="47.498481" lon="8.088558">
        <ele>427.195009</ele>
        <time>2021-11-14T21:28:04.999Z</time>
      </trkpt>
      <trkpt lat="47.498666" lon="8.088885">
        <ele>428.437357</ele>
        <time>2021-11-14T21:28:14.981Z</time>
      </trkpt>
      <trkpt lat="47.498851" lon="8.089152">
        <ele>429.540240</ele>
        <time>2021-11-14T21:28:25.199Z</time>
      </trkpt>
      <trkpt lat="47.498994" lon="8.089359">
        <ele>430.391590</ele>
        <time>2021-11-14T21:28:32.169Z</time>
      </trkpt>
      <trkpt lat="47.500332" lon="8.091539">
        <ele>437.725749</ele>
        <time>2021-11-14T21:29:32.988Z</time>
      </trkpt>
      <trkpt lat="47.500507" lon="8.091877">
        <ele>438.399965</ele>
        <time>2021-11-14T21:29:39.998Z</time>
      </trkpt>
      <trkpt lat="47.500685" lon="8.092227">
        <ele>439.093562</ele>
        <time>2021-11-14T21:29:46.870Z</time>
      </trkpt>
      <trkpt lat="47.501149" lon="8.093186">
        <ele>440.641546</ele>
        <time>2021-11-14T21:30:01.536Z</time>
      </trkpt>
      <trkpt lat="47.501513" lon="8.093894">
        <ele>440.955046</ele>
        <time>2021-11-14T21:30:11.801Z</time>
      </trkpt>
      <trkpt lat="47.501590" lon="8.094043">
        <ele>441.021148</ele>
        <time>2021-11-14T21:30:13.293Z</time>
      </trkpt>
      <trkpt lat="47.502026" lon="8.094768">
        <ele>441.363165</ele>
        <time>2021-11-14T21:30:24.214Z</time>
      </trkpt>
      <trkpt lat="47.502110" lon="8.094873">
        <ele>441.420510</ele>
        <time>2021-11-14T21:30:25.544Z</time>
      </trkpt>
      <trkpt lat="47.502217" lon="8.094977">
        <ele>441.487274</ele>
        <time>2021-11-14T21:30:28.429Z</time>
      </trkpt>
      <trkpt lat="47.502282" lon="8.095019">
        <ele>441.643749</ele>
        <time>2021-11-14T21:30:30.028Z</time>
      </trkpt>
      <trkpt lat="47.502574" lon="8.095231">
        <ele>442.375344</ele>
        <time>2021-11-14T21:30:36.147Z</time>
      </trkpt>
      <trkpt lat="47.502910" lon="8.095439">
        <ele>443.194593</ele>
        <time>2021-11-14T21:30:43.025Z</time>
      </trkpt>
      <trkpt lat="47.503482" lon="8.095792">
        <ele>444.588624</ele>
        <time>2021-11-14T21:30:57.562Z</time>
      </trkpt>
      <trkpt lat="47.503767" lon="8.095971">
        <ele>445.285038</ele>
        <time>2021-11-14T21:31:07.086Z</time>
      </trkpt>
      <trkpt lat="47.504630" lon="8.096527">
        <ele>448.962389</ele>
        <time>2021-11-14T21:31:38.725Z</time>
      </trkpt>
      <trkpt lat="47.504815" lon="8.096672">
        <ele>449.826549</ele>
        <time>2021-11-14T21:31:45.755Z</time>
      </trkpt>
      <trkpt lat="47.504977" lon="8.096829">
        <ele>450.625888</ele>
        <time>2021-11-14T21:31:52.654Z</time>
      </trkpt>
      <trkpt lat="47.505090" lon="8.096968">
        <ele>451.232408</ele>
        <time>2021-11-14T21:31:57.067Z</time>
      </trkpt>
      <trkpt lat="47.505224" lon="8.097111">
        <ele>451.914342</ele>
        <time>2021-11-14T21:32:02.314Z</time>
      </trkpt>
      <trkpt lat="47.505520" lon="8.097456">
        <ele>453.224951</ele>
        <time>2021-11-14T21:32:12.659Z</time>
      </trkpt>
      <trkpt lat="47.505811" lon="8.097796">
        <ele>454.021637</ele>
        <time>2021-11-14T21:32:21.534Z</time>
      </trkpt>
      <trkpt lat="47.505855" lon="8.097849">
        <ele>454.143542</ele>
        <time>2021-11-14T21:32:22.816Z</time>
      </trkpt>
      <trkpt lat="47.506023" lon="8.098051">
        <ele>454.608665</ele>
        <time>2021-11-14T21:32:28.351Z</time>
      </trkpt>
      <trkpt lat="47.506383" lon="8.098483">
        <ele>455.604572</ele>
        <time>2021-11-14T21:32:39.273Z</time>
      </trkpt>
      <trkpt lat="47.506485" lon="8.098597">
        <ele>455.879230</ele>
        <time>2021-11-14T21:32:41.314Z</time>
      </trkpt>
      <trkpt lat="47.506767" lon="8.098876">
        <ele>456.608139</ele>
        <time>2021-11-14T21:32:48.751Z</time>
      </trkpt>
      <trkpt lat="47.506874" lon="8.098948">
        <ele>456.855941</ele>
        <time>2021-11-14T21:32:51.654Z</time>
      </trkpt>
      <trkpt lat="47.506976" lon="8.099024">
        <ele>457.068780</ele>
        <time>2021-11-14T21:32:53.812Z</time>
      </trkpt>
      <trkpt lat="47.507131" lon="8.099082">
        <ele>457.366769</ele>
        <time>2021-11-14T21:32:55.969Z</time>
      </trkpt>
      <trkpt lat="47.507198" lon="8.099101">
        <ele>457.493920</ele>
        <time>2021-11-14T21:32:57.763Z</time>
      </trkpt>
      <trkpt lat="47.507495" lon="8.099134">
        <ele>458.049052</ele>
        <time>2021-11-14T21:33:02.638Z</time>
      </trkpt>
      <trkpt lat="47.507666" lon="8.099135">
        <ele>458.367779</ele>
        <time>2021-11-14T21:33:06.573Z</time>
      </trkpt>
      <trkpt lat="47.507728" lon="8.099150">
        <ele>458.484873</ele>
        <time>2021-11-14T21:33:07.896Z</time>
      </trkpt>
      <trkpt lat="47.508035" lon="8.099268">
        <ele>459.076058</ele>
        <time>2021-11-14T21:33:14.070Z</time>
      </trkpt>
      <trkpt lat="47.508341" lon="8.099423">
        <ele>459.678870</ele>
        <time>2021-11-14T21:33:21.817Z</time>
      </trkpt>
      <trkpt lat="47.508401" lon="8.099452">
        <ele>459.796513</ele>
        <time>2021-11-14T21:33:23.475Z</time>
      </trkpt>
      <trkpt lat="47.508511" lon="8.099532">
        <ele>460.024945</ele>
        <time>2021-11-14T21:33:26.446Z</time>
      </trkpt>
      <trkpt lat="47.508596" lon="8.099602">
        <ele>460.231487</ele>
        <time>2021-11-14T21:33:29.878Z</time>
      </trkpt>
      <trkpt lat="47.508688" lon="8.099702">
        <ele>460.628760</ele>
        <time>2021-11-14T21:33:33.857Z</time>
      </trkpt>
      <trkpt lat="47.509176" lon="8.100345">
        <ele>462.902690</ele>
        <time>2021-11-14T21:33:53.072Z</time>
      </trkpt>
      <trkpt lat="47.509343" lon="8.100494">
        <ele>463.581376</ele>
        <time>2021-11-14T21:33:58.574Z</time>
      </trkpt>
      <trkpt lat="47.509412" lon="8.100549">
        <ele>463.854146</ele>
        <time>2021-11-14T21:34:00.699Z</time>
      </trkpt>
      <trkpt lat="47.509622" lon="8.100692">
        <ele>464.658717</ele>
        <time>2021-11-14T21:34:07.279Z</time>
      </trkpt>
      <trkpt lat="47.509638" lon="8.100703">
        <ele>464.720121</ele>
        <time>2021-11-14T21:34:07.763Z</time>
      </trkpt>
      <trkpt lat="47.509944" lon="8.100887">
        <ele>465.869728</ele>
        <time>2021-11-14T21:34:17.275Z</time>
      </trkpt>
      <trkpt lat="47.510731" lon="8.101349">
        <ele>469.439103</ele>
        <time>2021-11-14T21:34:42.233Z</time>
      </trkpt>
      <trkpt lat="47.511350" lon="8.101444">
        <ele>472.172102</ele>
        <time>2021-11-14T21:35:00.736Z</time>
      </trkpt>
      <trkpt lat="47.511784" lon="8.101451">
        <ele>474.078192</ele>
        <time>2021-11-14T21:35:13.994Z</time>
      </trkpt>
      <trkpt lat="47.512294" lon="8.101446">
        <ele>478.757256</ele>
        <time>2021-11-14T21:35:38.545Z</time>
      </trkpt>
      <trkpt lat="47.513097" lon="8.101440">
        <ele>486.625643</ele>
        <time>2021-11-14T21:36:20.292Z</time>
      </trkpt>
      <trkpt lat="47.513213" lon="8.101454">
        <ele>487.766052</ele>
        <time>2021-11-14T21:36:26.618Z</time>
      </trkpt>
      <trkpt lat="47.513274" lon="8.101477">
        <ele>488.382845</ele>
        <time>2021-11-14T21:36:33.362Z</time>
      </trkpt>
      <trkpt lat="47.513402" lon="8.101592">
        <ele>489.849928</ele>
        <time>2021-11-14T21:36:40.471Z</time>
      </trkpt>
      <trkpt lat="47.514173" lon="8.102716">
        <ele>503.477957</ele>
        <time>2021-11-14T21:37:57.695Z</time>
      </trkpt>
      <trkpt lat="47.514667" lon="8.103702">
        <ele>514.497782</ele>
        <time>2021-11-14T21:38:54.608Z</time>
      </trkpt>
      <trkpt lat="47.514756" lon="8.103964">
        <ele>516.861609</ele>
        <time>2021-11-14T21:39:07.556Z</time>
      </trkpt>
      <trkpt lat="47.514931" lon="8.104527">
        <ele>521.243310</ele>
        <time>2021-11-14T21:39:33.604Z</time>
      </trkpt>
      <trkpt lat="47.515233" lon="8.105459">
        <ele>528.551602</ele>
        <time>2021-11-14T21:40:14.052Z</time>
      </trkpt>
      <trkpt lat="47.515271" lon="8.105582">
        <ele>529.507861</ele>
        <time>2021-11-14T21:40:19.339Z</time>
      </trkpt>
      <trkpt lat="47.515524" lon="8.106413">
        <ele>535.588709</ele>
        <time>2021-11-14T21:40:49.056Z</time>
      </trkpt>
      <trkpt lat="47.516180" lon="8.108478">
        <ele>547.063705</ele>
        <time>2021-11-14T21:41:56.904Z</time>
      </trkpt>
      <trkpt lat="47.516517" lon="8.109548">
        <ele>552.151793</ele>
        <time>2021-11-14T21:42:30.594Z</time>
      </trkpt>
      <trkpt lat="47.516730" lon="8.110266">
        <ele>555.414409</ele>
        <time>2021-11-14T21:42:52.824Z</time>
      </trkpt>
      <trkpt lat="47.516960" lon="8.110849">
        <ele>558.223390</ele>
        <time>2021-11-14T21:43:09.476Z</time>
      </trkpt>
      <trkpt lat="47.517126" lon="8.111099">
        <ele>559.309695</ele>
        <time>2021-11-14T21:43:17.625Z</time>
      </trkpt>
      <trkpt lat="47.517402" lon="8.111532">
        <ele>560.005316</ele>
        <time>2021-11-14T21:43:30.545Z</time>
      </trkpt>
      <trkpt lat="47.517585" lon="8.111839">
        <ele>560.483718</ele>
        <time>2021-11-14T21:43:37.438Z</time>
      </trkpt>
      <trkpt lat="47.517983" lon="8.112466">
        <ele>561.489030</ele>
        <time>2021-11-14T21:43:48.244Z</time>
      </trkpt>
      <trkpt lat="47.518295" lon="8.113056">
        <ele>562.187967</ele>
        <time>2021-11-14T21:43:54.942Z</time>
      </trkpt>
      <trkpt lat="47.518474" lon="8.113619">
        <ele>561.467512</ele>
        <time>2021-11-14T21:43:59.552Z</time>
      </trkpt>
      <trkpt lat="47.518892" lon="8.116720">
        <ele>557.929449</ele>
        <time>2021-11-14T21:44:23.094Z</time>
      </trkpt>
      <trkpt lat="47.518885" lon="8.117042">
        <ele>557.589564</ele>
        <time>2021-11-14T21:44:25.767Z</time>
      </trkpt>
      <trkpt lat="47.518747" lon="8.117680">
        <ele>556.882794</ele>
        <time>2021-11-14T21:44:30.975Z</time>
      </trkpt>
      <trkpt lat="47.518740" lon="8.117714">
        <ele>556.845294</ele>
        <time>2021-11-14T21:44:31.248Z</time>
      </trkpt>
      <trkpt lat="47.518622" lon="8.118005">
        <ele>556.487200</ele>
        <time>2021-11-14T21:44:33.791Z</time>
      </trkpt>
      <trkpt lat="47.518336" lon="8.118416">
        <ele>556.971809</ele>
        <time>2021-11-14T21:44:38.194Z</time>
      </trkpt>
      <trkpt lat="47.518325" lon="8.118433">
        <ele>557.000064</ele>
        <time>2021-11-14T21:44:38.631Z</time>
      </trkpt>
      <trkpt lat="47.518234" lon="8.118678">
        <ele>557.335631</ele>
        <time>2021-11-14T21:44:42.610Z</time>
      </trkpt>
      <trkpt lat="47.518226" lon="8.118790">
        <ele>557.470795</ele>
        <time>2021-11-14T21:44:43.859Z</time>
      </trkpt>
      <trkpt lat="47.518291" lon="8.118990">
        <ele>557.737168</ele>
        <time>2021-11-14T21:44:46.663Z</time>
      </trkpt>
      <trkpt lat="47.518372" lon="8.119045">
        <ele>557.895521</ele>
        <time>2021-11-14T21:44:49.270Z</time>
      </trkpt>
      <trkpt lat="47.518662" lon="8.118990">
        <ele>558.415071</ele>
        <time>2021-11-14T21:44:55.602Z</time>
      </trkpt>
      <trkpt lat="47.518865" lon="8.118958">
        <ele>558.777848</ele>
        <time>2021-11-14T21:45:00.540Z</time>
      </trkpt>
      <trkpt lat="47.519020" lon="8.118892">
        <ele>559.064451</ele>
        <time>2021-11-14T21:45:05.353Z</time>
      </trkpt>
      <trkpt lat="47.519187" lon="8.118830">
        <ele>559.370402</ele>
        <time>2021-11-14T21:45:10.346Z</time>
      </trkpt>
      <trkpt lat="47.519221" lon="8.118862">
        <ele>559.441993</ele>
        <time>2021-11-14T21:45:10.873Z</time>
      </trkpt>
      <trkpt lat="47.519180" lon="8.118910">
        <ele>559.534873</ele>
        <time>2021-11-14T21:45:12.343Z</time>
      </trkpt>
      <trkpt lat="47.519064" lon="8.119070">
        <ele>560.495073</ele>
        <time>2021-11-14T21:45:18.463Z</time>
      </trkpt>
      <trkpt lat="47.518824" lon="8.119333">
        <ele>562.539795</ele>
        <time>2021-11-14T21:45:30.000Z</time>
      </trkpt>
      <trkpt lat="47.517857" lon="8.119775">
        <ele>569.470401</ele>
        <time>2021-11-14T21:46:16.328Z</time>
      </trkpt>
      <trkpt lat="47.517621" lon="8.119982">
        <ele>571.348871</ele>
        <time>2021-11-14T21:46:29.807Z</time>
      </trkpt>
      <trkpt lat="47.517519" lon="8.120168">
        <ele>572.279998</ele>
        <time>2021-11-14T21:46:38.298Z</time>
      </trkpt>
      <trkpt lat="47.517437" lon="8.120369">
        <ele>573.023144</ele>
        <time>2021-11-14T21:46:44.052Z</time>
      </trkpt>
      <trkpt lat="47.517360" lon="8.120980">
        <ele>574.990141</ele>
        <time>2021-11-14T21:47:00.555Z</time>
      </trkpt>
      <trkpt lat="47.517380" lon="8.121126">
        <ele>575.461594</ele>
        <time>2021-11-14T21:47:05.480Z</time>
      </trkpt>
      <trkpt lat="47.517430" lon="8.121363">
        <ele>576.247366</ele>
        <time>2021-11-14T21:47:11.015Z</time>
      </trkpt>
      <trkpt lat="47.517595" lon="8.122024">
        <ele>578.477531</ele>
        <time>2021-11-14T21:47:26.876Z</time>
      </trkpt>
      <trkpt lat="47.517865" lon="8.123246">
        <ele>579.453400</ele>
        <time>2021-11-14T21:47:43.387Z</time>
      </trkpt>
      <trkpt lat="47.518043" lon="8.123755">
        <ele>578.742115</ele>
        <time>2021-11-14T21:47:47.841Z</time>
      </trkpt>
      <trkpt lat="47.518119" lon="8.123894">
        <ele>578.520186</ele>
        <time>2021-11-14T21:47:49.318Z</time>
      </trkpt>
      <trkpt lat="47.518224" lon="8.124020">
        <ele>578.271853</ele>
        <time>2021-11-14T21:47:50.643Z</time>
      </trkpt>
      <trkpt lat="47.518640" lon="8.124328">
        <ele>577.417255</ele>
        <time>2021-11-14T21:47:55.391Z</time>
      </trkpt>
      <trkpt lat="47.519000" lon="8.124585">
        <ele>575.385215</ele>
        <time>2021-11-14T21:47:59.210Z</time>
      </trkpt>
      <trkpt lat="47.519073" lon="8.124669">
        <ele>574.560878</ele>
        <time>2021-11-14T21:48:00.085Z</time>
      </trkpt>
      <trkpt lat="47.519641" lon="8.125947">
        <ele>565.348209</ele>
        <time>2021-11-14T21:48:09.223Z</time>
      </trkpt>
      <trkpt lat="47.519704" lon="8.126247">
        <ele>563.456399</ele>
        <time>2021-11-14T21:48:11.000Z</time>
      </trkpt>
      <trkpt lat="47.519714" lon="8.126761">
        <ele>559.984231</ele>
        <time>2021-11-14T21:48:13.910Z</time>
      </trkpt>
      <trkpt lat="47.519773" lon="8.127131">
        <ele>556.312369</ele>
        <time>2021-11-14T21:48:16.060Z</time>
      </trkpt>
      <trkpt lat="47.519948" lon="8.127803">
        <ele>549.356130</ele>
        <time>2021-11-14T21:48:20.081Z</time>
      </trkpt>
      <trkpt lat="47.520129" lon="8.128104">
        <ele>545.463535</ele>
        <time>2021-11-14T21:48:22.385Z</time>
      </trkpt>
      <trkpt lat="47.520230" lon="8.128176">
        <ele>543.860402</ele>
        <time>2021-11-14T21:48:23.296Z</time>
      </trkpt>
      <trkpt lat="47.520344" lon="8.128214">
        <ele>542.189225</ele>
        <time>2021-11-14T21:48:24.287Z</time>
      </trkpt>
      <trkpt lat="47.520467" lon="8.128201">
        <ele>540.425657</ele>
        <time>2021-11-14T21:48:25.360Z</time>
      </trkpt>
      <trkpt lat="47.520505" lon="8.128188">
        <ele>539.867882</ele>
        <time>2021-11-14T21:48:25.680Z</time>
      </trkpt>
      <trkpt lat="47.520650" lon="8.128120">
        <ele>537.692640</ele>
        <time>2021-11-14T21:48:26.929Z</time>
      </trkpt>
      <trkpt lat="47.520824" lon="8.128212">
        <ele>535.098839</ele>
        <time>2021-11-14T21:48:28.520Z</time>
      </trkpt>
      <trkpt lat="47.520851" lon="8.128363">
        <ele>533.941521</ele>
        <time>2021-11-14T21:48:29.378Z</time>
      </trkpt>
      <trkpt lat="47.520822" lon="8.128489">
        <ele>532.955253</ele>
        <time>2021-11-14T21:48:30.143Z</time>
      </trkpt>
      <trkpt lat="47.519957" lon="8.129855">
        <ele>519.081099</ele>
        <time>2021-11-14T21:48:40.905Z</time>
      </trkpt>
      <trkpt lat="47.519537" lon="8.130421">
        <ele>513.864225</ele>
        <time>2021-11-14T21:48:45.992Z</time>
      </trkpt>
      <trkpt lat="47.519115" lon="8.130853">
        <ele>510.368443</ele>
        <time>2021-11-14T21:48:50.590Z</time>
      </trkpt>
      <trkpt lat="47.519016" lon="8.130950">
        <ele>509.559547</ele>
        <time>2021-11-14T21:48:51.655Z</time>
      </trkpt>
      <trkpt lat="47.518939" lon="8.131029">
        <ele>508.921230</ele>
        <time>2021-11-14T21:48:52.527Z</time>
      </trkpt>
      <trkpt lat="47.518837" lon="8.131164">
        <ele>507.989026</ele>
        <time>2021-11-14T21:48:53.759Z</time>
      </trkpt>
      <trkpt lat="47.518696" lon="8.131473">
        <ele>506.272911</ele>
        <time>2021-11-14T21:48:56.077Z</time>
      </trkpt>
      <trkpt lat="47.518527" lon="8.131863">
        <ele>504.140521</ele>
        <time>2021-11-14T21:48:58.934Z</time>
      </trkpt>
      <trkpt lat="47.518221" lon="8.132565">
        <ele>501.034084</ele>
        <time>2021-11-14T21:49:04.065Z</time>
      </trkpt>
      <trkpt lat="47.517932" lon="8.133229">
        <ele>498.301531</ele>
        <time>2021-11-14T21:49:09.091Z</time>
      </trkpt>
      <trkpt lat="47.517646" lon="8.133904">
        <ele>495.545103</ele>
        <time>2021-11-14T21:49:14.257Z</time>
      </trkpt>
      <trkpt lat="47.517600" lon="8.134020">
        <ele>495.079778</ele>
        <time>2021-11-14T21:49:15.140Z</time>
      </trkpt>
      <trkpt lat="47.517506" lon="8.134288">
        <ele>494.039020</ele>
        <time>2021-11-14T21:49:17.091Z</time>
      </trkpt>
      <trkpt lat="47.517374" lon="8.134964">
        <ele>492.034984</ele>
        <time>2021-11-14T21:49:21.664Z</time>
      </trkpt>
      <trkpt lat="47.517380" lon="8.135284">
        <ele>491.123303</ele>
        <time>2021-11-14T21:49:23.744Z</time>
      </trkpt>
      <trkpt lat="47.517476" lon="8.135870">
        <ele>489.406034</ele>
        <time>2021-11-14T21:49:27.611Z</time>
      </trkpt>
      <trkpt lat="47.517541" lon="8.136103">
        <ele>488.688092</ele>
        <time>2021-11-14T21:49:29.257Z</time>
      </trkpt>
      <trkpt lat="47.517686" lon="8.136537">
        <ele>487.309135</ele>
        <time>2021-11-14T21:49:32.443Z</time>
      </trkpt>
      <trkpt lat="47.517845" lon="8.137000">
        <ele>486.282484</ele>
        <time>2021-11-14T21:49:35.961Z</time>
      </trkpt>
      <trkpt lat="47.517976" lon="8.137488">
        <ele>485.840257</ele>
        <time>2021-11-14T21:49:39.554Z</time>
      </trkpt>
      <trkpt lat="47.518030" lon="8.137790">
        <ele>485.577175</ele>
        <time>2021-11-14T21:49:41.696Z</time>
      </trkpt>
      <trkpt lat="47.518054" lon="8.137953">
        <ele>485.436686</ele>
        <time>2021-11-14T21:49:42.900Z</time>
      </trkpt>
      <trkpt lat="47.518104" lon="8.138332">
        <ele>485.111492</ele>
        <time>2021-11-14T21:49:45.864Z</time>
      </trkpt>
      <trkpt lat="47.518154" lon="8.138644">
        <ele>484.841456</ele>
        <time>2021-11-14T21:49:48.851Z</time>
      </trkpt>
      <trkpt lat="47.518444" lon="8.139763">
        <ele>485.684604</ele>
        <time>2021-11-14T21:50:04.789Z</time>
      </trkpt>
      <trkpt lat="47.518520" lon="8.140038">
        <ele>486.600153</ele>
        <time>2021-11-14T21:50:11.769Z</time>
      </trkpt>
      <trkpt lat="47.518621" lon="8.139978">
        <ele>487.096664</ele>
        <time>2021-11-14T21:50:14.460Z</time>
      </trkpt>
      <trkpt lat="47.518669" lon="8.139927">
        <ele>487.366209</ele>
        <time>2021-11-14T21:50:16.016Z</time>
      </trkpt>
      <trkpt lat="47.518769" lon="8.139831">
        <ele>487.909953</ele>
        <time>2021-11-14T21:50:20.788Z</time>
      </trkpt>
      <trkpt lat="47.519094" lon="8.139647">
        <ele>489.497441</ele>
        <time>2021-11-14T21:50:33.706Z</time>
      </trkpt>
      <trkpt lat="47.519420" lon="8.139752">
        <ele>491.019581</ele>
        <time>2021-11-14T21:50:46.440Z</time>
      </trkpt>
      <trkpt lat="47.519509" lon="8.139849">
        <ele>491.523774</ele>
        <time>2021-11-14T21:50:51.383Z</time>
      </trkpt>
      <trkpt lat="47.519606" lon="8.139968">
        <ele>492.098491</ele>
        <time>2021-11-14T21:50:55.666Z</time>
      </trkpt>
      <trkpt lat="47.519799" lon="8.140263">
        <ele>493.641484</ele>
        <time>2021-11-14T21:51:07.848Z</time>
      </trkpt>
      <trkpt lat="47.520010" lon="8.140561">
        <ele>495.369572</ele>
        <time>2021-11-14T21:51:20.197Z</time>
      </trkpt>
      <trkpt lat="47.520122" lon="8.140718">
        <ele>496.283595</ele>
        <time>2021-11-14T21:51:25.703Z</time>
      </trkpt>
      <trkpt lat="47.520231" lon="8.140864">
        <ele>497.154664</ele>
        <time>2021-11-14T21:51:31.197Z</time>
      </trkpt>
      <trkpt lat="47.520353" lon="8.141020">
        <ele>498.109970</ele>
        <time>2021-11-14T21:51:37.426Z</time>
      </trkpt>
      <trkpt lat="47.520494" lon="8.141123">
        <ele>499.041761</ele>
        <time>2021-11-14T21:51:43.196Z</time>
      </trkpt>
      <trkpt lat="47.520656" lon="8.141153">
        <ele>500.009334</ele>
        <time>2021-11-14T21:51:50.062Z</time>
      </trkpt>
      <trkpt lat="47.520728" lon="8.141141">
        <ele>500.438737</ele>
        <time>2021-11-14T21:51:52.599Z</time>
      </trkpt>
      <trkpt lat="47.520809" lon="8.141121">
        <ele>500.925413</ele>
        <time>2021-11-14T21:51:55.805Z</time>
      </trkpt>
      <trkpt lat="47.520979" lon="8.141091">
        <ele>501.940049</ele>
        <time>2021-11-14T21:52:01.923Z</time>
      </trkpt>
      <trkpt lat="47.521217" lon="8.141214">
        <ele>503.437243</ele>
        <time>2021-11-14T21:52:11.252Z</time>
      </trkpt>
      <trkpt lat="47.521323" lon="8.141385">
        <ele>504.375157</ele>
        <time>2021-11-14T21:52:16.670Z</time>
      </trkpt>
      <trkpt lat="47.521505" lon="8.142343">
        <ele>508.396383</ele>
        <time>2021-11-14T21:52:41.729Z</time>
      </trkpt>
      <trkpt lat="47.521571" lon="8.142474">
        <ele>509.056790</ele>
        <time>2021-11-14T21:52:45.641Z</time>
      </trkpt>
      <trkpt lat="47.522534" lon="8.143857">
        <ele>517.685274</ele>
        <time>2021-11-14T21:53:40.608Z</time>
      </trkpt>
      <trkpt lat="47.522611" lon="8.144805">
        <ele>522.263026</ele>
        <time>2021-11-14T21:54:10.447Z</time>
      </trkpt>
      <trkpt lat="47.522731" lon="8.145171">
        <ele>524.213618</ele>
        <time>2021-11-14T21:54:21.814Z</time>
      </trkpt>
      <trkpt lat="47.522791" lon="8.145287">
        <ele>524.914146</ele>
        <time>2021-11-14T21:54:27.087Z</time>
      </trkpt>
      <trkpt lat="47.522931" lon="8.145526">
        <ele>526.430994</ele>
        <time>2021-11-14T21:54:35.619Z</time>
      </trkpt>
      <trkpt lat="47.523143" lon="8.145922">
        <ele>528.259425</ele>
        <time>2021-11-14T21:54:50.171Z</time>
      </trkpt>
      <trkpt lat="47.523253" lon="8.146107">
        <ele>529.125745</ele>
        <time>2021-11-14T21:54:58.028Z</time>
      </trkpt>
      <trkpt lat="47.523819" lon="8.147090">
        <ele>533.665926</ele>
        <time>2021-11-14T21:55:28.259Z</time>
      </trkpt>
      <trkpt lat="47.523983" lon="8.147357">
        <ele>534.934427</ele>
        <time>2021-11-14T21:55:35.469Z</time>
      </trkpt>
      <trkpt lat="47.524101" lon="8.147621">
        <ele>536.028481</ele>
        <time>2021-11-14T21:55:41.491Z</time>
      </trkpt>
      <trkpt lat="47.524184" lon="8.147870">
        <ele>536.695732</ele>
        <time>2021-11-14T21:55:46.518Z</time>
      </trkpt>
      <trkpt lat="47.524236" lon="8.148019">
        <ele>537.098755</ele>
        <time>2021-11-14T21:55:49.906Z</time>
      </trkpt>
      <trkpt lat="47.524342" lon="8.148337">
        <ele>537.950906</ele>
        <time>2021-11-14T21:55:55.997Z</time>
      </trkpt>
      <trkpt lat="47.524426" lon="8.148623">
        <ele>538.700327</ele>
        <time>2021-11-14T21:56:02.481Z</time>
      </trkpt>
      <trkpt lat="47.524468" lon="8.148740">
        <ele>539.018722</ele>
        <time>2021-11-14T21:56:04.575Z</time>
      </trkpt>
      <trkpt lat="47.524547" lon="8.149022">
        <ele>539.752337</ele>
        <time>2021-11-14T21:56:11.279Z</time>
      </trkpt>
      <trkpt lat="47.524838" lon="8.149751">
        <ele>541.787217</ele>
        <time>2021-11-14T21:56:27.507Z</time>
      </trkpt>
      <trkpt lat="47.525250" lon="8.150500">
        <ele>544.377183</ele>
        <time>2021-11-14T21:56:46.777Z</time>
      </trkpt>
      <trkpt lat="47.525477" lon="8.150925">
        <ele>545.882623</ele>
        <time>2021-11-14T21:56:59.062Z</time>
      </trkpt>
      <trkpt lat="47.525631" lon="8.151281">
        <ele>547.057196</ele>
        <time>2021-11-14T21:57:07.760Z</time>
      </trkpt>
      <trkpt lat="47.525712" lon="8.151526">
        <ele>547.815052</ele>
        <time>2021-11-14T21:57:14.347Z</time>
      </trkpt>
      <trkpt lat="47.525781" lon="8.151732">
        <ele>548.453894</ele>
        <time>2021-11-14T21:57:19.016Z</time>
      </trkpt>
      <trkpt lat="47.525986" lon="8.152431">
        <ele>550.376167</ele>
        <time>2021-11-14T21:57:35.527Z</time>
      </trkpt>
      <trkpt lat="47.526015" lon="8.152528">
        <ele>550.597472</ele>
        <time>2021-11-14T21:57:38.202Z</time>
      </trkpt>
      <trkpt lat="47.526233" lon="8.152973">
        <ele>551.744391</ele>
        <time>2021-11-14T21:57:48.807Z</time>
      </trkpt>
      <trkpt lat="47.526376" lon="8.153143">
        <ele>552.310918</ele>
        <time>2021-11-14T21:57:53.028Z</time>
      </trkpt>
      <trkpt lat="47.526455" lon="8.153308">
        <ele>552.732881</ele>
        <time>2021-11-14T21:57:57.411Z</time>
      </trkpt>
      <trkpt lat="47.526505" lon="8.153493">
        <ele>553.148584</ele>
        <time>2021-11-14T21:58:03.749Z</time>
      </trkpt>
      <trkpt lat="47.526521" lon="8.153700">
        <ele>553.583237</ele>
        <time>2021-11-14T21:58:09.995Z</time>
      </trkpt>
      <trkpt lat="47.526555" lon="8.153923">
        <ele>554.060159</ele>
        <time>2021-11-14T21:58:17.799Z</time>
      </trkpt>
      <trkpt lat="47.526626" lon="8.154250">
        <ele>554.776726</ele>
        <time>2021-11-14T21:58:23.287Z</time>
      </trkpt>
      <trkpt lat="47.526984" lon="8.155261">
        <ele>555.943764</ele>
        <time>2021-11-14T21:58:42.668Z</time>
      </trkpt>
      <trkpt lat="47.527439" lon="8.157168">
        <ele>557.190144</ele>
        <time>2021-11-14T21:59:04.447Z</time>
      </trkpt>
      <trkpt lat="47.527713" lon="8.157956">
        <ele>557.231252</ele>
        <time>2021-11-14T21:59:12.933Z</time>
      </trkpt>
      <trkpt lat="47.527755" lon="8.158037">
        <ele>557.235989</ele>
        <time>2021-11-14T21:59:13.701Z</time>
      </trkpt>
      <trkpt lat="47.527831" lon="8.158278">
        <ele>557.248325</ele>
        <time>2021-11-14T21:59:16.899Z</time>
      </trkpt>
      <trkpt lat="47.527937" lon="8.159204">
        <ele>557.291885</ele>
        <time>2021-11-14T21:59:28.059Z</time>
      </trkpt>
      <trkpt lat="47.527947" lon="8.159230">
        <ele>557.293273</ele>
        <time>2021-11-14T21:59:28.236Z</time>
      </trkpt>
      <trkpt lat="47.527958" lon="8.159243">
        <ele>557.294240</ele>
        <time>2021-11-14T21:59:28.577Z</time>
      </trkpt>
      <trkpt lat="47.527983" lon="8.159252">
        <ele>557.296007</ele>
        <time>2021-11-14T21:59:29.919Z</time>
      </trkpt>
      <trkpt lat="47.528287" lon="8.159214">
        <ele>556.630122</ele>
        <time>2021-11-14T21:59:33.451Z</time>
      </trkpt>
      <trkpt lat="47.528358" lon="8.159233">
        <ele>556.389181</ele>
        <time>2021-11-14T21:59:35.163Z</time>
      </trkpt>
      <trkpt lat="47.528551" lon="8.159101">
        <ele>555.679256</ele>
        <time>2021-11-14T21:59:37.663Z</time>
      </trkpt>
      <trkpt lat="47.528696" lon="8.159009">
        <ele>555.152468</ele>
        <time>2021-11-14T21:59:39.569Z</time>
      </trkpt>
      <trkpt lat="47.528773" lon="8.158954">
        <ele>554.866985</ele>
        <time>2021-11-14T21:59:40.675Z</time>
      </trkpt>
      <trkpt lat="47.528873" lon="8.158872">
        <ele>554.485268</ele>
        <time>2021-11-14T21:59:41.790Z</time>
      </trkpt>
      <trkpt lat="47.528962" lon="8.158795">
        <ele>554.141059</ele>
        <time>2021-11-14T21:59:42.760Z</time>
      </trkpt>
      <trkpt lat="47.529013" lon="8.158747">
        <ele>553.939265</ele>
        <time>2021-11-14T21:59:44.052Z</time>
      </trkpt>
      <trkpt lat="47.529039" lon="8.158720">
        <ele>553.833221</ele>
        <time>2021-11-14T21:59:44.415Z</time>
      </trkpt>
      <trkpt lat="47.529091" lon="8.158660">
        <ele>553.613087</ele>
        <time>2021-11-14T21:59:45.057Z</time>
      </trkpt>
      <trkpt lat="47.529235" lon="8.158441">
        <ele>552.923813</ele>
        <time>2021-11-14T21:59:46.938Z</time>
      </trkpt>
      <trkpt lat="47.529315" lon="8.158315">
        <ele>552.533824</ele>
        <time>2021-11-14T21:59:48.435Z</time>
      </trkpt>
      <trkpt lat="47.529437" lon="8.158073">
        <ele>551.852836</ele>
        <time>2021-11-14T21:59:50.300Z</time>
      </trkpt>
      <trkpt lat="47.529679" lon="8.157567">
        <ele>548.837602</ele>
        <time>2021-11-14T21:59:54.061Z</time>
      </trkpt>
      <trkpt lat="47.529810" lon="8.157300">
        <ele>546.664083</ele>
        <time>2021-11-14T21:59:56.021Z</time>
      </trkpt>
      <trkpt lat="47.529856" lon="8.157192">
        <ele>545.823167</ele>
        <time>2021-11-14T21:59:56.742Z</time>
      </trkpt>
      <trkpt lat="47.530071" lon="8.156701">
        <ele>541.969269</ele>
        <time>2021-11-14T22:00:00.104Z</time>
      </trkpt>
      <trkpt lat="47.530199" lon="8.156282">
        <ele>538.940687</ele>
        <time>2021-11-14T22:00:02.758Z</time>
      </trkpt>
      <trkpt lat="47.530239" lon="8.155804">
        <ele>535.768765</ele>
        <time>2021-11-14T22:00:05.561Z</time>
      </trkpt>
      <trkpt lat="47.530234" lon="8.155720">
        <ele>535.213443</ele>
        <time>2021-11-14T22:00:06.032Z</time>
      </trkpt>
      <trkpt lat="47.530211" lon="8.155580">
        <ele>534.264583</ele>
        <time>2021-11-14T22:00:06.851Z</time>
      </trkpt>
      <trkpt lat="47.530058" lon="8.154979">
        <ele>530.586182</ele>
        <time>2021-11-14T22:00:10.580Z</time>
      </trkpt>
      <trkpt lat="47.529728" lon="8.154087">
        <ele>524.881083</ele>
        <time>2021-11-14T22:00:16.580Z</time>
      </trkpt>
      <trkpt lat="47.529587" lon="8.153510">
        <ele>521.439193</ele>
        <time>2021-11-14T22:00:20.288Z</time>
      </trkpt>
      <trkpt lat="47.529529" lon="8.153239">
        <ele>519.844589</ele>
        <time>2021-11-14T22:00:22.052Z</time>
      </trkpt>
      <trkpt lat="47.529405" lon="8.152475">
        <ele>516.653035</ele>
        <time>2021-11-14T22:00:26.941Z</time>
      </trkpt>
      <trkpt lat="47.529292" lon="8.151912">
        <ele>514.545390</ele>
        <time>2021-11-14T22:00:30.596Z</time>
      </trkpt>
      <trkpt lat="47.529120" lon="8.151400">
        <ele>512.493283</ele>
        <time>2021-11-14T22:00:34.150Z</time>
      </trkpt>
      <trkpt lat="47.529014" lon="8.151078">
        <ele>511.207798</ele>
        <time>2021-11-14T22:00:36.427Z</time>
      </trkpt>
      <trkpt lat="47.528964" lon="8.150888">
        <ele>510.476043</ele>
        <time>2021-11-14T22:00:37.735Z</time>
      </trkpt>
      <trkpt lat="47.528852" lon="8.149954">
        <ele>508.233454</ele>
        <time>2021-11-14T22:00:44.125Z</time>
      </trkpt>
      <trkpt lat="47.528834" lon="8.149583">
        <ele>507.609400</ele>
        <time>2021-11-14T22:00:46.706Z</time>
      </trkpt>
      <trkpt lat="47.528815" lon="8.149196">
        <ele>506.958393</ele>
        <time>2021-11-14T22:00:49.457Z</time>
      </trkpt>
      <trkpt lat="47.528722" lon="8.148418">
        <ele>505.632797</ele>
        <time>2021-11-14T22:00:55.314Z</time>
      </trkpt>
      <trkpt lat="47.528534" lon="8.147807">
        <ele>504.365594</ele>
        <time>2021-11-14T22:01:00.736Z</time>
      </trkpt>
      <trkpt lat="47.528477" lon="8.147642">
        <ele>503.897207</ele>
        <time>2021-11-14T22:01:02.335Z</time>
      </trkpt>
      <trkpt lat="47.528291" lon="8.147059">
        <ele>502.267679</ele>
        <time>2021-11-14T22:01:07.576Z</time>
      </trkpt>
      <trkpt lat="47.528185" lon="8.146699">
        <ele>501.275155</ele>
        <time>2021-11-14T22:01:10.812Z</time>
      </trkpt>
      <trkpt lat="47.528149" lon="8.146523">
        <ele>500.810410</ele>
        <time>2021-11-14T22:01:12.091Z</time>
      </trkpt>
      <trkpt lat="47.528029" lon="8.145634">
        <ele>498.519285</ele>
        <time>2021-11-14T22:01:17.857Z</time>
      </trkpt>
      <trkpt lat="47.528031" lon="8.145045">
        <ele>494.649652</ele>
        <time>2021-11-14T22:01:21.283Z</time>
      </trkpt>
      <trkpt lat="47.528102" lon="8.144463">
        <ele>489.671230</ele>
        <time>2021-11-14T22:01:24.693Z</time>
      </trkpt>
      <trkpt lat="47.528165" lon="8.144175">
        <ele>487.122887</ele>
        <time>2021-11-14T22:01:26.427Z</time>
      </trkpt>
      <trkpt lat="47.528319" lon="8.143633">
        <ele>482.173028</ele>
        <time>2021-11-14T22:01:29.761Z</time>
      </trkpt>
      <trkpt lat="47.528529" lon="8.143139">
        <ele>477.259239</ele>
        <time>2021-11-14T22:01:33.028Z</time>
      </trkpt>
      <trkpt lat="47.529056" lon="8.142203">
        <ele>465.271566</ele>
        <time>2021-11-14T22:01:39.803Z</time>
      </trkpt>
      <trkpt lat="47.529206" lon="8.141942">
        <ele>461.808419</ele>
        <time>2021-11-14T22:01:41.712Z</time>
      </trkpt>
      <trkpt lat="47.529330" lon="8.141745">
        <ele>459.087126</ele>
        <time>2021-11-14T22:01:43.215Z</time>
      </trkpt>
      <trkpt lat="47.529595" lon="8.141302">
        <ele>453.107014</ele>
        <time>2021-11-14T22:01:46.567Z</time>
      </trkpt>
      <trkpt lat="47.529775" lon="8.140977">
        <ele>448.859767</ele>
        <time>2021-11-14T22:01:48.969Z</time>
      </trkpt>
      <trkpt lat="47.530071" lon="8.140473">
        <ele>444.892735</ele>
        <time>2021-11-14T22:01:52.795Z</time>
      </trkpt>
      <trkpt lat="47.530742" lon="8.139379">
        <ele>436.251307</ele>
        <time>2021-11-14T22:02:01.513Z</time>
      </trkpt>
      <trkpt lat="47.531156" lon="8.138865">
        <ele>432.334403</ele>
        <time>2021-11-14T22:02:06.660Z</time>
      </trkpt>
      <trkpt lat="47.531239" lon="8.138781">
        <ele>431.887091</ele>
        <time>2021-11-14T22:02:07.570Z</time>
      </trkpt>
      <trkpt lat="47.531449" lon="8.138596">
        <ele>430.799857</ele>
        <time>2021-11-14T22:02:10.138Z</time>
      </trkpt>
      <trkpt lat="47.531896" lon="8.138317">
        <ele>428.641450</ele>
        <time>2021-11-14T22:02:14.778Z</time>
      </trkpt>
      <trkpt lat="47.532062" lon="8.138249">
        <ele>427.875074</ele>
        <time>2021-11-14T22:02:16.567Z</time>
      </trkpt>
      <trkpt lat="47.532251" lon="8.138188">
        <ele>427.014351</ele>
        <time>2021-11-14T22:02:18.368Z</time>
      </trkpt>
      <trkpt lat="47.532921" lon="8.138051">
        <ele>423.917790</ele>
        <time>2021-11-14T22:02:24.970Z</time>
      </trkpt>
      <trkpt lat="47.533257" lon="8.137990">
        <ele>422.295603</ele>
        <time>2021-11-14T22:02:28.256Z</time>
      </trkpt>
      <trkpt lat="47.533600" lon="8.137926">
        <ele>420.638930</ele>
        <time>2021-11-14T22:02:31.535Z</time>
      </trkpt>
      <trkpt lat="47.533889" lon="8.137879">
        <ele>419.245697</ele>
        <time>2021-11-14T22:02:34.268Z</time>
      </trkpt>
      <trkpt lat="47.534074" lon="8.137846">
        <ele>418.352757</ele>
        <time>2021-11-14T22:02:36.025Z</time>
      </trkpt>
      <trkpt lat="47.534107" lon="8.137840">
        <ele>418.193432</ele>
        <time>2021-11-14T22:02:36.356Z</time>
      </trkpt>
      <trkpt lat="47.534213" lon="8.137821">
        <ele>417.681766</ele>
        <time>2021-11-14T22:02:37.331Z</time>
      </trkpt>
      <trkpt lat="47.534814" lon="8.137722">
        <ele>414.781921</ele>
        <time>2021-11-14T22:02:42.961Z</time>
      </trkpt>
      <trkpt lat="47.535048" lon="8.137685">
        <ele>413.652868</ele>
        <time>2021-11-14T22:02:45.140Z</time>
      </trkpt>
      <trkpt lat="47.535119" lon="8.137674">
        <ele>413.310369</ele>
        <time>2021-11-14T22:02:45.813Z</time>
      </trkpt>
      <trkpt lat="47.535263" lon="8.137663">
        <ele>412.618574</ele>
        <time>2021-11-14T22:02:47.192Z</time>
      </trkpt>
      <trkpt lat="47.535322" lon="8.137658">
        <ele>412.335044</ele>
        <time>2021-11-14T22:02:47.744Z</time>
      </trkpt>
      <trkpt lat="47.535430" lon="8.137649">
        <ele>411.816067</ele>
        <time>2021-11-14T22:02:48.763Z</time>
      </trkpt>
      <trkpt lat="47.535502" lon="8.137652">
        <ele>411.470493</ele>
        <time>2021-11-14T22:02:49.453Z</time>
      </trkpt>
      <trkpt lat="47.535749" lon="8.137651">
        <ele>410.285443</ele>
        <time>2021-11-14T22:02:51.808Z</time>
      </trkpt>
      <trkpt lat="47.536065" lon="8.137655">
        <ele>408.769298</ele>
        <time>2021-11-14T22:02:54.905Z</time>
      </trkpt>
      <trkpt lat="47.536180" lon="8.137660">
        <ele>408.217319</ele>
        <time>2021-11-14T22:02:55.991Z</time>
      </trkpt>
      <trkpt lat="47.536373" lon="8.137663">
        <ele>407.468691</ele>
        <time>2021-11-14T22:02:57.857Z</time>
      </trkpt>
      <trkpt lat="47.537303" lon="8.137605">
        <ele>404.333131</ele>
        <time>2021-11-14T22:03:07.000Z</time>
      </trkpt>
      <trkpt lat="47.537367" lon="8.137590">
        <ele>404.114860</ele>
        <time>2021-11-14T22:03:07.649Z</time>
      </trkpt>
      <trkpt lat="47.537561" lon="8.137544">
        <ele>403.453035</ele>
        <time>2021-11-14T22:03:09.743Z</time>
      </trkpt>
      <trkpt lat="47.537646" lon="8.137515">
        <ele>403.159208</ele>
        <time>2021-11-14T22:03:10.606Z</time>
      </trkpt>
      <trkpt lat="47.537954" lon="8.137399">
        <ele>402.088672</ele>
        <time>2021-11-14T22:03:14.034Z</time>
      </trkpt>
      <trkpt lat="47.538245" lon="8.137269">
        <ele>401.298399</ele>
        <time>2021-11-14T22:03:17.353Z</time>
      </trkpt>
      <trkpt lat="47.538326" lon="8.137234">
        <ele>401.101176</ele>
        <time>2021-11-14T22:03:18.233Z</time>
      </trkpt>
      <trkpt lat="47.539177" lon="8.136833">
        <ele>399.013799</ele>
        <time>2021-11-14T22:03:27.903Z</time>
      </trkpt>
      <trkpt lat="47.539418" lon="8.136710">
        <ele>398.417979</ele>
        <time>2021-11-14T22:03:30.672Z</time>
      </trkpt>
      <trkpt lat="47.539754" lon="8.136528">
        <ele>397.569017</ele>
        <time>2021-11-14T22:03:34.450Z</time>
      </trkpt>
      <trkpt lat="47.540238" lon="8.136236">
        <ele>395.977153</ele>
        <time>2021-11-14T22:03:39.850Z</time>
      </trkpt>
      <trkpt lat="47.540569" lon="8.135993">
        <ele>394.851889</ele>
        <time>2021-11-14T22:03:43.660Z</time>
      </trkpt>
      <trkpt lat="47.540731" lon="8.135878">
        <ele>394.304697</ele>
        <time>2021-11-14T22:03:45.567Z</time>
      </trkpt>
      <trkpt lat="47.540869" lon="8.135758">
        <ele>393.817273</ele>
        <time>2021-11-14T22:03:47.091Z</time>
      </trkpt>
      <trkpt lat="47.541466" lon="8.135315">
        <ele>391.791152</ele>
        <time>2021-11-14T22:03:53.885Z</time>
      </trkpt>
      <trkpt lat="47.541516" lon="8.135303">
        <ele>391.640174</ele>
        <time>2021-11-14T22:03:54.343Z</time>
      </trkpt>
      <trkpt lat="47.541574" lon="8.135288">
        <ele>391.464679</ele>
        <time>2021-11-14T22:03:54.922Z</time>
      </trkpt>
      <trkpt lat="47.541750" lon="8.135267">
        <ele>390.938378</ele>
        <time>2021-11-14T22:03:56.740Z</time>
      </trkpt>
      <trkpt lat="47.541919" lon="8.135253">
        <ele>390.433854</ele>
        <time>2021-11-14T22:03:58.372Z</time>
      </trkpt>
      <trkpt lat="47.542003" lon="8.135244">
        <ele>390.182821</ele>
        <time>2021-11-14T22:03:59.256Z</time>
      </trkpt>
      <trkpt lat="47.542148" lon="8.135197">
        <ele>389.740395</ele>
        <time>2021-11-14T22:04:00.785Z</time>
      </trkpt>
      <trkpt lat="47.542698" lon="8.134836">
        <ele>387.947302</ele>
        <time>2021-11-14T22:04:07.007Z</time>
      </trkpt>
      <trkpt lat="47.542844" lon="8.134643">
        <ele>387.364048</ele>
        <time>2021-11-14T22:04:09.054Z</time>
      </trkpt>
      <trkpt lat="47.542894" lon="8.134525">
        <ele>387.083722</ele>
        <time>2021-11-14T22:04:09.995Z</time>
      </trkpt>
      <trkpt lat="47.542926" lon="8.134419">
        <ele>386.850085</ele>
        <time>2021-11-14T22:04:10.945Z</time>
      </trkpt>
      <trkpt lat="47.543005" lon="8.134187">
        <ele>386.431959</ele>
        <time>2021-11-14T22:04:12.834Z</time>
      </trkpt>
      <trkpt lat="47.543075" lon="8.134036">
        <ele>386.147924</ele>
        <time>2021-11-14T22:04:14.112Z</time>
      </trkpt>
      <trkpt lat="47.543149" lon="8.133918">
        <ele>385.898180</ele>
        <time>2021-11-14T22:04:15.357Z</time>
      </trkpt>
      <trkpt lat="47.543220" lon="8.133852">
        <ele>385.705639</ele>
        <time>2021-11-14T22:04:16.215Z</time>
      </trkpt>
      <trkpt lat="47.543321" lon="8.133795">
        <ele>385.457371</ele>
        <time>2021-11-14T22:04:17.315Z</time>
      </trkpt>
      <trkpt lat="47.543505" lon="8.133721">
        <ele>385.019414</ele>
        <time>2021-11-14T22:04:19.527Z</time>
      </trkpt>
      <trkpt lat="47.543619" lon="8.133664">
        <ele>384.743036</ele>
        <time>2021-11-14T22:04:20.812Z</time>
      </trkpt>
      <trkpt lat="47.543708" lon="8.133619">
        <ele>384.527019</ele>
        <time>2021-11-14T22:04:21.754Z</time>
      </trkpt>
      <trkpt lat="47.543845" lon="8.133524">
        <ele>384.179553</ele>
        <time>2021-11-14T22:04:23.624Z</time>
      </trkpt>
      <trkpt lat="47.544105" lon="8.133316">
        <ele>383.500798</ele>
        <time>2021-11-14T22:04:26.733Z</time>
      </trkpt>
      <trkpt lat="47.544222" lon="8.133222">
        <ele>383.195064</ele>
        <time>2021-11-14T22:04:28.194Z</time>
      </trkpt>
      <trkpt lat="47.544453" lon="8.133038">
        <ele>382.579881</ele>
        <time>2021-11-14T22:04:31.122Z</time>
      </trkpt>
      <trkpt lat="47.544650" lon="8.132899">
        <ele>381.971613</ele>
        <time>2021-11-14T22:04:33.353Z</time>
      </trkpt>
      <trkpt lat="47.544810" lon="8.132765">
        <ele>381.459255</ele>
        <time>2021-11-14T22:04:35.392Z</time>
      </trkpt>
      <trkpt lat="47.545059" lon="8.132589">
        <ele>380.690180</ele>
        <time>2021-11-14T22:04:38.284Z</time>
      </trkpt>
      <trkpt lat="47.545184" lon="8.132503">
        <ele>380.305985</ele>
        <time>2021-11-14T22:04:39.699Z</time>
      </trkpt>
      <trkpt lat="47.545331" lon="8.132442">
        <ele>379.880433</ele>
        <time>2021-11-14T22:04:41.259Z</time>
      </trkpt>
      <trkpt lat="47.545734" lon="8.132329">
        <ele>378.737077</ele>
        <time>2021-11-14T22:04:45.489Z</time>
      </trkpt>
      <trkpt lat="47.545962" lon="8.132304">
        <ele>378.099761</ele>
        <time>2021-11-14T22:04:47.799Z</time>
      </trkpt>
      <trkpt lat="47.546023" lon="8.132300">
        <ele>377.929549</ele>
        <time>2021-11-14T22:04:48.402Z</time>
      </trkpt>
      <trkpt lat="47.546602" lon="8.132235">
        <ele>376.221324</ele>
        <time>2021-11-14T22:04:54.289Z</time>
      </trkpt>
      <trkpt lat="47.546938" lon="8.132181">
        <ele>375.215617</ele>
        <time>2021-11-14T22:04:57.663Z</time>
      </trkpt>
      <trkpt lat="47.547951" lon="8.132055">
        <ele>372.238602</ele>
        <time>2021-11-14T22:05:08.150Z</time>
      </trkpt>
      <trkpt lat="47.548544" lon="8.131974">
        <ele>371.358085</ele>
        <time>2021-11-14T22:05:14.714Z</time>
      </trkpt>
      <trkpt lat="47.549752" lon="8.131786">
        <ele>369.581807</ele>
        <time>2021-11-14T22:05:29.363Z</time>
      </trkpt>
      <trkpt lat="47.550488" lon="8.131671">
        <ele>368.821670</ele>
        <time>2021-11-14T22:05:38.847Z</time>
      </trkpt>
      <trkpt lat="47.550614" lon="8.131652">
        <ele>368.691587</ele>
        <time>2021-11-14T22:05:40.535Z</time>
      </trkpt>
      <trkpt lat="47.550712" lon="8.131637">
        <ele>368.590396</ele>
        <time>2021-11-14T22:05:41.720Z</time>
      </trkpt>
      <trkpt lat="47.551029" lon="8.131586">
        <ele>368.262892</ele>
        <time>2021-11-14T22:05:45.633Z</time>
      </trkpt>
      <trkpt lat="47.551383" lon="8.131531">
        <ele>367.897305</ele>
        <time>2021-11-14T22:05:49.779Z</time>
      </trkpt>
      <trkpt lat="47.551749" lon="8.131479">
        <ele>367.353609</ele>
        <time>2021-11-14T22:05:54.050Z</time>
      </trkpt>
      <trkpt lat="47.551784" lon="8.131474">
        <ele>367.294385</ele>
        <time>2021-11-14T22:05:54.431Z</time>
      </trkpt>
      <trkpt lat="47.551873" lon="8.131469">
        <ele>367.144375</ele>
        <time>2021-11-14T22:05:55.409Z</time>
      </trkpt>
      <trkpt lat="47.552293" lon="8.131579">
        <ele>366.426003</ele>
        <time>2021-11-14T22:06:00.376Z</time>
      </trkpt>
      <trkpt lat="47.552326" lon="8.131597">
        <ele>366.366774</ele>
        <time>2021-11-14T22:06:00.713Z</time>
      </trkpt>
      <trkpt lat="47.552402" lon="8.131645">
        <ele>366.227623</ele>
        <time>2021-11-14T22:06:01.667Z</time>
      </trkpt>
      <trkpt lat="47.552493" lon="8.131722">
        <ele>366.051119</ele>
        <time>2021-11-14T22:06:02.857Z</time>
      </trkpt>
      <trkpt lat="47.552602" lon="8.131831">
        <ele>365.829630</ele>
        <time>2021-11-14T22:06:04.294Z</time>
      </trkpt>
      <trkpt lat="47.553483" lon="8.132756">
        <ele>363.955375</ele>
        <time>2021-11-14T22:06:16.267Z</time>
      </trkpt>
      <trkpt lat="47.553541" lon="8.132821">
        <ele>363.823671</ele>
        <time>2021-11-14T22:06:16.996Z</time>
      </trkpt>
      <trkpt lat="47.553641" lon="8.132928">
        <ele>363.600278</ele>
        <time>2021-11-14T22:06:18.499Z</time>
      </trkpt>
      <trkpt lat="47.553708" lon="8.133003">
        <ele>363.448200</ele>
        <time>2021-11-14T22:06:19.495Z</time>
      </trkpt>
      <trkpt lat="47.553759" lon="8.133056">
        <ele>363.335383</ele>
        <time>2021-11-14T22:06:20.187Z</time>
      </trkpt>
      <trkpt lat="47.553847" lon="8.133128">
        <ele>363.153325</ele>
        <time>2021-11-14T22:06:21.264Z</time>
      </trkpt>
      <trkpt lat="47.554071" lon="8.133239">
        <ele>362.725559</ele>
        <time>2021-11-14T22:06:24.057Z</time>
      </trkpt>
      <trkpt lat="47.554467" lon="8.133300">
        <ele>362.004510</ele>
        <time>2021-11-14T22:06:28.583Z</time>
      </trkpt>
      <trkpt lat="47.554619" lon="8.133314">
        <ele>361.728696</ele>
        <time>2021-11-14T22:06:30.211Z</time>
      </trkpt>
      <trkpt lat="47.554855" lon="8.133333">
        <ele>361.273657</ele>
        <time>2021-11-14T22:06:32.802Z</time>
      </trkpt>
      <trkpt lat="47.555303" lon="8.133375">
        <ele>360.346132</ele>
        <time>2021-11-14T22:06:37.750Z</time>
      </trkpt>
      <trkpt lat="47.555444" lon="8.133390">
        <ele>360.054042</ele>
        <time>2021-11-14T22:06:39.301Z</time>
      </trkpt>
      <trkpt lat="47.555690" lon="8.133401">
        <ele>359.545516</ele>
        <time>2021-11-14T22:06:42.029Z</time>
      </trkpt>
      <trkpt lat="47.555896" lon="8.133399">
        <ele>359.119862</ele>
        <time>2021-11-14T22:06:44.250Z</time>
      </trkpt>
      <trkpt lat="47.556093" lon="8.133383">
        <ele>358.712202</ele>
        <time>2021-11-14T22:06:46.411Z</time>
      </trkpt>
      <trkpt lat="47.556204" lon="8.133369">
        <ele>358.482020</ele>
        <time>2021-11-14T22:06:47.574Z</time>
      </trkpt>
      <trkpt lat="47.556513" lon="8.133340">
        <ele>357.842273</ele>
        <time>2021-11-14T22:06:50.955Z</time>
      </trkpt>
      <trkpt lat="47.557021" lon="8.133293">
        <ele>356.739109</ele>
        <time>2021-11-14T22:06:56.423Z</time>
      </trkpt>
      <trkpt lat="47.557237" lon="8.133273">
        <ele>356.268570</ele>
        <time>2021-11-14T22:06:58.714Z</time>
      </trkpt>
      <trkpt lat="47.557846" lon="8.133209">
        <ele>354.941168</ele>
        <time>2021-11-14T22:07:05.331Z</time>
      </trkpt>
      <trkpt lat="47.558277" lon="8.133165">
        <ele>354.001874</ele>
        <time>2021-11-14T22:07:09.946Z</time>
      </trkpt>
      <trkpt lat="47.558609" lon="8.133121">
        <ele>353.520728</ele>
        <time>2021-11-14T22:07:13.602Z</time>
      </trkpt>
      <trkpt lat="47.559286" lon="8.133042">
        <ele>352.655751</ele>
        <time>2021-11-14T22:07:21.570Z</time>
      </trkpt>
      <trkpt lat="47.559423" lon="8.133034">
        <ele>352.481117</ele>
        <time>2021-11-14T22:07:23.199Z</time>
      </trkpt>
      <trkpt lat="47.559553" lon="8.133012">
        <ele>352.314457</ele>
        <time>2021-11-14T22:07:27.650Z</time>
      </trkpt>
      <trkpt lat="47.559972" lon="8.132981">
        <ele>351.780104</ele>
        <time>2021-11-14T22:07:42.112Z</time>
      </trkpt>
      <trkpt lat="47.560046" lon="8.132973">
        <ele>351.685599</ele>
        <time>2021-11-14T22:07:44.538Z</time>
      </trkpt>
      <trkpt lat="47.560143" lon="8.132963">
        <ele>351.567384</ele>
        <time>2021-11-14T22:07:45.799Z</time>
      </trkpt>
      <trkpt lat="47.560243" lon="8.132948">
        <ele>351.496896</ele>
        <time>2021-11-14T22:07:47.035Z</time>
      </trkpt>
      <trkpt lat="47.560335" lon="8.132935">
        <ele>351.432083</ele>
        <time>2021-11-14T22:07:48.551Z</time>
      </trkpt>
      <trkpt lat="47.560777" lon="8.132722">
        <ele>351.106131</ele>
        <time>2021-11-14T22:07:54.423Z</time>
      </trkpt>
      <trkpt lat="47.560827" lon="8.132679">
        <ele>351.065589</ele>
        <time>2021-11-14T22:07:55.246Z</time>
      </trkpt>
      <trkpt lat="47.560889" lon="8.132614">
        <ele>351.012327</ele>
        <time>2021-11-14T22:07:56.172Z</time>
      </trkpt>
      <trkpt lat="47.561056" lon="8.132422">
        <ele>350.864097</ele>
        <time>2021-11-14T22:07:58.970Z</time>
      </trkpt>
      <trkpt lat="47.561185" lon="8.132211">
        <ele>350.729356</ele>
        <time>2021-11-14T22:08:01.455Z</time>
      </trkpt>
      <trkpt lat="47.561796" lon="8.130897">
        <ele>349.717600</ele>
        <time>2021-11-14T22:08:15.144Z</time>
      </trkpt>
      <trkpt lat="47.562119" lon="8.130197">
        <ele>349.012296</ele>
        <time>2021-11-14T22:08:21.719Z</time>
      </trkpt>
      <trkpt lat="47.562169" lon="8.130101">
        <ele>348.911434</ele>
        <time>2021-11-14T22:08:22.720Z</time>
      </trkpt>
      <trkpt lat="47.562200" lon="8.130042">
        <ele>348.849241</ele>
        <time>2021-11-14T22:08:23.348Z</time>
      </trkpt>
      <trkpt lat="47.562419" lon="8.129559">
        <ele>348.365260</ele>
        <time>2021-11-14T22:08:27.960Z</time>
      </trkpt>
      <trkpt lat="47.562839" lon="8.128684">
        <ele>347.367767</ele>
        <time>2021-11-14T22:08:36.242Z</time>
      </trkpt>
      <trkpt lat="47.562984" lon="8.128403">
        <ele>347.024311</ele>
        <time>2021-11-14T22:08:38.988Z</time>
      </trkpt>
      <trkpt lat="47.563096" lon="8.128178">
        <ele>346.752847</ele>
        <time>2021-11-14T22:08:41.180Z</time>
      </trkpt>
      <trkpt lat="47.563232" lon="8.127932">
        <ele>346.444078</ele>
        <time>2021-11-14T22:08:43.771Z</time>
      </trkpt>
      <trkpt lat="47.563398" lon="8.127697">
        <ele>346.113764</ele>
        <time>2021-11-14T22:08:46.522Z</time>
      </trkpt>
      <trkpt lat="47.563589" lon="8.127466">
        <ele>345.759042</ele>
        <time>2021-11-14T22:08:49.494Z</time>
      </trkpt>
      <trkpt lat="47.563627" lon="8.127420">
        <ele>345.688443</ele>
        <time>2021-11-14T22:08:50.036Z</time>
      </trkpt>
      <trkpt lat="47.563751" lon="8.127247">
        <ele>345.417557</ele>
        <time>2021-11-14T22:08:51.898Z</time>
      </trkpt>
      <trkpt lat="47.563829" lon="8.127101">
        <ele>345.164406</ele>
        <time>2021-11-14T22:08:53.375Z</time>
      </trkpt>
      <trkpt lat="47.563898" lon="8.126936">
        <ele>344.900522</ele>
        <time>2021-11-14T22:08:57.616Z</time>
      </trkpt>
      <trkpt lat="47.563932" lon="8.126822">
        <ele>344.731087</ele>
        <time>2021-11-14T22:09:00.107Z</time>
      </trkpt>
      <trkpt lat="47.563935" lon="8.126813">
        <ele>344.717441</ele>
        <time>2021-11-14T22:09:00.348Z</time>
      </trkpt>
      <trkpt lat="47.563988" lon="8.126616">
        <ele>344.429136</ele>
        <time>2021-11-14T22:09:05.080Z</time>
      </trkpt>
      <trkpt lat="47.564016" lon="8.126515">
        <ele>344.280700</ele>
        <time>2021-11-14T22:09:07.479Z</time>
      </trkpt>
      <trkpt lat="47.564050" lon="8.126343">
        <ele>344.037056</ele>
        <time>2021-11-14T22:09:11.171Z</time>
      </trkpt>
      <trkpt lat="47.564078" lon="8.126253">
        <ele>343.902332</ele>
        <time>2021-11-14T22:09:13.376Z</time>
      </trkpt>
      <trkpt lat="47.564142" lon="8.126069">
        <ele>343.620926</ele>
        <time>2021-11-14T22:09:17.784Z</time>
      </trkpt>
      <trkpt lat="47.564204" lon="8.125933">
        <ele>343.397807</ele>
        <time>2021-11-14T22:09:18.992Z</time>
      </trkpt>
      <trkpt lat="47.564281" lon="8.125780">
        <ele>343.138340</ele>
        <time>2021-11-14T22:09:20.373Z</time>
      </trkpt>
      <trkpt lat="47.564404" lon="8.125557">
        <ele>342.746803</ele>
        <time>2021-11-14T22:09:22.585Z</time>
      </trkpt>
      <trkpt lat="47.564445" lon="8.125480">
        <ele>342.613464</ele>
        <time>2021-11-14T22:09:23.218Z</time>
      </trkpt>
      <trkpt lat="47.564862" lon="8.124663">
        <ele>341.092102</ele>
        <time>2021-11-14T22:09:30.606Z</time>
      </trkpt>
      <trkpt lat="47.565033" lon="8.124341">
        <ele>340.426944</ele>
        <time>2021-11-14T22:09:33.545Z</time>
      </trkpt>
      <trkpt lat="47.565098" lon="8.124202">
        <ele>340.152423</ele>
        <time>2021-11-14T22:09:34.666Z</time>
      </trkpt>
      <trkpt lat="47.565268" lon="8.123888">
        <ele>339.498931</ele>
        <time>2021-11-14T22:09:37.445Z</time>
      </trkpt>
      <trkpt lat="47.565326" lon="8.123776">
        <ele>339.269756</ele>
        <time>2021-11-14T22:09:38.364Z</time>
      </trkpt>
      <trkpt lat="47.565434" lon="8.123568">
        <ele>338.843725</ele>
        <time>2021-11-14T22:09:40.266Z</time>
      </trkpt>
      <trkpt lat="47.565629" lon="8.123189">
        <ele>338.070066</ele>
        <time>2021-11-14T22:09:43.771Z</time>
      </trkpt>
      <trkpt lat="47.565954" lon="8.122541">
        <ele>337.208538</ele>
        <time>2021-11-14T22:09:50.111Z</time>
      </trkpt>
      <trkpt lat="47.566102" lon="8.122133">
        <ele>336.879809</ele>
        <time>2021-11-14T22:09:53.979Z</time>
      </trkpt>
      <trkpt lat="47.566119" lon="8.122027">
        <ele>336.802490</ele>
        <time>2021-11-14T22:09:54.824Z</time>
      </trkpt>
      <trkpt lat="47.566151" lon="8.121930">
        <ele>336.725866</ele>
        <time>2021-11-14T22:09:55.918Z</time>
      </trkpt>
      <trkpt lat="47.566318" lon="8.120964">
        <ele>336.018197</ele>
        <time>2021-11-14T22:10:04.122Z</time>
      </trkpt>
      <trkpt lat="47.566366" lon="8.120637">
        <ele>335.780712</ele>
        <time>2021-11-14T22:10:06.945Z</time>
      </trkpt>
      <trkpt lat="47.566398" lon="8.120421">
        <ele>335.616459</ele>
        <time>2021-11-14T22:10:09.055Z</time>
      </trkpt>
      <trkpt lat="47.566431" lon="8.120180">
        <ele>335.411462</ele>
        <time>2021-11-14T22:10:11.054Z</time>
      </trkpt>
      <trkpt lat="47.566474" lon="8.119870">
        <ele>335.147637</ele>
        <time>2021-11-14T22:10:13.915Z</time>
      </trkpt>
      <trkpt lat="47.566566" lon="8.119245">
        <ele>334.614374</ele>
        <time>2021-11-14T22:10:19.237Z</time>
      </trkpt>
      <trkpt lat="47.566580" lon="8.119152">
        <ele>334.534942</ele>
        <time>2021-11-14T22:10:19.908Z</time>
      </trkpt>
      <trkpt lat="47.566644" lon="8.118715">
        <ele>334.162171</ele>
        <time>2021-11-14T22:10:23.520Z</time>
      </trkpt>
      <trkpt lat="47.566733" lon="8.118099">
        <ele>333.637025</ele>
        <time>2021-11-14T22:10:28.184Z</time>
      </trkpt>
      <trkpt lat="47.566811" lon="8.117556">
        <ele>333.320425</ele>
        <time>2021-11-14T22:10:32.356Z</time>
      </trkpt>
      <trkpt lat="47.566944" lon="8.116530">
        <ele>332.922371</ele>
        <time>2021-11-14T22:10:41.399Z</time>
      </trkpt>
      <trkpt lat="47.566983" lon="8.116203">
        <ele>332.795854</ele>
        <time>2021-11-14T22:10:44.341Z</time>
      </trkpt>
      <trkpt lat="47.567009" lon="8.116010">
        <ele>332.720870</ele>
        <time>2021-11-14T22:10:47.016Z</time>
      </trkpt>
      <trkpt lat="47.567157" lon="8.115310">
        <ele>332.441385</ele>
        <time>2021-11-14T22:10:53.749Z</time>
      </trkpt>
      <trkpt lat="47.567411" lon="8.114753">
        <ele>332.356013</ele>
        <time>2021-11-14T22:11:00.933Z</time>
      </trkpt>
      <trkpt lat="47.567654" lon="8.114290">
        <ele>332.289837</ele>
        <time>2021-11-14T22:11:07.931Z</time>
      </trkpt>
      <trkpt lat="47.567881" lon="8.113862">
        <ele>332.228420</ele>
        <time>2021-11-14T22:11:14.549Z</time>
      </trkpt>
      <trkpt lat="47.568167" lon="8.113323">
        <ele>332.151061</ele>
        <time>2021-11-14T22:11:21.166Z</time>
      </trkpt>
      <trkpt lat="47.568835" lon="8.112063">
        <ele>328.953538</ele>
        <time>2021-11-14T22:11:32.502Z</time>
      </trkpt>
      <trkpt lat="47.569083" lon="8.111567">
        <ele>327.544171</ele>
        <time>2021-11-14T22:11:36.594Z</time>
      </trkpt>
      <trkpt lat="47.569107" lon="8.111522">
        <ele>327.413220</ele>
        <time>2021-11-14T22:11:36.919Z</time>
      </trkpt>
      <trkpt lat="47.569423" lon="8.110628">
        <ele>325.285051</ele>
        <time>2021-11-14T22:11:43.418Z</time>
      </trkpt>
      <trkpt lat="47.569495" lon="8.110499">
        <ele>324.974969</ele>
        <time>2021-11-14T22:11:44.401Z</time>
      </trkpt>
      <trkpt lat="47.569574" lon="8.110385">
        <ele>324.672293</ele>
        <time>2021-11-14T22:11:45.431Z</time>
      </trkpt>
      <trkpt lat="47.569664" lon="8.110262">
        <ele>324.336230</ele>
        <time>2021-11-14T22:11:47.132Z</time>
      </trkpt>
      <trkpt lat="47.569787" lon="8.110094">
        <ele>323.877069</ele>
        <time>2021-11-14T22:11:48.648Z</time>
      </trkpt>
      <trkpt lat="47.569974" lon="8.109825">
        <ele>323.161706</ele>
        <time>2021-11-14T22:11:51.371Z</time>
      </trkpt>
      <trkpt lat="47.570263" lon="8.109376">
        <ele>322.012378</ele>
        <time>2021-11-14T22:11:55.952Z</time>
      </trkpt>
      <trkpt lat="47.570283" lon="8.109343">
        <ele>321.930220</ele>
        <time>2021-11-14T22:11:56.251Z</time>
      </trkpt>
      <trkpt lat="47.570582" lon="8.108889">
        <ele>321.409911</ele>
        <time>2021-11-14T22:12:01.836Z</time>
      </trkpt>
      <trkpt lat="47.570830" lon="8.108502">
        <ele>322.278496</ele>
        <time>2021-11-14T22:12:12.161Z</time>
      </trkpt>
      <trkpt lat="47.571253" lon="8.107823">
        <ele>323.782457</ele>
        <time>2021-11-14T22:12:31.523Z</time>
      </trkpt>
      <trkpt lat="47.571440" lon="8.107260">
        <ele>324.803647</ele>
        <time>2021-11-14T22:12:44.362Z</time>
      </trkpt>
      <trkpt lat="47.571458" lon="8.107087">
        <ele>325.088500</ele>
        <time>2021-11-14T22:12:48.486Z</time>
      </trkpt>
      <trkpt lat="47.571460" lon="8.106995">
        <ele>325.238291</ele>
        <time>2021-11-14T22:12:50.118Z</time>
      </trkpt>
      <trkpt lat="47.571461" lon="8.106820">
        <ele>325.415018</ele>
        <time>2021-11-14T22:12:51.704Z</time>
      </trkpt>
      <trkpt lat="47.571440" lon="8.106588">
        <ele>325.288020</ele>
        <time>2021-11-14T22:12:54.531Z</time>
      </trkpt>
      <trkpt lat="47.571298" lon="8.105561">
        <ele>324.719245</ele>
        <time>2021-11-14T22:13:02.844Z</time>
      </trkpt>
      <trkpt lat="47.571251" lon="8.105188">
        <ele>324.513376</ele>
        <time>2021-11-14T22:13:05.751Z</time>
      </trkpt>
      <trkpt lat="47.571234" lon="8.105037">
        <ele>324.430319</ele>
        <time>2021-11-14T22:13:07.389Z</time>
      </trkpt>
      <trkpt lat="47.571214" lon="8.104836">
        <ele>324.320087</ele>
        <time>2021-11-14T22:13:09.035Z</time>
      </trkpt>
      <trkpt lat="47.571252" lon="8.104668">
        <ele>324.223953</ele>
        <time>2021-11-14T22:13:10.538Z</time>
      </trkpt>
      <trkpt lat="47.571285" lon="8.104547">
        <ele>324.153145</ele>
        <time>2021-11-14T22:13:11.459Z</time>
      </trkpt>
      <trkpt lat="47.571319" lon="8.104520">
        <ele>324.122126</ele>
        <time>2021-11-14T22:13:11.877Z</time>
      </trkpt>
      <trkpt lat="47.571345" lon="8.104476">
        <ele>324.090392</ele>
        <time>2021-11-14T22:13:12.265Z</time>
      </trkpt>
      <trkpt lat="47.571359" lon="8.104422">
        <ele>324.059006</ele>
        <time>2021-11-14T22:13:12.638Z</time>
      </trkpt>
      <trkpt lat="47.571359" lon="8.104365">
        <ele>324.028081</ele>
        <time>2021-11-14T22:13:13.074Z</time>
      </trkpt>
      <trkpt lat="47.571346" lon="8.104311">
        <ele>323.996975</ele>
        <time>2021-11-14T22:13:13.458Z</time>
      </trkpt>
      <trkpt lat="47.571354" lon="8.104222">
        <ele>323.983344</ele>
        <time>2021-11-14T22:13:14.488Z</time>
      </trkpt>
      <trkpt lat="47.571310" lon="8.104135">
        <ele>323.968038</ele>
        <time>2021-11-14T22:13:15.229Z</time>
      </trkpt>
      <trkpt lat="47.571041" lon="8.104109">
        <ele>323.911790</ele>
        <time>2021-11-14T22:13:18.101Z</time>
      </trkpt>
      <trkpt lat="47.570788" lon="8.103933">
        <ele>323.853475</ele>
        <time>2021-11-14T22:13:21.079Z</time>
      </trkpt>
      <trkpt lat="47.570667" lon="8.103884">
        <ele>323.827302</ele>
        <time>2021-11-14T22:13:22.782Z</time>
      </trkpt>
      <trkpt lat="47.570391" lon="8.103841">
        <ele>323.769396</ele>
        <time>2021-11-14T22:13:31.634Z</time>
      </trkpt>
      <trkpt lat="47.570159" lon="8.103813">
        <ele>323.720827</ele>
        <time>2021-11-14T22:13:35.723Z</time>
      </trkpt>
      <trkpt lat="47.569557" lon="8.103677">
        <ele>323.958426</ele>
        <time>2021-11-14T22:13:52.063Z</time>
      </trkpt>
      <trkpt lat="47.567683" lon="8.103272">
        <ele>328.974682</ele>
        <time>2021-11-14T22:14:40.328Z</time>
      </trkpt>
      <trkpt lat="47.566684" lon="8.102974">
        <ele>331.628251</ele>
        <time>2021-11-14T22:15:06.477Z</time>
      </trkpt>
      <trkpt lat="47.565727" lon="8.102512">
        <ele>333.929013</ele>
        <time>2021-11-14T22:15:31.749Z</time>
      </trkpt>
      <trkpt lat="47.564165" lon="8.101615">
        <ele>337.332316</ele>
        <time>2021-11-14T22:16:06.940Z</time>
      </trkpt>
      <trkpt lat="47.563202" lon="8.101042">
        <ele>340.041929</ele>
        <time>2021-11-14T22:16:32.753Z</time>
      </trkpt>
      <trkpt lat="47.563031" lon="8.100935">
        <ele>340.526600</ele>
        <time>2021-11-14T22:16:39.636Z</time>
      </trkpt>
      <trkpt lat="47.562207" lon="8.100413">
        <ele>343.097442</ele>
        <time>2021-11-14T22:17:10.077Z</time>
      </trkpt>
      <trkpt lat="47.561466" lon="8.099697">
        <ele>345.723108</ele>
        <time>2021-11-14T22:17:41.590Z</time>
      </trkpt>
      <trkpt lat="47.560787" lon="8.098864">
        <ele>345.336475</ele>
        <time>2021-11-14T22:18:01.523Z</time>
      </trkpt>
      <trkpt lat="47.560184" lon="8.097897">
        <ele>343.629484</ele>
        <time>2021-11-14T22:18:14.943Z</time>
      </trkpt>
      <trkpt lat="47.560171" lon="8.097877">
        <ele>343.593483</ele>
        <time>2021-11-14T22:18:15.163Z</time>
      </trkpt>
      <trkpt lat="47.559606" lon="8.096837">
        <ele>339.595531</ele>
        <time>2021-11-14T22:18:27.204Z</time>
      </trkpt>
      <trkpt lat="47.558983" lon="8.095482">
        <ele>333.448551</ele>
        <time>2021-11-14T22:18:41.657Z</time>
      </trkpt>
      <trkpt lat="47.558857" lon="8.095293">
        <ele>332.620467</ele>
        <time>2021-11-14T22:18:44.149Z</time>
      </trkpt>
      <trkpt lat="47.558776" lon="8.095210">
        <ele>332.222552</ele>
        <time>2021-11-14T22:18:45.398Z</time>
      </trkpt>
      <trkpt lat="47.558531" lon="8.094661">
        <ele>330.427862</ele>
        <time>2021-11-14T22:18:49.679Z</time>
      </trkpt>
      <trkpt lat="47.557677" lon="8.092776">
        <ele>324.092325</ele>
        <time>2021-11-14T22:19:05.104Z</time>
      </trkpt>
      <trkpt lat="47.556850" lon="8.091457">
        <ele>318.728548</ele>
        <time>2021-11-14T22:19:16.728Z</time>
      </trkpt>
      <trkpt lat="47.556692" lon="8.091113">
        <ele>317.510491</ele>
        <time>2021-11-14T22:19:19.332Z</time>
      </trkpt>
      <trkpt lat="47.556527" lon="8.090721">
        <ele>316.214193</ele>
        <time>2021-11-14T22:19:22.213Z</time>
      </trkpt>
      <trkpt lat="47.556259" lon="8.090058">
        <ele>314.045727</ele>
        <time>2021-11-14T22:19:27.125Z</time>
      </trkpt>
      <trkpt lat="47.556193" lon="8.089926">
        <ele>313.584775</ele>
        <time>2021-11-14T22:19:28.256Z</time>
      </trkpt>
      <trkpt lat="47.556110" lon="8.089809">
        <ele>313.108479</ele>
        <time>2021-11-14T22:19:29.334Z</time>
      </trkpt>
      <trkpt lat="47.556137" lon="8.089730">
        <ele>312.860009</ele>
        <time>2021-11-14T22:19:29.887Z</time>
      </trkpt>
      <trkpt lat="47.556151" lon="8.089459">
        <ele>312.097391</ele>
        <time>2021-11-14T22:19:31.730Z</time>
      </trkpt>
      <trkpt lat="47.556111" lon="8.089266">
        <ele>311.530895</ele>
        <time>2021-11-14T22:19:33.019Z</time>
      </trkpt>
      <trkpt lat="47.556065" lon="8.089084">
        <ele>310.985586</ele>
        <time>2021-11-14T22:19:34.329Z</time>
      </trkpt>
      <trkpt lat="47.555997" lon="8.088801">
        <ele>310.444284</ele>
        <time>2021-11-14T22:19:36.638Z</time>
      </trkpt>
      <trkpt lat="47.555991" lon="8.088778">
        <ele>310.462141</ele>
        <time>2021-11-14T22:19:36.877Z</time>
      </trkpt>
      <trkpt lat="47.555939" lon="8.088552">
        <ele>310.635061</ele>
        <time>2021-11-14T22:19:38.706Z</time>
      </trkpt>
      <trkpt lat="47.555887" lon="8.088299">
        <ele>310.826592</ele>
        <time>2021-11-14T22:19:41.217Z</time>
      </trkpt>
      <trkpt lat="47.555829" lon="8.087941">
        <ele>311.093221</ele>
        <time>2021-11-14T22:19:45.033Z</time>
      </trkpt>
      <trkpt lat="47.555809" lon="8.087783">
        <ele>311.209640</ele>
        <time>2021-11-14T22:19:46.645Z</time>
      </trkpt>
      <trkpt lat="47.555780" lon="8.087557">
        <ele>311.376241</ele>
        <time>2021-11-14T22:19:48.822Z</time>
      </trkpt>
      <trkpt lat="47.555737" lon="8.087083">
        <ele>311.722600</ele>
        <time>2021-11-14T22:19:56.449Z</time>
      </trkpt>
      <trkpt lat="47.555733" lon="8.086819">
        <ele>311.913837</ele>
        <time>2021-11-14T22:20:01.470Z</time>
      </trkpt>
      <trkpt lat="47.555764" lon="8.085769">
        <ele>313.850805</ele>
        <time>2021-11-14T22:20:23.306Z</time>
      </trkpt>
      <trkpt lat="47.555899" lon="8.084472">
        <ele>317.884358</ele>
        <time>2021-11-14T22:20:52.717Z</time>
      </trkpt>
      <trkpt lat="47.555956" lon="8.084115">
        <ele>319.011910</ele>
        <time>2021-11-14T22:21:01.472Z</time>
      </trkpt>
      <trkpt lat="47.556083" lon="8.083354">
        <ele>321.520606</ele>
        <time>2021-11-14T22:21:19.670Z</time>
      </trkpt>
      <trkpt lat="47.556470" lon="8.081563">
        <ele>327.926110</ele>
        <time>2021-11-14T22:22:06.399Z</time>
      </trkpt>
      <trkpt lat="47.556853" lon="8.080477">
        <ele>330.863500</ele>
        <time>2021-11-14T22:22:32.472Z</time>
      </trkpt>
      <trkpt lat="47.557099" lon="8.079786">
        <ele>332.217824</ele>
        <time>2021-11-14T22:22:46.797Z</time>
      </trkpt>
      <trkpt lat="47.557256" lon="8.079416">
        <ele>332.975479</ele>
        <time>2021-11-14T22:22:53.516Z</time>
      </trkpt>
      <trkpt lat="47.557793" lon="8.078299">
        <ele>333.747289</ele>
        <time>2021-11-14T22:23:09.817Z</time>
      </trkpt>
      <trkpt lat="47.558613" lon="8.076826">
        <ele>332.437990</ele>
        <time>2021-11-14T22:23:24.382Z</time>
      </trkpt>
      <trkpt lat="47.559046" lon="8.076086">
        <ele>331.434357</ele>
        <time>2021-11-14T22:23:31.761Z</time>
      </trkpt>
      <trkpt lat="47.559426" lon="8.075372">
        <ele>330.470580</ele>
        <time>2021-11-14T22:23:38.759Z</time>
      </trkpt>
      <trkpt lat="47.559811" lon="8.074398">
        <ele>329.271487</ele>
        <time>2021-11-14T22:23:47.653Z</time>
      </trkpt>
      <trkpt lat="47.560318" lon="8.072316">
        <ele>326.902387</ele>
        <time>2021-11-14T22:24:04.925Z</time>
      </trkpt>
      <trkpt lat="47.560524" lon="8.071179">
        <ele>325.173333</ele>
        <time>2021-11-14T22:24:13.491Z</time>
      </trkpt>
      <trkpt lat="47.560553" lon="8.071099">
        <ele>325.032916</ele>
        <time>2021-11-14T22:24:14.102Z</time>
      </trkpt>
      <trkpt lat="47.560584" lon="8.070919">
        <ele>324.745672</ele>
        <time>2021-11-14T22:24:15.412Z</time>
      </trkpt>
      <trkpt lat="47.560739" lon="8.070551">
        <ele>324.074913</ele>
        <time>2021-11-14T22:24:18.499Z</time>
      </trkpt>
      <trkpt lat="47.560864" lon="8.070015">
        <ele>323.198036</ele>
        <time>2021-11-14T22:24:22.521Z</time>
      </trkpt>
      <trkpt lat="47.560904" lon="8.069780">
        <ele>322.823291</ele>
        <time>2021-11-14T22:24:24.265Z</time>
      </trkpt>
      <trkpt lat="47.560998" lon="8.069237">
        <ele>322.250902</ele>
        <time>2021-11-14T22:24:28.345Z</time>
      </trkpt>
      <trkpt lat="47.561130" lon="8.068650">
        <ele>321.749046</ele>
        <time>2021-11-14T22:24:33.016Z</time>
      </trkpt>
      <trkpt lat="47.561187" lon="8.068256">
        <ele>321.422211</ele>
        <time>2021-11-14T22:24:36.290Z</time>
      </trkpt>
      <trkpt lat="47.561229" lon="8.067903">
        <ele>321.131476</ele>
        <time>2021-11-14T22:24:39.328Z</time>
      </trkpt>
      <trkpt lat="47.561265" lon="8.067435">
        <ele>320.749424</ele>
        <time>2021-11-14T22:24:43.310Z</time>
      </trkpt>
      <trkpt lat="47.561276" lon="8.067022">
        <ele>320.414180</ele>
        <time>2021-11-14T22:24:47.228Z</time>
      </trkpt>
      <trkpt lat="47.561253" lon="8.066385">
        <ele>320.381501</ele>
        <time>2021-11-14T22:24:53.742Z</time>
      </trkpt>
      <trkpt lat="47.561108" lon="8.065242">
        <ele>320.322578</ele>
        <time>2021-11-14T22:25:06.097Z</time>
      </trkpt>
      <trkpt lat="47.561017" lon="8.064820">
        <ele>320.300132</ele>
        <time>2021-11-14T22:25:10.740Z</time>
      </trkpt>
      <trkpt lat="47.560887" lon="8.064271">
        <ele>320.198354</ele>
        <time>2021-11-14T22:25:15.936Z</time>
      </trkpt>
      <trkpt lat="47.560806" lon="8.064037">
        <ele>320.066092</ele>
        <time>2021-11-14T22:25:18.208Z</time>
      </trkpt>
      <trkpt lat="47.560719" lon="8.063873">
        <ele>319.961179</ele>
        <time>2021-11-14T22:25:19.990Z</time>
      </trkpt>
      <trkpt lat="47.560403" lon="8.063320">
        <ele>319.596748</ele>
        <time>2021-11-14T22:25:26.065Z</time>
      </trkpt>
      <trkpt lat="47.560392" lon="8.063300">
        <ele>319.583772</ele>
        <time>2021-11-14T22:25:26.290Z</time>
      </trkpt>
      <trkpt lat="47.560335" lon="8.063169">
        <ele>319.505381</ele>
        <time>2021-11-14T22:25:27.635Z</time>
      </trkpt>
      <trkpt lat="47.560443" lon="8.063042">
        <ele>319.402629</ele>
        <time>2021-11-14T22:25:29.303Z</time>
      </trkpt>
      <trkpt lat="47.560545" lon="8.062928">
        <ele>319.307415</ele>
        <time>2021-11-14T22:25:30.872Z</time>
      </trkpt>
      <trkpt lat="47.560580" lon="8.062890">
        <ele>319.275079</ele>
        <time>2021-11-14T22:25:31.407Z</time>
      </trkpt>
      <trkpt lat="47.560673" lon="8.062786">
        <ele>319.188249</ele>
        <time>2021-11-14T22:25:33.477Z</time>
      </trkpt>
      <trkpt lat="47.560765" lon="8.062729">
        <ele>319.113932</ele>
        <time>2021-11-14T22:25:35.226Z</time>
      </trkpt>
      <trkpt lat="47.560570" lon="8.061926">
        <ele>318.708199</ele>
        <time>2021-11-14T22:25:42.585Z</time>
      </trkpt>
      <trkpt lat="47.560335" lon="8.060984">
        <ele>318.249852</ele>
        <time>2021-11-14T22:25:50.917Z</time>
      </trkpt>
      <trkpt lat="47.560293" lon="8.060828">
        <ele>318.173199</ele>
        <time>2021-11-14T22:25:52.347Z</time>
      </trkpt>
      <trkpt lat="47.560262" lon="8.060729">
        <ele>318.123390</ele>
        <time>2021-11-14T22:25:53.302Z</time>
      </trkpt>
      <trkpt lat="47.560130" lon="8.060196">
        <ele>317.864274</ele>
        <time>2021-11-14T22:25:58.501Z</time>
      </trkpt>
      <trkpt lat="47.560069" lon="8.059943">
        <ele>317.741660</ele>
        <time>2021-11-14T22:26:00.913Z</time>
      </trkpt>
      <trkpt lat="47.560040" lon="8.059827">
        <ele>317.707419</ele>
        <time>2021-11-14T22:26:02.130Z</time>
      </trkpt>
      <trkpt lat="47.560019" lon="8.059741">
        <ele>317.690988</ele>
        <time>2021-11-14T22:26:03.021Z</time>
      </trkpt>
      <trkpt lat="47.559979" lon="8.059591">
        <ele>317.662013</ele>
        <time>2021-11-14T22:26:04.482Z</time>
      </trkpt>
      <trkpt lat="47.559859" lon="8.059093">
        <ele>317.567013</ele>
        <time>2021-11-14T22:26:09.504Z</time>
      </trkpt>
      <trkpt lat="47.559725" lon="8.058554">
        <ele>317.463818</ele>
        <time>2021-11-14T22:26:14.915Z</time>
      </trkpt>
      <trkpt lat="47.559654" lon="8.058257">
        <ele>317.407211</ele>
        <time>2021-11-14T22:26:17.871Z</time>
      </trkpt>
      <trkpt lat="47.559579" lon="8.057955">
        <ele>317.349398</ele>
        <time>2021-11-14T22:26:20.774Z</time>
      </trkpt>
      <trkpt lat="47.559548" lon="8.057827">
        <ele>317.324967</ele>
        <time>2021-11-14T22:26:22.071Z</time>
      </trkpt>
      <trkpt lat="47.559447" lon="8.057490">
        <ele>317.258721</ele>
        <time>2021-11-14T22:26:25.496Z</time>
      </trkpt>
      <trkpt lat="47.559294" lon="8.057130">
        <ele>317.210411</ele>
        <time>2021-11-14T22:26:29.633Z</time>
      </trkpt>
      <trkpt lat="47.559167" lon="8.056865">
        <ele>317.179068</ele>
        <time>2021-11-14T22:26:32.825Z</time>
      </trkpt>
      <trkpt lat="47.559116" lon="8.056760">
        <ele>317.166593</ele>
        <time>2021-11-14T22:26:34.071Z</time>
      </trkpt>
      <trkpt lat="47.558662" lon="8.056061">
        <ele>317.073038</ele>
        <time>2021-11-14T22:26:43.414Z</time>
      </trkpt>
      <trkpt lat="47.558447" lon="8.055831">
        <ele>317.035145</ele>
        <time>2021-11-14T22:26:46.945Z</time>
      </trkpt>
      <trkpt lat="47.558239" lon="8.055639">
        <ele>317.000127</ele>
        <time>2021-11-14T22:26:50.623Z</time>
      </trkpt>
      <trkpt lat="47.558012" lon="8.055477">
        <ele>316.985573</ele>
        <time>2021-11-14T22:26:54.268Z</time>
      </trkpt>
      <trkpt lat="47.557918" lon="8.055409">
        <ele>316.985299</ele>
        <time>2021-11-14T22:26:56.064Z</time>
      </trkpt>
      <trkpt lat="47.557710" lon="8.055283">
        <ele>316.984709</ele>
        <time>2021-11-14T22:26:59.429Z</time>
      </trkpt>
      <trkpt lat="47.557500" lon="8.055133">
        <ele>316.984097</ele>
        <time>2021-11-14T22:27:03.254Z</time>
      </trkpt>
      <trkpt lat="47.557273" lon="8.054941">
        <ele>316.983410</ele>
        <time>2021-11-14T22:27:07.494Z</time>
      </trkpt>
      <trkpt lat="47.557097" lon="8.054768">
        <ele>316.982856</ele>
        <time>2021-11-14T22:27:10.458Z</time>
      </trkpt>
      <trkpt lat="47.557019" lon="8.054678">
        <ele>316.982596</ele>
        <time>2021-11-14T22:27:12.263Z</time>
      </trkpt>
      <trkpt lat="47.556494" lon="8.054073">
        <ele>317.000188</ele>
        <time>2021-11-14T22:27:21.115Z</time>
      </trkpt>
      <trkpt lat="47.556239" lon="8.053780">
        <ele>317.040065</ele>
        <time>2021-11-14T22:27:25.521Z</time>
      </trkpt>
      <trkpt lat="47.556032" lon="8.053510">
        <ele>317.074144</ele>
        <time>2021-11-14T22:27:29.745Z</time>
      </trkpt>
      <trkpt lat="47.555890" lon="8.053286">
        <ele>317.099775</ele>
        <time>2021-11-14T22:27:33.382Z</time>
      </trkpt>
      <trkpt lat="47.555773" lon="8.053070">
        <ele>317.122874</ele>
        <time>2021-11-14T22:27:36.323Z</time>
      </trkpt>
      <trkpt lat="47.555603" lon="8.052757">
        <ele>317.156382</ele>
        <time>2021-11-14T22:27:40.545Z</time>
      </trkpt>
      <trkpt lat="47.555259" lon="8.052135">
        <ele>317.408115</ele>
        <time>2021-11-14T22:27:49.242Z</time>
      </trkpt>
      <trkpt lat="47.554988" lon="8.051475">
        <ele>318.069712</ele>
        <time>2021-11-14T22:27:58.232Z</time>
      </trkpt>
      <trkpt lat="47.554715" lon="8.050527">
        <ele>318.952378</ele>
        <time>2021-11-14T22:28:13.023Z</time>
      </trkpt>
      <trkpt lat="47.554412" lon="8.049127">
        <ele>320.547242</ele>
        <time>2021-11-14T22:28:35.584Z</time>
      </trkpt>
      <trkpt lat="47.554309" lon="8.048719">
        <ele>321.092933</ele>
        <time>2021-11-14T22:28:42.600Z</time>
      </trkpt>
      <trkpt lat="47.553996" lon="8.047557">
        <ele>322.660241</ele>
        <time>2021-11-14T22:29:01.831Z</time>
      </trkpt>
      <trkpt lat="47.553619" lon="8.046372">
        <ele>322.895065</ele>
        <time>2021-11-14T22:29:18.267Z</time>
      </trkpt>
      <trkpt lat="47.552844" lon="8.044355">
        <ele>321.979910</ele>
        <time>2021-11-14T22:29:38.197Z</time>
      </trkpt>
      <trkpt lat="47.551627" lon="8.041127">
        <ele>317.130933</ele>
        <time>2021-11-14T22:30:04.950Z</time>
      </trkpt>
      <trkpt lat="47.551167" lon="8.039905">
        <ele>315.745752</ele>
        <time>2021-11-14T22:30:15.581Z</time>
      </trkpt>
      <trkpt lat="47.551001" lon="8.039426">
        <ele>315.518178</ele>
        <time>2021-11-14T22:30:19.936Z</time>
      </trkpt>
      <trkpt lat="47.550515" lon="8.038174">
        <ele>314.907753</ele>
        <time>2021-11-14T22:30:33.639Z</time>
      </trkpt>
      <trkpt lat="47.550424" lon="8.037956">
        <ele>314.970393</ele>
        <time>2021-11-14T22:30:36.609Z</time>
      </trkpt>
      <trkpt lat="47.550111" lon="8.037123">
        <ele>315.494599</ele>
        <time>2021-11-14T22:30:48.977Z</time>
      </trkpt>
      <trkpt lat="47.549832" lon="8.036349">
        <ele>315.977064</ele>
        <time>2021-11-14T22:31:00.260Z</time>
      </trkpt>
      <trkpt lat="47.549753" lon="8.036077">
        <ele>316.139880</ele>
        <time>2021-11-14T22:31:03.749Z</time>
      </trkpt>
      <trkpt lat="47.549699" lon="8.035900">
        <ele>316.246682</ele>
        <time>2021-11-14T22:31:06.196Z</time>
      </trkpt>
      <trkpt lat="47.549632" lon="8.035633">
        <ele>316.359614</ele>
        <time>2021-11-14T22:31:09.682Z</time>
      </trkpt>
      <trkpt lat="47.549554" lon="8.035288">
        <ele>316.423802</ele>
        <time>2021-11-14T22:31:13.974Z</time>
      </trkpt>
      <trkpt lat="47.549494" lon="8.034935">
        <ele>316.488021</ele>
        <time>2021-11-14T22:31:17.958Z</time>
      </trkpt>
      <trkpt lat="47.549442" lon="8.034584">
        <ele>316.551418</ele>
        <time>2021-11-14T22:31:21.813Z</time>
      </trkpt>
      <trkpt lat="47.549395" lon="8.034029">
        <ele>316.650098</ele>
        <time>2021-11-14T22:31:27.875Z</time>
      </trkpt>
      <trkpt lat="47.549394" lon="8.034003">
        <ele>316.654692</ele>
        <time>2021-11-14T22:31:28.189Z</time>
      </trkpt>
      <trkpt lat="47.549386" lon="8.033799">
        <ele>316.690742</ele>
        <time>2021-11-14T22:31:30.354Z</time>
      </trkpt>
      <trkpt lat="47.549374" lon="8.033423">
        <ele>316.757149</ele>
        <time>2021-11-14T22:31:33.987Z</time>
      </trkpt>
      <trkpt lat="47.549363" lon="8.032869">
        <ele>316.821575</ele>
        <time>2021-11-14T22:31:39.243Z</time>
      </trkpt>
      <trkpt lat="47.549368" lon="8.032544">
        <ele>316.837190</ele>
        <time>2021-11-14T22:31:42.218Z</time>
      </trkpt>
      <trkpt lat="47.549372" lon="8.031883">
        <ele>316.868942</ele>
        <time>2021-11-14T22:31:48.574Z</time>
      </trkpt>
      <trkpt lat="47.549378" lon="8.030790">
        <ele>316.921445</ele>
        <time>2021-11-14T22:31:59.903Z</time>
      </trkpt>
      <trkpt lat="47.549380" lon="8.030702">
        <ele>316.925674</ele>
        <time>2021-11-14T22:32:00.743Z</time>
      </trkpt>
      <trkpt lat="47.549418" lon="8.028906">
        <ele>317.464207</ele>
        <time>2021-11-14T22:32:21.450Z</time>
      </trkpt>
      <trkpt lat="47.549431" lon="8.028306">
        <ele>317.667172</ele>
        <time>2021-11-14T22:32:28.195Z</time>
      </trkpt>
      <trkpt lat="47.549445" lon="8.027599">
        <ele>317.913691</ele>
        <time>2021-11-14T22:32:36.372Z</time>
      </trkpt>
      <trkpt lat="47.549454" lon="8.027138">
        <ele>318.086486</ele>
        <time>2021-11-14T22:32:41.898Z</time>
      </trkpt>
      <trkpt lat="47.549436" lon="8.026046">
        <ele>318.495746</ele>
        <time>2021-11-14T22:32:55.182Z</time>
      </trkpt>
      <trkpt lat="47.549322" lon="8.024323">
        <ele>318.792023</ele>
        <time>2021-11-14T22:33:13.787Z</time>
      </trkpt>
      <trkpt lat="47.549268" lon="8.023385">
        <ele>318.741052</ele>
        <time>2021-11-14T22:33:23.234Z</time>
      </trkpt>
      <trkpt lat="47.549201" lon="8.022146">
        <ele>318.464807</ele>
        <time>2021-11-14T22:33:34.450Z</time>
      </trkpt>
      <trkpt lat="47.549191" lon="8.021436">
        <ele>317.991576</ele>
        <time>2021-11-14T22:33:40.418Z</time>
      </trkpt>
      <trkpt lat="47.549186" lon="8.021006">
        <ele>317.704990</ele>
        <time>2021-11-14T22:33:44.002Z</time>
      </trkpt>
      <trkpt lat="47.549208" lon="8.019997">
        <ele>317.032264</ele>
        <time>2021-11-14T22:33:52.235Z</time>
      </trkpt>
      <trkpt lat="47.549261" lon="8.017878">
        <ele>314.920595</ele>
        <time>2021-11-14T22:34:08.357Z</time>
      </trkpt>
      <trkpt lat="47.549256" lon="8.017769">
        <ele>314.808583</ele>
        <time>2021-11-14T22:34:09.222Z</time>
      </trkpt>
      <trkpt lat="47.549291" lon="8.017761">
        <ele>314.754788</ele>
        <time>2021-11-14T22:34:09.618Z</time>
      </trkpt>
      <trkpt lat="47.549324" lon="8.017738">
        <ele>314.699391</ele>
        <time>2021-11-14T22:34:10.008Z</time>
      </trkpt>
      <trkpt lat="47.549351" lon="8.017702">
        <ele>314.644214</ele>
        <time>2021-11-14T22:34:10.410Z</time>
      </trkpt>
      <trkpt lat="47.549370" lon="8.017656">
        <ele>314.588922</ele>
        <time>2021-11-14T22:34:10.869Z</time>
      </trkpt>
      <trkpt lat="47.549379" lon="8.017603">
        <ele>314.532889</ele>
        <time>2021-11-14T22:34:11.275Z</time>
      </trkpt>
      <trkpt lat="47.549377" lon="8.017547">
        <ele>314.475394</ele>
        <time>2021-11-14T22:34:11.833Z</time>
      </trkpt>
      <trkpt lat="47.549310" lon="8.017418">
        <ele>314.308508</ele>
        <time>2021-11-14T22:34:13.179Z</time>
      </trkpt>
      <trkpt lat="47.549274" lon="8.017401">
        <ele>314.251113</ele>
        <time>2021-11-14T22:34:13.661Z</time>
      </trkpt>
      <trkpt lat="47.549281" lon="8.017304">
        <ele>314.157687</ele>
        <time>2021-11-14T22:34:14.377Z</time>
      </trkpt>
      <trkpt lat="47.549431" lon="8.015998">
        <ele>313.069317</ele>
        <time>2021-11-14T22:34:25.121Z</time>
      </trkpt>
      <trkpt lat="47.549589" lon="8.015316">
        <ele>312.476934</ele>
        <time>2021-11-14T22:34:30.965Z</time>
      </trkpt>
      <trkpt lat="47.549795" lon="8.014667">
        <ele>311.868660</ele>
        <time>2021-11-14T22:34:36.781Z</time>
      </trkpt>
      <trkpt lat="47.549871" lon="8.014427">
        <ele>311.612128</ele>
        <time>2021-11-14T22:34:38.916Z</time>
      </trkpt>
      <trkpt lat="47.550001" lon="8.014034">
        <ele>311.188617</ele>
        <time>2021-11-14T22:34:42.304Z</time>
      </trkpt>
      <trkpt lat="47.550565" lon="8.012461">
        <ele>309.465035</ele>
        <time>2021-11-14T22:34:55.911Z</time>
      </trkpt>
      <trkpt lat="47.550764" lon="8.011985">
        <ele>309.342972</ele>
        <time>2021-11-14T22:35:00.411Z</time>
      </trkpt>
      <trkpt lat="47.551187" lon="8.011080">
        <ele>309.184624</ele>
        <time>2021-11-14T22:35:10.529Z</time>
      </trkpt>
      <trkpt lat="47.551275" lon="8.010934">
        <ele>309.156467</ele>
        <time>2021-11-14T22:35:12.339Z</time>
      </trkpt>
      <trkpt lat="47.551902" lon="8.009884">
        <ele>309.418221</ele>
        <time>2021-11-14T22:35:29.293Z</time>
      </trkpt>
      <trkpt lat="47.552604" lon="8.008677">
        <ele>310.548502</ele>
        <time>2021-11-14T22:35:51.773Z</time>
      </trkpt>
      <trkpt lat="47.552640" lon="8.008615">
        <ele>310.606520</ele>
        <time>2021-11-14T22:35:53.359Z</time>
      </trkpt>
      <trkpt lat="47.552935" lon="8.007851">
        <ele>310.757063</ele>
        <time>2021-11-14T22:36:02.958Z</time>
      </trkpt>
      <trkpt lat="47.553173" lon="8.006642">
        <ele>310.273752</ele>
        <time>2021-11-14T22:36:13.760Z</time>
      </trkpt>
      <trkpt lat="47.553211" lon="8.006270">
        <ele>310.129365</ele>
        <time>2021-11-14T22:36:16.974Z</time>
      </trkpt>
      <trkpt lat="47.553220" lon="8.006182">
        <ele>310.095208</ele>
        <time>2021-11-14T22:36:17.565Z</time>
      </trkpt>
      <trkpt lat="47.553251" lon="8.005657">
        <ele>309.897756</ele>
        <time>2021-11-14T22:36:21.813Z</time>
      </trkpt>
      <trkpt lat="47.553256" lon="8.004837">
        <ele>309.778980</ele>
        <time>2021-11-14T22:36:28.737Z</time>
      </trkpt>
      <trkpt lat="47.553266" lon="8.003502">
        <ele>309.585604</ele>
        <time>2021-11-14T22:36:41.324Z</time>
      </trkpt>
      <trkpt lat="47.553270" lon="8.002465">
        <ele>309.827778</ele>
        <time>2021-11-14T22:36:53.996Z</time>
      </trkpt>
      <trkpt lat="47.553271" lon="8.002109">
        <ele>310.031503</ele>
        <time>2021-11-14T22:36:58.974Z</time>
      </trkpt>
      <trkpt lat="47.553273" lon="8.001687">
        <ele>310.273002</ele>
        <time>2021-11-14T22:37:04.654Z</time>
      </trkpt>
      <trkpt lat="47.553275" lon="7.999860">
        <ele>310.873061</ele>
        <time>2021-11-14T22:37:26.841Z</time>
      </trkpt>
      <trkpt lat="47.553278" lon="7.999508">
        <ele>310.752616</ele>
        <time>2021-11-14T22:37:30.387Z</time>
      </trkpt>
      <trkpt lat="47.553287" lon="7.998380">
        <ele>310.366647</ele>
        <time>2021-11-14T22:37:40.154Z</time>
      </trkpt>
      <trkpt lat="47.553287" lon="7.997190">
        <ele>309.608000</ele>
        <time>2021-11-14T22:37:49.453Z</time>
      </trkpt>
      <trkpt lat="47.553279" lon="7.996528">
        <ele>308.908662</ele>
        <time>2021-11-14T22:37:54.469Z</time>
      </trkpt>
      <trkpt lat="47.553268" lon="7.996252">
        <ele>308.616633</ele>
        <time>2021-11-14T22:37:56.541Z</time>
      </trkpt>
      <trkpt lat="47.553246" lon="7.995617">
        <ele>307.945042</ele>
        <time>2021-11-14T22:38:01.392Z</time>
      </trkpt>
      <trkpt lat="47.553164" lon="7.993925">
        <ele>306.656957</ele>
        <time>2021-11-14T22:38:14.721Z</time>
      </trkpt>
      <trkpt lat="47.553156" lon="7.993696">
        <ele>306.519944</ele>
        <time>2021-11-14T22:38:16.721Z</time>
      </trkpt>
      <trkpt lat="47.553137" lon="7.993190">
        <ele>306.217135</ele>
        <time>2021-11-14T22:38:21.177Z</time>
      </trkpt>
      <trkpt lat="47.553130" lon="7.993014">
        <ele>306.111790</ele>
        <time>2021-11-14T22:38:22.779Z</time>
      </trkpt>
      <trkpt lat="47.553107" lon="7.992226">
        <ele>305.586633</ele>
        <time>2021-11-14T22:38:30.008Z</time>
      </trkpt>
      <trkpt lat="47.553091" lon="7.991915">
        <ele>305.274931</ele>
        <time>2021-11-14T22:38:33.158Z</time>
      </trkpt>
      <trkpt lat="47.553050" lon="7.990744">
        <ele>304.103108</ele>
        <time>2021-11-14T22:38:42.850Z</time>
      </trkpt>
      <trkpt lat="47.553126" lon="7.990240">
        <ele>303.587013</ele>
        <time>2021-11-14T22:38:46.762Z</time>
      </trkpt>
      <trkpt lat="47.553146" lon="7.990113">
        <ele>303.456686</ele>
        <time>2021-11-14T22:38:47.691Z</time>
      </trkpt>
      <trkpt lat="47.553163" lon="7.990004">
        <ele>303.344885</ele>
        <time>2021-11-14T22:38:48.476Z</time>
      </trkpt>
      <trkpt lat="47.553214" lon="7.989758">
        <ele>303.087706</ele>
        <time>2021-11-14T22:38:50.255Z</time>
      </trkpt>
      <trkpt lat="47.553253" lon="7.989578">
        <ele>302.662257</ele>
        <time>2021-11-14T22:38:51.544Z</time>
      </trkpt>
      <trkpt lat="47.553352" lon="7.989142">
        <ele>301.516646</ele>
        <time>2021-11-14T22:38:54.640Z</time>
      </trkpt>
      <trkpt lat="47.553424" lon="7.988762">
        <ele>300.533717</ele>
        <time>2021-11-14T22:38:57.285Z</time>
      </trkpt>
      <trkpt lat="47.553410" lon="7.988607">
        <ele>300.144268</ele>
        <time>2021-11-14T22:38:58.317Z</time>
      </trkpt>
      <trkpt lat="47.553343" lon="7.988401">
        <ele>299.574787</ele>
        <time>2021-11-14T22:38:59.839Z</time>
      </trkpt>
      <trkpt lat="47.553232" lon="7.988247">
        <ele>299.013673</ele>
        <time>2021-11-14T22:39:01.310Z</time>
      </trkpt>
      <trkpt lat="47.552867" lon="7.987810">
        <ele>297.282090</ele>
        <time>2021-11-14T22:39:05.879Z</time>
      </trkpt>
      <trkpt lat="47.552713" lon="7.987638">
        <ele>296.570473</ele>
        <time>2021-11-14T22:39:07.716Z</time>
      </trkpt>
      <trkpt lat="47.552504" lon="7.987369">
        <ele>295.983797</ele>
        <time>2021-11-14T22:39:10.428Z</time>
      </trkpt>
      <trkpt lat="47.552436" lon="7.987273">
        <ele>295.810169</ele>
        <time>2021-11-14T22:39:11.370Z</time>
      </trkpt>
      <trkpt lat="47.552224" lon="7.986975">
        <ele>295.269969</ele>
        <time>2021-11-14T22:39:14.356Z</time>
      </trkpt>
      <trkpt lat="47.552152" lon="7.986883">
        <ele>295.094214</ele>
        <time>2021-11-14T22:39:15.336Z</time>
      </trkpt>
      <trkpt lat="47.551971" lon="7.986555">
        <ele>294.565614</ele>
        <time>2021-11-14T22:39:18.335Z</time>
      </trkpt>
      <trkpt lat="47.551917" lon="7.986288">
        <ele>294.217859</ele>
        <time>2021-11-14T22:39:20.415Z</time>
      </trkpt>
      <trkpt lat="47.551915" lon="7.986209">
        <ele>294.119226</ele>
        <time>2021-11-14T22:39:20.976Z</time>
      </trkpt>
      <trkpt lat="47.551898" lon="7.985654">
        <ele>293.426071</ele>
        <time>2021-11-14T22:39:26.484Z</time>
      </trkpt>
      <trkpt lat="47.551939" lon="7.985151">
        <ele>293.444433</ele>
        <time>2021-11-14T22:39:32.639Z</time>
      </trkpt>
      <trkpt lat="47.551934" lon="7.984260">
        <ele>294.731323</ele>
        <time>2021-11-14T22:39:46.225Z</time>
      </trkpt>
      <trkpt lat="47.551993" lon="7.984014">
        <ele>295.108379</ele>
        <time>2021-11-14T22:39:49.830Z</time>
      </trkpt>
      <trkpt lat="47.552007" lon="7.983931">
        <ele>295.231941</ele>
        <time>2021-11-14T22:39:51.404Z</time>
      </trkpt>
      <trkpt lat="47.552005" lon="7.983849">
        <ele>295.350448</ele>
        <time>2021-11-14T22:39:53.486Z</time>
      </trkpt>
      <trkpt lat="47.551911" lon="7.983632">
        <ele>295.722853</ele>
        <time>2021-11-14T22:39:57.679Z</time>
      </trkpt>
      <trkpt lat="47.551892" lon="7.983447">
        <ele>295.993120</ele>
        <time>2021-11-14T22:40:01.023Z</time>
      </trkpt>
      <trkpt lat="47.551861" lon="7.981113">
        <ele>299.345796</ele>
        <time>2021-11-14T22:40:44.313Z</time>
      </trkpt>
      <trkpt lat="47.551865" lon="7.980584">
        <ele>300.103895</ele>
        <time>2021-11-14T22:40:50.953Z</time>
      </trkpt>
      <trkpt lat="47.551873" lon="7.980135">
        <ele>300.747532</ele>
        <time>2021-11-14T22:40:55.709Z</time>
      </trkpt>
      <trkpt lat="47.551933" lon="7.979363">
        <ele>300.552317</ele>
        <time>2021-11-14T22:41:04.068Z</time>
      </trkpt>
      <trkpt lat="47.551923" lon="7.979308">
        <ele>300.536636</ele>
        <time>2021-11-14T22:41:04.436Z</time>
      </trkpt>
      <trkpt lat="47.551901" lon="7.979190">
        <ele>300.502935</ele>
        <time>2021-11-14T22:41:05.407Z</time>
      </trkpt>
      <trkpt lat="47.551829" lon="7.976305">
        <ele>299.978346</ele>
        <time>2021-11-14T22:41:30.456Z</time>
      </trkpt>
      <trkpt lat="47.551793" lon="7.974325">
        <ele>299.891425</ele>
        <time>2021-11-14T22:41:52.569Z</time>
      </trkpt>
      <trkpt lat="47.551755" lon="7.972603">
        <ele>299.815855</ele>
        <time>2021-11-14T22:42:09.867Z</time>
      </trkpt>
      <trkpt lat="47.551725" lon="7.970823">
        <ele>299.328266</ele>
        <time>2021-11-14T22:42:25.096Z</time>
      </trkpt>
      <trkpt lat="47.551734" lon="7.970034">
        <ele>299.049191</ele>
        <time>2021-11-14T22:42:32.056Z</time>
      </trkpt>
      <trkpt lat="47.551750" lon="7.968659">
        <ele>298.906038</ele>
        <time>2021-11-14T22:42:45.246Z</time>
      </trkpt>
      <trkpt lat="47.551825" lon="7.968445">
        <ele>298.921538</ele>
        <time>2021-11-14T22:42:47.498Z</time>
      </trkpt>
      <trkpt lat="47.551847" lon="7.968315">
        <ele>298.930153</ele>
        <time>2021-11-14T22:42:48.968Z</time>
      </trkpt>
      <trkpt lat="47.551839" lon="7.968208">
        <ele>298.937073</ele>
        <time>2021-11-14T22:42:50.171Z</time>
      </trkpt>
      <trkpt lat="47.551767" lon="7.967910">
        <ele>298.957419</ele>
        <time>2021-11-14T22:42:53.404Z</time>
      </trkpt>
      <trkpt lat="47.551902" lon="7.964650">
        <ele>299.532002</ele>
        <time>2021-11-14T22:43:29.805Z</time>
      </trkpt>
      <trkpt lat="47.551918" lon="7.963725">
        <ele>299.536374</ele>
        <time>2021-11-14T22:43:39.203Z</time>
      </trkpt>
      <trkpt lat="47.551906" lon="7.962453">
        <ele>299.280695</ele>
        <time>2021-11-14T22:43:51.132Z</time>
      </trkpt>
      <trkpt lat="47.551859" lon="7.961133">
        <ele>298.985374</ele>
        <time>2021-11-14T22:44:02.716Z</time>
      </trkpt>
      <trkpt lat="47.551894" lon="7.960729">
        <ele>298.874125</ele>
        <time>2021-11-14T22:44:06.468Z</time>
      </trkpt>
      <trkpt lat="47.551882" lon="7.960631">
        <ele>298.846922</ele>
        <time>2021-11-14T22:44:07.237Z</time>
      </trkpt>
      <trkpt lat="47.551865" lon="7.960528">
        <ele>298.817961</ele>
        <time>2021-11-14T22:44:08.183Z</time>
      </trkpt>
      <trkpt lat="47.551677" lon="7.960100">
        <ele>298.678486</ele>
        <time>2021-11-14T22:44:12.707Z</time>
      </trkpt>
      <trkpt lat="47.551300" lon="7.958844">
        <ele>298.369021</ele>
        <time>2021-11-14T22:44:25.618Z</time>
      </trkpt>
      <trkpt lat="47.550869" lon="7.957700">
        <ele>298.365059</ele>
        <time>2021-11-14T22:44:38.982Z</time>
      </trkpt>
      <trkpt lat="47.550745" lon="7.957569">
        <ele>298.364377</ele>
        <time>2021-11-14T22:44:41.222Z</time>
      </trkpt>
      <trkpt lat="47.550735" lon="7.957541">
        <ele>298.364281</ele>
        <time>2021-11-14T22:44:41.663Z</time>
      </trkpt>
      <trkpt lat="47.550613" lon="7.957254">
        <ele>298.363256</ele>
        <time>2021-11-14T22:44:45.001Z</time>
      </trkpt>
      <trkpt lat="47.550549" lon="7.957126">
        <ele>298.362774</ele>
        <time>2021-11-14T22:44:46.550Z</time>
      </trkpt>
      <trkpt lat="47.550445" lon="7.956918">
        <ele>298.361991</ele>
        <time>2021-11-14T22:44:49.222Z</time>
      </trkpt>
      <trkpt lat="47.550445" lon="7.956918">
        <ele>298.361991</ele>
        <time>2021-11-14T22:44:49.228Z</time>
      </trkpt>
      <trkpt lat="47.550445" lon="7.956918">
        <ele>298.361991</ele>
        <time>2021-11-14T22:44:49.286Z</time>
      </trkpt>
      <trkpt lat="47.550380" lon="7.956806">
        <ele>298.366529</ele>
        <time>2021-11-14T22:44:50.771Z</time>
      </trkpt>
      <trkpt lat="47.550205" lon="7.956552">
        <ele>298.400300</ele>
        <time>2021-11-14T22:44:54.481Z</time>
      </trkpt>
      <trkpt lat="47.549444" lon="7.955496">
        <ele>298.544033</ele>
        <time>2021-11-14T22:45:10.847Z</time>
      </trkpt>
      <trkpt lat="47.549157" lon="7.955099">
        <ele>298.598160</ele>
        <time>2021-11-14T22:45:16.648Z</time>
      </trkpt>
      <trkpt lat="47.549042" lon="7.954942">
        <ele>298.626379</ele>
        <time>2021-11-14T22:45:18.999Z</time>
      </trkpt>
      <trkpt lat="47.548833" lon="7.954652">
        <ele>298.691975</ele>
        <time>2021-11-14T22:45:23.356Z</time>
      </trkpt>
      <trkpt lat="47.548542" lon="7.954269">
        <ele>298.781141</ele>
        <time>2021-11-14T22:45:29.373Z</time>
      </trkpt>
      <trkpt lat="47.548342" lon="7.954009">
        <ele>298.842094</ele>
        <time>2021-11-14T22:45:33.556Z</time>
      </trkpt>
      <trkpt lat="47.548251" lon="7.953895">
        <ele>298.869393</ele>
        <time>2021-11-14T22:45:35.484Z</time>
      </trkpt>
      <trkpt lat="47.548115" lon="7.953729">
        <ele>298.909759</ele>
        <time>2021-11-14T22:45:38.352Z</time>
      </trkpt>
      <trkpt lat="47.547994" lon="7.953584">
        <ele>298.945409</ele>
        <time>2021-11-14T22:45:40.914Z</time>
      </trkpt>
      <trkpt lat="47.547871" lon="7.953437">
        <ele>298.981611</ele>
        <time>2021-11-14T22:45:43.505Z</time>
      </trkpt>
      <trkpt lat="47.547797" lon="7.953355">
        <ele>299.002779</ele>
        <time>2021-11-14T22:45:45.009Z</time>
      </trkpt>
      <trkpt lat="47.547624" lon="7.953160">
        <ele>299.075148</ele>
        <time>2021-11-14T22:45:48.502Z</time>
      </trkpt>
      <trkpt lat="47.547550" lon="7.953078">
        <ele>299.111781</ele>
        <time>2021-11-14T22:45:50.003Z</time>
      </trkpt>
      <trkpt lat="47.547458" lon="7.952975">
        <ele>299.157494</ele>
        <time>2021-11-14T22:45:51.831Z</time>
      </trkpt>
      <trkpt lat="47.547400" lon="7.952910">
        <ele>299.186324</ele>
        <time>2021-11-14T22:45:52.997Z</time>
      </trkpt>
      <trkpt lat="47.547090" lon="7.952543">
        <ele>299.343631</ele>
        <time>2021-11-14T22:45:59.385Z</time>
      </trkpt>
      <trkpt lat="47.546935" lon="7.952372">
        <ele>299.420242</ele>
        <time>2021-11-14T22:46:02.543Z</time>
      </trkpt>
      <trkpt lat="47.546776" lon="7.952185">
        <ele>299.500720</ele>
        <time>2021-11-14T22:46:05.986Z</time>
      </trkpt>
      <trkpt lat="47.546695" lon="7.952091">
        <ele>299.541509</ele>
        <time>2021-11-14T22:46:07.761Z</time>
      </trkpt>
      <trkpt lat="47.546634" lon="7.952024">
        <ele>299.571611</ele>
        <time>2021-11-14T22:46:09.084Z</time>
      </trkpt>
      <trkpt lat="47.546421" lon="7.951793">
        <ele>299.676256</ele>
        <time>2021-11-14T22:46:13.647Z</time>
      </trkpt>
      <trkpt lat="47.546231" lon="7.951558">
        <ele>299.709547</ele>
        <time>2021-11-14T22:46:17.805Z</time>
      </trkpt>
      <trkpt lat="47.546212" lon="7.951535">
        <ele>299.703380</ele>
        <time>2021-11-14T22:46:18.215Z</time>
      </trkpt>
      <trkpt lat="47.546135" lon="7.951406">
        <ele>299.674165</ele>
        <time>2021-11-14T22:46:19.978Z</time>
      </trkpt>
      <trkpt lat="47.545886" lon="7.951110">
        <ele>299.593926</ele>
        <time>2021-11-14T22:46:24.844Z</time>
      </trkpt>
      <trkpt lat="47.545824" lon="7.951061">
        <ele>299.576264</ele>
        <time>2021-11-14T22:46:25.893Z</time>
      </trkpt>
      <trkpt lat="47.545759" lon="7.950982">
        <ele>299.555133</ele>
        <time>2021-11-14T22:46:27.165Z</time>
      </trkpt>
      <trkpt lat="47.545727" lon="7.950947">
        <ele>299.545136</ele>
        <time>2021-11-14T22:46:27.901Z</time>
      </trkpt>
      <trkpt lat="47.545625" lon="7.950829">
        <ele>299.512609</ele>
        <time>2021-11-14T22:46:29.595Z</time>
      </trkpt>
      <trkpt lat="47.545567" lon="7.950765">
        <ele>299.494432</ele>
        <time>2021-11-14T22:46:30.597Z</time>
      </trkpt>
      <trkpt lat="47.545494" lon="7.950684">
        <ele>299.471509</ele>
        <time>2021-11-14T22:46:31.839Z</time>
      </trkpt>
      <trkpt lat="47.545434" lon="7.950668">
        <ele>299.456186</ele>
        <time>2021-11-14T22:46:32.827Z</time>
      </trkpt>
      <trkpt lat="47.545166" lon="7.950366">
        <ele>299.371556</ele>
        <time>2021-11-14T22:46:37.188Z</time>
      </trkpt>
      <trkpt lat="47.544901" lon="7.950044">
        <ele>299.285413</ele>
        <time>2021-11-14T22:46:41.432Z</time>
      </trkpt>
      <trkpt lat="47.544521" lon="7.949558">
        <ele>299.323041</ele>
        <time>2021-11-14T22:46:47.613Z</time>
      </trkpt>
      <trkpt lat="47.544239" lon="7.949202">
        <ele>299.353535</ele>
        <time>2021-11-14T22:46:52.520Z</time>
      </trkpt>
      <trkpt lat="47.543864" lon="7.948694">
        <ele>299.395357</ele>
        <time>2021-11-14T22:47:00.484Z</time>
      </trkpt>
      <trkpt lat="47.543803" lon="7.948608">
        <ele>299.402287</ele>
        <time>2021-11-14T22:47:01.977Z</time>
      </trkpt>
      <trkpt lat="47.543760" lon="7.948548">
        <ele>299.407149</ele>
        <time>2021-11-14T22:47:02.753Z</time>
      </trkpt>
      <trkpt lat="47.543579" lon="7.948287">
        <ele>299.427938</ele>
        <time>2021-11-14T22:47:08.482Z</time>
      </trkpt>
      <trkpt lat="47.543532" lon="7.948214">
        <ele>299.515163</ele>
        <time>2021-11-14T22:47:09.615Z</time>
      </trkpt>
      <trkpt lat="47.543435" lon="7.948000">
        <ele>299.936086</ele>
        <time>2021-11-14T22:47:12.658Z</time>
      </trkpt>
      <trkpt lat="47.543407" lon="7.947938">
        <ele>300.057897</ele>
        <time>2021-11-14T22:47:14.516Z</time>
      </trkpt>
      <trkpt lat="47.543280" lon="7.947656">
        <ele>300.611465</ele>
        <time>2021-11-14T22:47:19.002Z</time>
      </trkpt>
      <trkpt lat="47.543142" lon="7.947250">
        <ele>301.353749</ele>
        <time>2021-11-14T22:47:26.466Z</time>
      </trkpt>
      <trkpt lat="47.543086" lon="7.947052">
        <ele>301.704307</ele>
        <time>2021-11-14T22:47:29.896Z</time>
      </trkpt>
      <trkpt lat="47.543056" lon="7.946935">
        <ele>301.908682</ele>
        <time>2021-11-14T22:47:32.742Z</time>
      </trkpt>
      <trkpt lat="47.543045" lon="7.946881">
        <ele>302.000789</ele>
        <time>2021-11-14T22:47:33.912Z</time>
      </trkpt>
      <trkpt lat="47.542982" lon="7.946547">
        <ele>302.567090</ele>
        <time>2021-11-14T22:47:39.294Z</time>
      </trkpt>
      <trkpt lat="47.542974" lon="7.946495">
        <ele>302.654181</ele>
        <time>2021-11-14T22:47:40.935Z</time>
      </trkpt>
      <trkpt lat="47.542960" lon="7.946400">
        <ele>302.812967</ele>
        <time>2021-11-14T22:47:43.000Z</time>
      </trkpt>
      <trkpt lat="47.542916" lon="7.945730">
        <ele>303.875817</ele>
        <time>2021-11-14T22:47:55.666Z</time>
      </trkpt>
      <trkpt lat="47.542913" lon="7.945267">
        <ele>304.421032</ele>
        <time>2021-11-14T22:48:04.161Z</time>
      </trkpt>
      <trkpt lat="47.543007" lon="7.943867">
        <ele>306.077687</ele>
        <time>2021-11-14T22:48:25.328Z</time>
      </trkpt>
      <trkpt lat="47.543161" lon="7.942213">
        <ele>306.516502</ele>
        <time>2021-11-14T22:48:43.734Z</time>
      </trkpt>
      <trkpt lat="47.543435" lon="7.940670">
        <ele>305.843708</ele>
        <time>2021-11-14T22:48:56.682Z</time>
      </trkpt>
      <trkpt lat="47.543826" lon="7.939433">
        <ele>304.343981</ele>
        <time>2021-11-14T22:49:07.083Z</time>
      </trkpt>
      <trkpt lat="47.544472" lon="7.937932">
        <ele>302.276342</ele>
        <time>2021-11-14T22:49:20.407Z</time>
      </trkpt>
      <trkpt lat="47.544705" lon="7.937395">
        <ele>301.530110</ele>
        <time>2021-11-14T22:49:25.247Z</time>
      </trkpt>
      <trkpt lat="47.544903" lon="7.936917">
        <ele>300.874528</ele>
        <time>2021-11-14T22:49:29.507Z</time>
      </trkpt>
      <trkpt lat="47.545074" lon="7.936484">
        <ele>300.288107</ele>
        <time>2021-11-14T22:49:33.338Z</time>
      </trkpt>
      <trkpt lat="47.545457" lon="7.935110">
        <ele>299.098654</ele>
        <time>2021-11-14T22:49:44.707Z</time>
      </trkpt>
      <trkpt lat="47.545674" lon="7.933625">
        <ele>298.258260</ele>
        <time>2021-11-14T22:49:57.787Z</time>
      </trkpt>
      <trkpt lat="47.545702" lon="7.933290">
        <ele>298.193694</ele>
        <time>2021-11-14T22:50:01.367Z</time>
      </trkpt>
      <trkpt lat="47.545724" lon="7.932758">
        <ele>298.687392</ele>
        <time>2021-11-14T22:50:07.634Z</time>
      </trkpt>
      <trkpt lat="47.545721" lon="7.931992">
        <ele>299.396924</ele>
        <time>2021-11-14T22:50:17.673Z</time>
      </trkpt>
      <trkpt lat="47.545696" lon="7.931497">
        <ele>299.856707</ele>
        <time>2021-11-14T22:50:24.879Z</time>
      </trkpt>
      <trkpt lat="47.545661" lon="7.930955">
        <ele>300.361036</ele>
        <time>2021-11-14T22:50:33.574Z</time>
      </trkpt>
      <trkpt lat="47.545563" lon="7.929641">
        <ele>301.480304</ele>
        <time>2021-11-14T22:50:55.914Z</time>
      </trkpt>
      <trkpt lat="47.545475" lon="7.928419">
        <ele>302.498834</ele>
        <time>2021-11-14T22:51:12.216Z</time>
      </trkpt>
      <trkpt lat="47.545421" lon="7.927686">
        <ele>302.147481</ele>
        <time>2021-11-14T22:51:18.320Z</time>
      </trkpt>
      <trkpt lat="47.545406" lon="7.927306">
        <ele>301.502451</ele>
        <time>2021-11-14T22:51:21.223Z</time>
      </trkpt>
      <trkpt lat="47.545407" lon="7.927001">
        <ele>300.985607</ele>
        <time>2021-11-14T22:51:23.510Z</time>
      </trkpt>
      <trkpt lat="47.545409" lon="7.926773">
        <ele>300.599216</ele>
        <time>2021-11-14T22:51:25.139Z</time>
      </trkpt>
      <trkpt lat="47.545417" lon="7.925848">
        <ele>299.031627</ele>
        <time>2021-11-14T22:51:31.474Z</time>
      </trkpt>
      <trkpt lat="47.545446" lon="7.925350">
        <ele>298.147432</ele>
        <time>2021-11-14T22:51:34.766Z</time>
      </trkpt>
      <trkpt lat="47.545466" lon="7.924880">
        <ele>297.033344</ele>
        <time>2021-11-14T22:51:37.820Z</time>
      </trkpt>
      <trkpt lat="47.545481" lon="7.924396">
        <ele>295.887138</ele>
        <time>2021-11-14T22:51:40.903Z</time>
      </trkpt>
      <trkpt lat="47.545521" lon="7.923709">
        <ele>294.255867</ele>
        <time>2021-11-14T22:51:45.428Z</time>
      </trkpt>
      <trkpt lat="47.545536" lon="7.923407">
        <ele>293.539494</ele>
        <time>2021-11-14T22:51:47.576Z</time>
      </trkpt>
      <trkpt lat="47.545553" lon="7.923142">
        <ele>292.909759</ele>
        <time>2021-11-14T22:51:49.407Z</time>
      </trkpt>
      <trkpt lat="47.545587" lon="7.922895">
        <ele>292.313405</ele>
        <time>2021-11-14T22:51:51.341Z</time>
      </trkpt>
      <trkpt lat="47.545641" lon="7.922610">
        <ele>291.865816</ele>
        <time>2021-11-14T22:51:53.486Z</time>
      </trkpt>
      <trkpt lat="47.545690" lon="7.922369">
        <ele>291.686483</ele>
        <time>2021-11-14T22:51:55.493Z</time>
      </trkpt>
      <trkpt lat="47.545699" lon="7.922325">
        <ele>291.653725</ele>
        <time>2021-11-14T22:51:55.787Z</time>
      </trkpt>
      <trkpt lat="47.545714" lon="7.922249">
        <ele>291.597308</ele>
        <time>2021-11-14T22:51:56.377Z</time>
      </trkpt>
      <trkpt lat="47.545778" lon="7.921947">
        <ele>291.371777</ele>
        <time>2021-11-14T22:51:59.080Z</time>
      </trkpt>
      <trkpt lat="47.545810" lon="7.921755">
        <ele>291.230869</ele>
        <time>2021-11-14T22:52:00.560Z</time>
      </trkpt>
      <trkpt lat="47.545881" lon="7.921096">
        <ele>290.755389</ele>
        <time>2021-11-14T22:52:06.022Z</time>
      </trkpt>
      <trkpt lat="47.545913" lon="7.920765">
        <ele>290.517146</ele>
        <time>2021-11-14T22:52:08.915Z</time>
      </trkpt>
      <trkpt lat="47.545973" lon="7.920313">
        <ele>290.188929</ele>
        <time>2021-11-14T22:52:13.385Z</time>
      </trkpt>
      <trkpt lat="47.546128" lon="7.919617">
        <ele>289.941505</ele>
        <time>2021-11-14T22:52:20.626Z</time>
      </trkpt>
      <trkpt lat="47.546262" lon="7.919081">
        <ele>289.807565</ele>
        <time>2021-11-14T22:52:26.674Z</time>
      </trkpt>
      <trkpt lat="47.546821" lon="7.916867">
        <ele>289.177793</ele>
        <time>2021-11-14T22:52:47.342Z</time>
      </trkpt>
      <trkpt lat="47.547032" lon="7.916218">
        <ele>288.944351</ele>
        <time>2021-11-14T22:52:53.650Z</time>
      </trkpt>
      <trkpt lat="47.547091" lon="7.916039">
        <ele>288.879797</ele>
        <time>2021-11-14T22:52:55.424Z</time>
      </trkpt>
      <trkpt lat="47.547113" lon="7.915971">
        <ele>288.855361</ele>
        <time>2021-11-14T22:52:56.014Z</time>
      </trkpt>
      <trkpt lat="47.547423" lon="7.915080">
        <ele>288.630154</ele>
        <time>2021-11-14T22:53:05.501Z</time>
      </trkpt>
      <trkpt lat="47.547994" lon="7.913433">
        <ele>289.066455</ele>
        <time>2021-11-14T22:53:25.205Z</time>
      </trkpt>
      <trkpt lat="47.548027" lon="7.913334">
        <ele>289.092473</ele>
        <time>2021-11-14T22:53:26.565Z</time>
      </trkpt>
      <trkpt lat="47.548412" lon="7.912168">
        <ele>289.787692</ele>
        <time>2021-11-14T22:53:42.968Z</time>
      </trkpt>
      <trkpt lat="47.549012" lon="7.910340">
        <ele>291.323256</ele>
        <time>2021-11-14T22:54:09.914Z</time>
      </trkpt>
      <trkpt lat="47.549102" lon="7.910058">
        <ele>291.626992</ele>
        <time>2021-11-14T22:54:14.028Z</time>
      </trkpt>
      <trkpt lat="47.549195" lon="7.909756">
        <ele>291.950213</ele>
        <time>2021-11-14T22:54:18.351Z</time>
      </trkpt>
      <trkpt lat="47.549323" lon="7.909330">
        <ele>292.404258</ele>
        <time>2021-11-14T22:54:24.368Z</time>
      </trkpt>
      <trkpt lat="47.549520" lon="7.908678">
        <ele>293.099823</ele>
        <time>2021-11-14T22:54:33.629Z</time>
      </trkpt>
      <trkpt lat="47.549539" lon="7.908625">
        <ele>293.158257</ele>
        <time>2021-11-14T22:54:34.363Z</time>
      </trkpt>
      <trkpt lat="47.550497" lon="7.905558">
        <ele>298.351227</ele>
        <time>2021-11-14T22:55:29.265Z</time>
      </trkpt>
      <trkpt lat="47.550283" lon="7.905413">
        <ele>299.227481</ele>
        <time>2021-11-14T22:55:37.431Z</time>
      </trkpt>
      <trkpt lat="47.550067" lon="7.905245">
        <ele>300.135898</ele>
        <time>2021-11-14T22:55:46.117Z</time>
      </trkpt>
      <trkpt lat="47.549867" lon="7.905155">
        <ele>300.914238</ele>
        <time>2021-11-14T22:55:53.746Z</time>
      </trkpt>
      <trkpt lat="47.549868" lon="7.905010">
        <ele>301.278688</ele>
        <time>2021-11-14T22:55:57.151Z</time>
      </trkpt>
      <trkpt lat="47.550025" lon="7.904774">
        <ele>302.111518</ele>
        <time>2021-11-14T22:56:05.302Z</time>
      </trkpt>
      <trkpt lat="47.550302" lon="7.904164">
        <ele>303.959325</ele>
        <time>2021-11-14T22:56:23.601Z</time>
      </trkpt>
      <trkpt lat="47.550498" lon="7.903445">
        <ele>305.892821</ele>
        <time>2021-11-14T22:56:43.173Z</time>
      </trkpt>
      <trkpt lat="47.550688" lon="7.902451">
        <ele>308.451199</ele>
        <time>2021-11-14T22:57:05.721Z</time>
      </trkpt>
      <trkpt lat="47.550757" lon="7.901591">
        <ele>310.595913</ele>
        <time>2021-11-14T22:57:25.518Z</time>
      </trkpt>
      <trkpt lat="47.550769" lon="7.901362">
        <ele>311.164719</ele>
        <time>2021-11-14T22:57:31.425Z</time>
      </trkpt>
      <trkpt lat="47.550801" lon="7.900244">
        <ele>314.330188</ele>
        <time>2021-11-14T22:57:55.823Z</time>
      </trkpt>
      <trkpt lat="47.550819" lon="7.898109">
        <ele>319.928573</ele>
        <time>2021-11-14T22:58:42.863Z</time>
      </trkpt>
      <trkpt lat="47.550648" lon="7.896481">
        <ele>322.799662</ele>
        <time>2021-11-14T22:59:10.518Z</time>
      </trkpt>
      <trkpt lat="47.550639" lon="7.896345">
        <ele>323.037791</ele>
        <time>2021-11-14T22:59:12.893Z</time>
      </trkpt>
      <trkpt lat="47.550660" lon="7.896255">
        <ele>323.203732</ele>
        <time>2021-11-14T22:59:13.694Z</time>
      </trkpt>
      <trkpt lat="47.550838" lon="7.895509">
        <ele>324.171505</ele>
        <time>2021-11-14T22:59:23.862Z</time>
      </trkpt>
      <trkpt lat="47.550878" lon="7.895158">
        <ele>324.484698</ele>
        <time>2021-11-14T22:59:27.924Z</time>
      </trkpt>
      <trkpt lat="47.550908" lon="7.894308">
        <ele>325.233578</ele>
        <time>2021-11-14T22:59:38.397Z</time>
      </trkpt>
      <trkpt lat="47.550892" lon="7.893176">
        <ele>326.534919</ele>
        <time>2021-11-14T22:59:53.114Z</time>
      </trkpt>
      <trkpt lat="47.550904" lon="7.891725">
        <ele>330.746169</ele>
        <time>2021-11-14T23:00:22.876Z</time>
      </trkpt>
      <trkpt lat="47.550915" lon="7.890600">
        <ele>334.094040</ele>
        <time>2021-11-14T23:00:51.716Z</time>
      </trkpt>
      <trkpt lat="47.550833" lon="7.889069">
        <ele>340.592197</ele>
        <time>2021-11-14T23:01:34.350Z</time>
      </trkpt>
      <trkpt lat="47.550831" lon="7.888611">
        <ele>342.530077</ele>
        <time>2021-11-14T23:01:46.920Z</time>
      </trkpt>
      <trkpt lat="47.550789" lon="7.887816">
        <ele>345.822315</ele>
        <time>2021-11-14T23:02:07.532Z</time>
      </trkpt>
      <trkpt lat="47.550758" lon="7.887295">
        <ele>347.808451</ele>
        <time>2021-11-14T23:02:21.353Z</time>
      </trkpt>
      <trkpt lat="47.550677" lon="7.886476">
        <ele>350.951765</ele>
        <time>2021-11-14T23:02:42.842Z</time>
      </trkpt>
      <trkpt lat="47.550548" lon="7.885799">
        <ele>353.623123</ele>
        <time>2021-11-14T23:03:00.045Z</time>
      </trkpt>
      <trkpt lat="47.550391" lon="7.885109">
        <ele>356.100516</ele>
        <time>2021-11-14T23:03:17.683Z</time>
      </trkpt>
      <trkpt lat="47.550332" lon="7.884727">
        <ele>357.220194</ele>
        <time>2021-11-14T23:03:26.373Z</time>
      </trkpt>
      <trkpt lat="47.550234" lon="7.883221">
        <ele>361.543156</ele>
        <time>2021-11-14T23:03:59.204Z</time>
      </trkpt>
      <trkpt lat="47.549927" lon="7.881490">
        <ele>366.122210</ele>
        <time>2021-11-14T23:04:31.468Z</time>
      </trkpt>
      <trkpt lat="47.549726" lon="7.880786">
        <ele>368.000279</ele>
        <time>2021-11-14T23:04:47.445Z</time>
      </trkpt>
      <trkpt lat="47.549327" lon="7.879547">
        <ele>371.630318</ele>
        <time>2021-11-14T23:05:17.229Z</time>
      </trkpt>
      <trkpt lat="47.549318" lon="7.879398">
        <ele>372.045469</ele>
        <time>2021-11-14T23:05:20.417Z</time>
      </trkpt>
      <trkpt lat="47.549140" lon="7.879391">
        <ele>372.777594</ele>
        <time>2021-11-14T23:05:27.287Z</time>
      </trkpt>
      <trkpt lat="47.548718" lon="7.879258">
        <ele>374.551520</ele>
        <time>2021-11-14T23:05:40.958Z</time>
      </trkpt>
      <trkpt lat="47.548422" lon="7.878959">
        <ele>376.024518</ele>
        <time>2021-11-14T23:05:51.605Z</time>
      </trkpt>
      <trkpt lat="47.548234" lon="7.878638">
        <ele>376.853943</ele>
        <time>2021-11-14T23:06:00.037Z</time>
      </trkpt>
      <trkpt lat="47.547992" lon="7.877974">
        <ele>377.206749</ele>
        <time>2021-11-14T23:06:13.134Z</time>
      </trkpt>
      <trkpt lat="47.547574" lon="7.876801">
        <ele>377.826905</ele>
        <time>2021-11-14T23:06:26.898Z</time>
      </trkpt>
      <trkpt lat="47.547126" lon="7.875801">
        <ele>376.793673</ele>
        <time>2021-11-14T23:06:35.680Z</time>
      </trkpt>
      <trkpt lat="47.546309" lon="7.874154">
        <ele>373.671926</ele>
        <time>2021-11-14T23:06:49.905Z</time>
      </trkpt>
      <trkpt lat="47.546135" lon="7.873859">
        <ele>373.480052</ele>
        <time>2021-11-14T23:06:52.824Z</time>
      </trkpt>
      <trkpt lat="47.546077" lon="7.873763">
        <ele>373.416950</ele>
        <time>2021-11-14T23:06:54.077Z</time>
      </trkpt>
      <trkpt lat="47.545934" lon="7.873549">
        <ele>373.269464</ele>
        <time>2021-11-14T23:06:56.453Z</time>
      </trkpt>
      <trkpt lat="47.545908" lon="7.873514">
        <ele>373.243974</ele>
        <time>2021-11-14T23:06:56.868Z</time>
      </trkpt>
      <trkpt lat="47.545934" lon="7.873549">
        <ele>373.218483</ele>
        <time>2021-11-14T23:06:57.414Z</time>
      </trkpt>
      <trkpt lat="47.546077" lon="7.873763">
        <ele>373.070998</ele>
        <time>2021-11-14T23:07:00.616Z</time>
      </trkpt>
      <trkpt lat="47.546135" lon="7.873859">
        <ele>373.007896</ele>
        <time>2021-11-14T23:07:01.640Z</time>
      </trkpt>
      <trkpt lat="47.546309" lon="7.874154">
        <ele>372.816021</ele>
        <time>2021-11-14T23:07:05.806Z</time>
      </trkpt>
      <trkpt lat="47.546983" lon="7.875513">
        <ele>371.256719</ele>
        <time>2021-11-14T23:07:24.124Z</time>
      </trkpt>
      <trkpt lat="47.546309" lon="7.874154">
        <ele>369.081628</ele>
        <time>2021-11-14T23:07:36.237Z</time>
      </trkpt>
      <trkpt lat="47.546135" lon="7.873859">
        <ele>367.640809</ele>
        <time>2021-11-14T23:07:38.696Z</time>
      </trkpt>
      <trkpt lat="47.546077" lon="7.873763">
        <ele>367.109540</ele>
        <time>2021-11-14T23:07:39.533Z</time>
      </trkpt>
      <trkpt lat="47.545934" lon="7.873549">
        <ele>365.867831</ele>
        <time>2021-11-14T23:07:41.358Z</time>
      </trkpt>
      <trkpt lat="47.545746" lon="7.873302">
        <ele>364.332774</ele>
        <time>2021-11-14T23:07:43.675Z</time>
      </trkpt>
      <trkpt lat="47.545515" lon="7.873015">
        <ele>362.491038</ele>
        <time>2021-11-14T23:07:46.393Z</time>
      </trkpt>
      <trkpt lat="47.545478" lon="7.872968">
        <ele>362.193293</ele>
        <time>2021-11-14T23:07:46.837Z</time>
      </trkpt>
      <trkpt lat="47.545375" lon="7.872836">
        <ele>361.361308</ele>
        <time>2021-11-14T23:07:48.034Z</time>
      </trkpt>
      <trkpt lat="47.545131" lon="7.872664">
        <ele>359.710581</ele>
        <time>2021-11-14T23:07:50.499Z</time>
      </trkpt>
      <trkpt lat="47.544883" lon="7.872555">
        <ele>358.130288</ele>
        <time>2021-11-14T23:07:52.821Z</time>
      </trkpt>
      <trkpt lat="47.544390" lon="7.872423">
        <ele>355.026971</ele>
        <time>2021-11-14T23:07:57.286Z</time>
      </trkpt>
      <trkpt lat="47.543332" lon="7.872237">
        <ele>348.423721</ele>
        <time>2021-11-14T23:08:07.053Z</time>
      </trkpt>
      <trkpt lat="47.543251" lon="7.872152">
        <ele>347.808510</ele>
        <time>2021-11-14T23:08:07.994Z</time>
      </trkpt>
      <trkpt lat="47.543233" lon="7.872082">
        <ele>347.495122</ele>
        <time>2021-11-14T23:08:08.415Z</time>
      </trkpt>
      <trkpt lat="47.543013" lon="7.872182">
        <ele>346.866727</ele>
        <time>2021-11-14T23:08:10.655Z</time>
      </trkpt>
      <trkpt lat="47.542919" lon="7.872226">
        <ele>346.866727</ele>
        <time>2021-11-14T23:08:11.576Z</time>
      </trkpt>
      <trkpt lat="47.542814" lon="7.872280">
        <ele>346.866727</ele>
        <time>2021-11-14T23:08:12.629Z</time>
      </trkpt>
      <trkpt lat="47.542714" lon="7.872334">
        <ele>346.866727</ele>
        <time>2021-11-14T23:08:13.717Z</time>
      </trkpt>
      <trkpt lat="47.542537" lon="7.872430">
        <ele>346.866727</ele>
        <time>2021-11-14T23:08:15.450Z</time>
      </trkpt>
      <trkpt lat="47.542436" lon="7.872494">
        <ele>346.866727</ele>
        <time>2021-11-14T23:08:16.785Z</time>
      </trkpt>
      <trkpt lat="47.542394" lon="7.872341">
        <ele>346.866727</ele>
        <time>2021-11-14T23:08:17.872Z</time>
      </trkpt>
      <trkpt lat="47.542218" lon="7.871866">
        <ele>346.866727</ele>
        <time>2021-11-14T23:08:21.548Z</time>
      </trkpt>
      <trkpt lat="47.542091" lon="7.871721">
        <ele>346.866727</ele>
        <time>2021-11-14T23:08:23.061Z</time>
      </trkpt>
      <trkpt lat="47.542067" lon="7.871664">
        <ele>346.866727</ele>
        <time>2021-11-14T23:08:23.789Z</time>
      </trkpt>
      <trkpt lat="47.542039" lon="7.871556">
        <ele>346.866727</ele>
        <time>2021-11-14T23:08:24.687Z</time>
      </trkpt>
      <trkpt lat="47.541953" lon="7.871286">
        <ele>346.866727</ele>
        <time>2021-11-14T23:08:26.873Z</time>
      </trkpt>
      <trkpt lat="47.541796" lon="7.871042">
        <ele>346.866727</ele>
        <time>2021-11-14T23:08:29.420Z</time>
      </trkpt>
      <trkpt lat="47.541790" lon="7.871032">
        <ele>346.866727</ele>
        <time>2021-11-14T23:08:29.609Z</time>
      </trkpt>
    </trkseg>
  </trk>
</gpx>